[[{"header":{"parameterUnit":"m.s-1","parameterCategory":1,"la1":30.6,"la2":29.2853,"lo1":-89.7004,"lo2":-87.6739,"dy":0.0162,"dx":0.0183,"nx":112,"ny":82,"refTime":"2024-09-04T12:00:00:Z","depth":0,"parameterNumber":2,"parameterNumberName":"U-component_of_WINDS"},"data":[0.0,0.0,0.0,0.0,0.0,0.0,0.0,0.0,0.0,0.0,0.0,0.0,0.0,0.0,0.0,0.0,0.0,0.0,0.0,0.0,0.0,0.0,0.0,0.0,0.0,0.0,0.0,0.0,0.0,0.0,0.0,0.0,0.0,0.0,0.0,0.0,0.0,0.0,0.0,0.0,0.0,0.0,0.0,0.0,0.0,0.0,0.0,0.0,0.0,0.0,0.0,0.0,0.0,0.0,0.0,0.0,0.0,0.0,0.0,0.0,0.0,0.0,0.0,0.0,0.0,0.0,0.0,0.0,0.0,0.0,0.0,0.0,0.0,0.0,0.0,0.0,0.0,0.0,0.0,0.0,0.0,0.0,0.0,0.0,0.0,0.0,0.0,0.0,0.0,0.0,0.9496,0.9883,1.0399,1.0585,1.0313,0.8639,0.6846,0.5119,0.0,0.0,0.0,0.0,0.0,0.0,0.0,0.0,0.0,0.0,0.0,0.0,0.0,0.0,0.0,0.0,0.0,0.0,0.0,0.0,0.0,0.0,0.0,0.0,0.0,0.0,0.0,0.0,0.0,0.0,0.0,0.0,0.0,0.0,0.0,0.0,0.0,0.0,0.0,0.0,0.0,0.0,0.0,0.0,0.0,0.0,0.0,0.0,0.0,0.0,0.0,0.0,0.0,0.0,0.0,0.0,0.0,0.0,0.0,0.0,0.0,0.0,0.0,0.0,0.0,0.0,0.0,0.0,0.0,0.0,0.0,0.0,0.0,0.0,0.0,0.0,0.0,0.0,0.0,0.0,0.0,0.0,0.0,0.0,0.0,0.0,0.0,0.0,0.0,0.0,0.0,0.0,0.0,0.0,0.0,0.0,0.0,0.0,0.0,0.0,0.0,0.0,0.0,0.0,0.9555,1.0304,1.0588,1.0047,0.8568,0.6797,0.5022,0.3242,0.0,0.0,0.0,0.0,0.0,0.0,0.0,0.0,0.0,0.0,0.0,0.0,0.0,0.0,0.0,0.0,0.0,0.0,0.0,0.0,0.0,0.0,0.0,0.0,0.0,0.0,0.0,0.0,0.0,0.0,0.0,0.0,0.0,0.0,0.0,0.0,0.0,0.0,0.0,0.0,0.0,0.0,0.0,0.0,0.0,0.0,0.0,0.0,0.0,0.0,0.0,0.0,0.0,0.0,0.0,0.0,0.0,0.0,0.0,0.0,0.0,0.0,0.0,0.0,0.0,0.0,0.0,0.0,0.0,0.0,0.0,0.0,0.0,0.0,0.0,0.0,0.0,0.0,0.0,0.0,0.0,0.0,0.0,0.0,0.0,0.0,0.0,0.0,0.0,0.0,0.0,0.0,0.0,0.0,0.0,0.0,0.0,0.0,0.0,0.0,0.0,0.0,0.0,0.9523,0.9795,1.0534,1.0602,1.0261,0.9395,0.6832,0.4885,0.407,0.2283,0.0,0.0,0.0,0.0,0.0,0.0,0.0,0.0,0.0,0.0,0.0,0.0,0.0,0.0,0.0,0.0,0.0,0.0,0.0,0.0,0.0,0.0,0.0,0.0,0.0,0.0,0.0,0.0,0.0,0.0,0.0,0.0,0.0,0.0,0.0,0.0,0.0,0.0,0.0,0.0,0.0,0.0,0.0,0.0,0.0,0.0,0.0,0.0,0.0,0.0,0.0,0.0,0.0,0.0,0.0,0.0,0.0,0.0,0.0,0.0,0.0,0.0,0.0,0.0,0.0,0.0,0.0,0.0,0.0,0.0,0.0,0.0,0.0,0.0,0.0,0.0,0.0,0.0,0.0,0.0,0.0,0.0,0.0,0.0,0.0,0.0,0.0,0.0,0.0,0.0,0.0,0.0,0.0,0.0,0.0,0.0,0.0,0.0,0.0,0.0,0.0,0.0,0.9971,1.0209,1.067,1.0582,1.0493,1.0493,0.7166,0.51,0.5112,0.1906,0.0,0.0,0.0,0.0,0.0,0.0,0.0,0.0,0.0,0.0,0.0,0.0,0.0,0.0,0.0,0.0,0.0,0.0,0.0,0.0,0.0,0.0,0.0,0.0,0.0,0.0,0.0,0.0,0.0,0.0,0.0,0.0,0.0,0.0,0.0,0.0,0.0,0.0,0.0,0.0,0.0,0.0,0.0,0.0,0.0,0.0,0.0,0.0,0.0,0.0,0.0,0.0,0.0,0.0,0.0,0.0,0.0,0.0,0.0,0.0,0.0,0.0,0.0,0.0,0.0,0.0,0.0,0.0,0.0,0.0,0.0,0.0,0.0,0.0,0.0,0.0,0.0,0.0,0.0,0.0,0.0,0.0,0.0,0.0,0.0,0.0,0.0,0.0,0.0,0.0,0.0,0.0,0.0,0.0,0.0,0.0,0.0,0.0,0.0,0.0,0.0,0.0,1.0148,1.067,1.0717,1.0582,1.0493,1.0493,0.716,0.5108,0.5104,0.1866,0.0,0.0,0.0,0.0,0.0,0.0,0.0,0.0,0.0,0.0,0.0,0.0,0.0,0.0,0.0,0.0,0.0,0.0,0.0,0.0,0.0,0.0,0.0,0.0,0.0,0.0,0.0,0.0,0.0,0.0,0.0,0.0,0.0,0.0,0.0,0.0,0.0,0.0,0.0,0.0,0.0,0.0,0.0,0.0,0.0,0.0,0.0,0.0,0.0,0.0,0.0,0.0,0.0,0.0,0.0,0.0,0.0,0.0,0.0,0.0,0.0,0.0,0.0,0.0,0.0,0.0,0.0,0.0,0.0,0.0,0.0,0.0,0.0,0.0,0.0,0.0,0.0,0.0,0.0,0.0,0.0,0.0,0.0,0.0,0.0,0.0,0.0,0.0,0.0,0.0,0.0,0.0,0.0,0.0,0.0,0.0,0.0,0.0,0.0,0.0,0.0,0.0,0.9924,1.0412,0.0,1.0507,1.0358,1.0358,0.705,0.4954,0.4972,0.0,0.0,0.0,0.0,0.0,0.0,0.0,0.0,0.0,0.0,0.0,0.0,0.0,0.0,0.0,0.0,0.0,0.0,0.0,0.0,0.0,0.0,0.0,0.0,0.0,0.0,0.0,0.0,0.0,0.0,0.0,0.0,0.0,0.0,0.0,0.0,0.0,0.0,0.0,0.0,0.0,0.0,0.0,0.0,0.0,0.0,0.0,0.0,0.0,0.0,0.0,0.0,0.0,0.0,0.0,0.0,0.0,0.0,0.0,0.0,0.0,0.0,0.0,0.0,0.0,0.0,0.0,0.0,0.0,0.0,0.0,0.0,0.0,0.0,0.0,0.0,0.0,0.0,0.0,0.0,0.0,0.0,0.0,0.0,0.0,0.0,0.0,0.0,0.0,0.0,0.0,0.0,0.0,0.0,0.0,0.0,0.0,0.0,0.0,0.0,0.0,0.0,0.934,0.9897,1.0378,0.0,1.046,1.0283,1.0283,0.7387,0.5412,0.4923,0.0,0.0,0.0,0.0,0.0,0.0,0.0,0.0,0.0,0.0,0.0,0.0,0.0,0.0,0.0,0.0,0.0,0.0,0.0,0.0,0.0,0.0,0.0,0.0,0.0,0.0,0.0,0.0,0.0,0.0,0.0,0.0,0.0,0.0,0.0,0.0,0.0,0.0,0.0,0.0,0.0,0.0,0.0,0.0,0.0,0.0,0.0,0.0,0.0,0.0,0.0,0.0,0.0,0.0,0.0,0.0,0.0,0.0,0.0,0.0,0.0,0.0,0.0,0.0,0.0,0.0,0.0,0.0,0.0,0.0,0.0,0.0,0.0,0.0,0.0,0.0,0.0,0.0,0.0,0.0,0.0,0.0,0.0,0.0,0.0,0.0,0.0,0.0,0.0,0.0,0.0,0.0,0.0,0.0,0.0,0.0,0.0,0.0,0.0,0.0,0.0,0.0,0.9381,1.0168,1.0717,1.0717,1.046,1.0283,1.0283,0.8331,0.6478,0.0,0.0,0.0,0.0,0.0,0.0,0.0,0.0,0.0,0.0,0.0,0.0,0.0,0.0,0.0,0.0,0.0,0.0,0.0,0.0,0.0,0.0,0.0,0.0,0.0,0.0,0.0,0.0,0.0,0.0,0.0,0.0,0.0,0.0,0.0,0.0,0.0,0.0,0.0,0.0,0.0,0.0,0.0,0.0,0.0,0.0,0.0,0.0,0.0,0.0,0.0,0.0,0.0,0.0,0.0,0.0,0.0,0.0,0.0,0.0,0.0,0.0,0.0,0.0,0.0,0.0,0.0,0.0,0.0,0.0,0.0,0.0,0.0,0.0,0.0,0.0,0.0,0.0,0.0,0.0,0.0,0.0,0.0,0.0,0.0,0.0,0.0,0.0,0.0,0.0,0.0,0.0,0.0,0.0,0.0,0.0,0.0,0.0,0.0,0.0,0.0,0.0,0.0,0.953,1.0229,1.0717,1.0717,1.0548,1.0392,1.029,0.7459,0.5474,0.4923,0.0,0.0,0.0,0.0,0.0,0.0,0.0,0.0,0.0,0.0,0.0,0.0,0.0,0.0,0.0,0.0,0.0,0.0,0.0,0.0,0.0,0.0,0.0,0.0,0.0,0.0,0.0,0.0,0.0,0.0,0.0,0.0,0.0,0.0,0.0,0.0,0.0,0.0,0.0,0.0,0.0,0.0,0.0,0.0,0.0,0.0,0.0,0.0,0.0,0.0,0.0,0.0,0.0,0.0,0.0,0.0,0.0,0.0,0.0,0.0,0.0,0.0,0.0,0.0,0.0,0.0,0.0,0.0,0.0,0.0,0.0,0.0,0.0,0.0,0.0,0.0,0.0,0.0,0.0,0.0,0.0,0.0,0.0,0.0,0.0,0.0,0.0,0.0,0.0,0.0,0.0,0.0,0.0,0.0,0.0,0.0,0.0,0.0,0.0,0.0,0.0,0.0,0.9591,1.0263,1.0717,1.0717,0.992,0.9386,0.9321,0.6632,0.468,0.3977,0.0,0.0,0.0,0.0,0.0,0.0,0.0,0.0,0.0,0.0,0.0,0.0,0.0,0.0,0.0,0.0,0.0,0.0,0.0,0.0,0.0,0.0,0.0,0.0,0.0,0.0,0.0,0.0,0.0,0.0,0.0,0.0,0.0,0.0,0.0,0.0,0.0,0.0,0.0,0.0,0.0,0.0,0.0,0.0,0.0,0.0,0.0,0.0,0.0,0.0,0.0,0.0,0.0,0.0,0.0,0.0,0.0,0.0,0.0,0.0,0.0,0.0,0.0,0.0,0.0,0.0,0.0,0.0,0.0,0.0,0.0,0.0,0.0,0.0,0.0,0.0,0.0,0.0,0.0,0.0,0.0,0.0,0.0,0.0,0.0,0.0,0.0,0.0,0.0,0.0,0.0,0.0,0.0,0.0,0.0,0.0,0.0,0.0,0.0,0.0,0.0,0.0,0.9605,1.0072,1.0452,1.0452,0.8744,0.7577,0.7522,0.5695,0.3962,0.2594,0.0,0.0,0.0,0.0,0.0,0.0,0.0,0.0,0.0,0.0,0.0,0.0,0.0,0.0,0.0,0.0,0.0,0.0,0.0,0.0,0.0,0.0,0.0,0.0,0.0,0.0,0.0,0.0,0.0,0.0,0.0,0.0,0.0,0.0,0.0,0.0,0.0,0.0,0.0,0.0,0.0,0.0,0.0,0.0,0.0,0.0,0.0,0.0,0.0,0.0,0.0,0.0,0.0,0.0,0.0,0.0,0.0,0.0,0.0,0.0,-0.489,-0.2288,0.0,0.0,0.0,0.0,0.0,0.0,0.0,0.0,0.0,0.0,0.0,0.0,0.0,0.0,0.0,0.0,0.0,0.0,0.0,0.0,0.0,0.0,0.0,0.0,0.0,0.0,0.0,0.0,0.0,0.0,0.0,0.0,0.0,0.0,0.0,0.0,0.0,0.0,0.0,0.0,0.9741,0.9096,0.8568,0.8568,0.6947,0.5876,0.5661,0.4107,0.2942,0.2507,0.1232,0.0,0.0,0.0,0.0,0.0,0.0,0.0,0.0,0.0,0.0,0.0,0.0,0.0,0.0,0.0,0.0,0.0,0.0,0.0,0.0,0.0,0.0,0.0,0.0,0.0,0.0,0.0,0.0,0.0,0.0,0.0,0.0,0.0,0.0,0.0,0.0,0.0,0.0,0.0,0.0,0.0,0.0,0.0,0.0,0.0,0.0,0.0,0.0,0.0,0.0,0.0,0.0,0.0,0.0,0.0,0.0,0.0,0.0,0.0,-0.8942,-0.5442,0.0,0.0,0.0,0.0,0.0,0.0,0.0,0.0,0.0,0.0,0.0,0.0,0.0,0.0,0.0,0.0,0.0,0.0,0.0,0.0,0.0,0.0,0.0,0.0,0.0,0.0,0.0,0.0,0.0,0.0,0.0,0.0,0.0,0.0,0.0,0.0,0.0,0.0,0.0,0.0,0.7413,0.7011,0.6747,0.6766,0.5175,0.4081,0.3925,0.2412,0.1364,0.1312,0.0462,0.0,0.0,0.0,0.0,0.0,0.0,0.0,0.0,0.0,0.0,0.0,0.0,0.0,0.0,0.0,0.0,0.0,0.0,0.0,0.0,0.0,0.0,0.0,0.0,0.0,0.0,0.0,0.0,0.0,0.0,0.0,0.0,0.0,0.0,0.0,0.0,0.0,0.0,0.0,0.0,0.0,0.0,0.0,0.0,0.0,0.0,0.0,0.0,0.0,0.0,0.0,0.0,0.0,-1.962,-2.095,-2.2297,-2.1404,-2.0054,-1.8104,-1.2069,-0.8278,-0.6331,-0.5669,0.0,0.0,0.0,0.0,0.0,0.0,0.0,0.0,0.0,0.0,0.0,0.0,0.0,0.0,0.0,0.0,0.0,0.0,0.0,0.0,0.0,0.0,0.0,0.0,0.0,0.0577,0.28,0.0,0.0,0.0,0.0,0.0,0.0,0.0,0.0,0.0,0.0,0.0,0.4896,0.4903,0.4939,0.4948,0.3296,0.2228,0.2256,0.0829,0.0,0.0,0.0,0.0,0.0,0.0,0.0,0.0,0.0,0.0,0.0,0.0,0.0,0.0,0.0,0.0,0.0,0.0,0.0,0.0,0.0,0.0,0.0,0.0,0.0,0.0,0.0,0.0,0.0,0.0,0.0,0.0,0.0,0.0,0.0,0.0,-1.1078,-0.9799,0.0,0.0,0.0,0.0,0.0,0.0,0.0,0.0,0.0,0.0,0.0,0.0,0.0,-1.0511,-1.0857,-1.2495,-1.3624,-1.4367,-1.9114,-2.1525,-2.1797,-2.3207,-2.2032,-1.8797,-1.6476,0.0,-1.0035,-0.83,0.0,0.0,0.0,0.0,0.0,0.0,0.0,0.0,0.0,0.0,0.0,0.0,0.0,0.0,0.0,0.0,0.0,0.0,0.0,0.0,0.0,0.0,0.0,0.0,0.0,0.0067,0.0,0.1446,0.2274,0.2265,0.318,0.0,0.0,0.0,0.0,0.0,0.0,0.0,0.4909,0.3816,0.3086,0.3078,0.1407,0.0332,0.0388,0.0129,0.0,0.0,0.0,0.0,0.0,0.0,0.0,0.0,0.0,0.0,0.0,0.0,0.0,0.0,0.0,0.0,0.0,0.0,0.0,0.0,0.0,0.0,0.0,0.0,0.0,0.0,0.0,0.0,0.0,0.0,0.0,0.0,0.0,0.0,0.0,-1.2288,-1.1784,-1.0135,-0.9971,-1.01,0.0,0.0,0.0,0.0,0.0,0.0,0.0,0.0,0.0,-1.0649,-1.0717,-1.0819,-1.0968,-1.1772,-1.2733,-1.3779,-1.6274,-1.7995,-1.9163,-1.984,-1.9378,-1.8036,-1.5904,-1.4135,-1.2555,-1.0312,-0.8445,-0.699,0.0,0.0,0.0,0.0,-0.2733,-0.2537,-0.0657,0.0,0.0,0.0,0.0,0.0,0.0,0.0,0.0,0.0,0.0,0.0,0.0,0.0,0.0,0.0,0.0,0.0,0.0,0.046,0.0894,0.0,0.1369,0.1778,0.1779,0.0,0.0,0.0,0.0,0.21,0.2143,0.1592,0.1206,0.1196,0.0462,0.0,0.0,0.0,0.0,0.0,0.0,0.0,0.0,0.0,0.0,0.0,0.0,0.0,0.0,0.0,0.0,0.0,0.0,0.0,0.0,0.0,0.0,0.0,0.0,0.0,0.0,0.0,0.0,0.0,0.0,0.0,0.0,0.0,0.0,0.0,0.0,0.0,0.0,-1.2323,-1.2155,-1.0363,-1.0297,-1.0342,0.0,0.0,0.0,0.0,0.0,0.0,-1.1142,-1.0875,-1.09,-1.1096,-1.1212,-1.1287,-1.1459,-1.0895,-1.1288,-1.2734,-1.3287,-1.434,-1.5822,-1.6605,-1.6605,-1.5937,-1.4056,-1.275,-1.1979,-1.1068,-1.0062,-0.903,-0.8683,-0.7928,-0.6735,-0.4303,-0.3505,-0.3222,-0.0825,0.0,0.0,0.0,0.0,0.0,0.0,0.0,0.0,0.0,0.0,0.0,0.0,0.0,0.0,0.0,0.0,0.0,0.0,0.0,0.0,0.0,0.0,0.0,0.0,0.0,0.0,0.0,0.0,0.0,0.0,0.0,0.0,0.0,0.0,0.0,0.0,0.0,0.0,0.0,0.0,0.0,0.0,0.0,0.0,0.0,0.0,0.0,0.0,0.0,0.0,0.0,0.0,0.0,0.0,0.0,0.0,0.0,0.0,0.0,0.0,0.0,0.0,0.0,0.0,0.0,0.0,0.0,0.0,0.0,0.0,0.0,0.0,0.0,0.0,-1.0681,-1.0602,0.0,0.0,0.0,0.0,-1.4452,-1.3678,-1.3159,-1.3339,-1.2233,-1.1633,-1.1782,-1.1932,-1.2006,-1.2013,-1.0059,-0.9084,-0.9164,-1.0989,-1.1864,-1.21,-1.5813,-1.5435,-1.1953,-1.1722,-0.9589,-0.6509,-0.9777,-1.1131,-1.1055,-1.1035,-1.096,-1.0479,-0.681,-0.545,-0.491,-0.1303,0.0,0.0,0.0,0.0,0.0,0.0,0.0,0.0,0.0,0.0,0.0,0.0,0.0,0.0,0.0,0.0,0.0,0.0,0.0,0.0,0.0,0.0,0.0,0.0,0.0,0.0,0.0,0.0,0.0,0.0,0.0,0.0,0.0,0.0,0.0,0.0,0.0,0.0,0.0,0.0,0.0,0.0,0.0,0.0,0.0,0.0,0.0,0.0,0.0,0.0,0.0,0.0,0.0,0.0,0.0,0.0,0.0,0.0,0.0,0.0,0.0,0.0,0.0,0.0,0.0,0.0,0.0,0.0,0.0,0.0,0.0,0.0,0.0,0.0,-1.0925,-1.1002,0.0,-1.1229,-1.1549,-1.197,-1.2429,-1.233,-1.2277,-1.243,-1.2081,-1.1925,-1.1979,-1.2033,-1.2135,-1.2135,-0.9949,-0.9,-0.9066,-0.83,-0.8031,-0.8229,-0.9473,-0.9276,-0.7999,-0.79,-0.7092,-0.5876,-0.7204,-0.7679,-0.7692,-0.889,-0.9393,-0.9181,-0.6571,-0.5677,-0.5203,-0.1334,0.0,0.0,0.0,0.0,0.0,0.0,0.0,0.0,0.0,0.0,0.0,0.0,0.0,0.0,0.0,0.0,0.0,0.0,0.0,0.0,0.0,0.0,0.0,0.0,0.0,0.0,0.0,0.0,0.0,0.0,0.0,0.0,0.0,0.0,0.0,0.0,0.0,0.0,0.0,0.0,0.0,0.0,0.0,0.0,0.0,0.0,0.0,0.0,0.0,0.0,0.0,0.0,0.0,0.0,0.0,0.0,0.0,0.0,0.0,0.0,0.0,0.0,0.0,0.0,0.0,0.0,0.0,0.0,0.0,0.0,0.0,0.0,-1.268,-1.2217,-1.1159,-1.1328,-1.1382,-1.0982,-1.1212,-1.1389,-1.1389,-1.1626,-1.183,-1.1979,-1.2081,-1.2182,-1.2284,-1.2237,-1.2237,-1.2284,-0.9482,-0.8058,-0.8229,-0.5932,-0.5034,-0.5268,-0.5701,-0.5584,-0.499,-0.4853,-0.4429,-0.3875,-0.3875,-0.3764,-0.3989,-0.648,-0.7535,-0.7375,-0.5376,-0.4749,-0.4332,-0.1121,0.0,0.0,0.0,0.0,0.0,0.0,0.0,0.0,0.0,0.0471,0.0941,0.0941,0.0941,0.0941,0.0941,0.0471,0.0,0.0,0.0,0.0,0.0,0.0,0.0,0.0,0.0,0.0,0.0,0.0,0.0,0.0,0.0,0.0,0.0,0.0,0.0,0.0,0.0,0.0,0.0,0.0,0.0,0.0,0.0,0.0,0.0,0.0,0.0,0.0,0.0,0.0,0.0,0.0,0.0,0.0,0.0,0.0,0.0,0.0,0.0,0.0,0.0,0.0,0.0,0.0,0.0,0.0,0.0,0.0,0.0,0.0,0.0,-1.2661,-1.1976,-1.1348,-1.1206,-1.1579,-1.1735,-1.1443,-1.1681,-1.185,-1.1843,-1.1986,-1.2135,-1.2291,-1.2298,-1.2427,-1.2718,-1.2583,-1.2583,-1.2732,-0.842,-0.6298,-0.6294,-0.4064,-0.303,-0.3029,-0.496,-0.4748,-0.3002,-0.2891,-0.174,0.0,0.0,0.0,-0.0378,-0.4185,-0.5739,-0.5449,-0.356,-0.2861,-0.251,-0.0679,0.0,0.0,0.0,0.0,0.0,0.0,0.0,0.0,0.0,0.1277,0.2618,0.2618,0.2618,0.2618,0.2618,0.1277,0.0,0.0,0.0,0.0,0.0,0.0,0.0,0.0,0.0,0.0,0.0,0.0,0.0,0.0,0.0,0.0,0.0,0.0,0.0,0.0,0.0,0.0,0.0,0.0,0.0,0.0,0.0,0.0,0.0,0.0,0.0,0.0,0.0,0.0,0.0,0.0,0.0,0.0,0.0,0.0,0.0,0.0,0.0,0.0,0.0,0.0,0.0,0.0,0.0,0.0,0.0,0.0,0.0,-1.2793,-1.1909,-1.1936,-1.1752,-1.1735,-1.1809,-1.2115,-1.2203,-1.1904,-1.2142,-1.2271,-1.2169,-1.2203,-1.2291,-1.2433,-1.244,-1.2528,-1.2725,-1.2691,-1.2739,-1.2895,-0.8588,-0.6424,-0.6364,-0.2665,-0.089,-0.089,-0.137,-0.136,-0.087,-0.0788,-0.0468,0.0,0.0,0.0,-0.0227,-0.2746,-0.3684,-0.3606,-0.3063,-0.2004,-0.0698,-0.0204,0.0,0.0,0.0,0.0,0.0,0.0,0.0,0.0,0.0,0.0336,0.074,0.074,0.074,0.074,0.074,0.0336,0.0,0.0,0.0,0.0,0.0,0.0,0.0,0.0,0.0,0.0,0.0,0.0,0.0,0.0,0.0,0.0,0.0,0.0,0.0,0.0,0.0,0.0,0.0,0.0,0.0,0.0,0.0,0.0,0.0,0.0,0.0,0.0,0.0,0.0,0.0,0.0,0.0,0.0,0.0,0.0,0.0,0.0,0.0,0.0,0.0,0.0,0.0,0.0,0.0,0.0,0.0,0.0,0.0,-1.3755,-1.2685,-1.1958,-1.1972,-1.2081,-1.223,-1.2454,-1.2556,-1.2447,-1.2535,-1.2562,-1.2481,-1.2413,-1.244,-1.2589,-1.2596,-1.2698,-1.2908,-1.2861,-1.2416,-1.1658,-0.819,-0.6007,-0.5058,-0.1636,0.0,0.0,0.0,0.0,0.0,0.0,0.0,0.0,0.0,0.0,-0.0077,0.0,0.0,0.0,0.0,-0.0999,0.0,0.0,0.0,0.0,0.0,0.0,0.0,0.0,0.0,0.0135,0.0941,0.168,0.2283,0.2283,0.2283,0.2083,0.1344,0.0538,0.0,0.0,0.0,0.0,0.0,0.0,0.0,0.0,0.0,0.0,0.0,0.0,0.0,0.0,0.0,0.0,0.0,0.0,0.0,0.0,0.0,0.0,0.0,0.0,0.0,0.0,0.0,0.0,0.0,0.0,0.0,0.0,0.0,0.0,0.0,0.0,0.0,0.0,0.0,0.0,0.0,0.0,0.0,0.0,0.0,0.0,0.0,0.0,0.0,0.0,0.0,0.0,0.0,-1.5756,-1.4253,-1.2899,-1.2491,-1.2386,-1.2515,-1.2678,-1.2827,-1.2949,-1.2854,-1.2773,-1.2759,-1.263,-1.261,-1.2752,-1.2759,0.0,0.0,0.0,-1.1745,-0.9809,-0.7347,-0.5147,-0.3142,-0.0994,0.0,0.0,0.0,0.0,0.0,0.0,0.0,0.0,0.0,0.0,0.0,0.0,0.0,0.0,0.0,0.0,0.0,0.0,0.0,0.0,0.0,0.0,0.0,0.0,0.0135,0.0673,0.2287,0.4029,0.5366,0.5171,0.5101,0.4626,0.2819,0.1142,0.0,0.0,0.0,0.0,0.0,0.0,0.0,0.0,0.0,0.0,0.0,0.0,0.0,0.0,0.0,0.0,0.0,0.0,0.0,0.0,0.0,0.0,0.0,0.0,0.0,0.0,0.0,0.0,0.0,0.0,0.0,0.0,0.0,0.0,0.0,0.0,0.0,0.0,0.0,0.0,0.0,0.0,0.0,0.0,0.0,0.0,0.0,0.0,0.0,0.0,0.0,0.0,-1.9824,-1.7277,-1.5136,-1.5135,-1.3645,-1.2657,-1.2684,-1.2922,-1.3057,-1.2969,-1.3037,-1.3037,-1.2929,-1.2888,-1.2888,-1.2915,-1.2915,-1.2996,-1.3166,-1.1417,-1.0306,-0.9926,-0.5918,-0.3755,-0.3346,-0.109,0.0,0.0,0.0,0.0,0.0,0.0,0.0,0.0,0.0,0.0,0.0,0.0,0.0,0.0,0.0,0.0,0.0,0.0,0.0,0.0,0.0,0.0,0.0,0.0,0.1009,0.0,0.2723,0.406,0.5111,0.3743,0.3316,0.2752,0.0941,0.0269,0.0,0.0,0.0,0.0,0.0,0.0,0.0,0.0,0.0,0.0,0.0,0.0,0.0,0.0,0.0,0.0,0.0,0.0,0.0,0.0,0.0,0.0,0.0,0.0,0.0,0.0,0.0,0.0,0.0,0.0,0.0,0.0,0.0,0.0,0.0,0.0,0.0,0.0,0.0,0.0,0.0,0.0,0.0,0.0,0.0,0.0,0.0,0.0,-2.2759,-2.4068,0.0,-2.1815,-2.1381,-1.9854,-1.7998,-1.6233,-1.6202,-1.5569,-1.3196,-1.3085,-1.3173,-1.318,-1.3247,-1.3227,-1.3078,-1.3064,-1.3098,-1.318,-1.318,-1.3281,-1.3498,-1.1221,-0.9534,-0.8437,-0.5071,-0.2786,-0.1681,-0.0505,0.0,0.0,0.0,0.0,0.0,0.0,0.0,0.0,0.0,0.0,0.0,0.0,0.0,0.0,0.0,0.0,0.0,0.0,0.0,0.0,0.0,0.0,0.0,0.0,0.1298,0.2993,0.3996,0.4884,0.5276,0.4486,0.3512,0.2262,0.0412,0.0,0.0,0.0,0.0,0.0,0.0,0.0,0.0,0.0,0.0,0.0,0.0,0.0,0.0,0.0,0.0,0.0,0.0,0.0,0.0,0.0,0.0,0.0,0.0,0.0,0.0,0.0,0.0,0.0,0.0,0.0,0.0,0.0,0.0,0.0,0.0,0.0,0.0,0.0,0.0,0.0,0.0,0.0,0.0,0.0,-2.4035,-2.6163,-2.5474,-2.5884,-2.6448,-2.6839,-2.5812,-2.475,-2.4072,-2.3314,-2.1739,-1.873,-1.9403,-1.9014,-1.5723,-1.4914,-1.4736,-1.4871,-1.4387,-1.4088,-1.3959,-1.3542,-1.3356,-1.3478,-1.3485,-1.3593,-1.3745,-1.1063,-0.8783,-0.6915,-0.4097,-0.1787,0.0,0.0,0.0,0.0,0.0,0.0,0.0,0.0,0.0,0.0,0.0,0.0,0.0,0.0,0.0229,0.0599,0.0596,0.0807,0.1079,0.0718,0.057,0.0494,0.0141,0.0,0.0,0.0,0.1321,0.3174,0.4678,0.5315,0.5517,0.5181,0.392,0.224,0.0421,0.0,0.0,0.0,0.0,0.0,0.0,0.0,0.0,0.0,0.0,0.0,0.0,0.0,0.0,0.0,0.0,0.0,0.0,0.0,0.0,0.0,0.0,0.0,0.0,0.0,0.0,0.0,0.0,0.0,0.0,0.0,0.0,0.0,0.0,0.0,0.0,0.0,0.0,-2.0214,-2.1445,-2.2698,-2.1869,-2.3042,-2.4715,0.0,-2.6291,-2.6406,-2.7251,-2.7139,-2.7128,-2.7845,-2.7776,-2.8443,-3.0729,-2.7973,-2.5555,-2.5607,-2.2727,-2.1124,-2.2617,-2.1149,-1.9963,-1.9992,-1.8073,-1.6885,-1.6868,-1.4939,-1.3777,-1.379,-1.379,-1.3804,-1.3838,-0.9597,-0.7173,-0.6908,-0.2574,-0.0257,0.0,0.0,0.0,0.0,0.0,0.0,0.0,0.0,0.0,0.0,0.0,0.0,0.0,0.0,0.1165,0.2753,0.2617,0.3771,0.5073,0.3203,0.261,0.2313,0.0573,0.0,0.0,0.0,0.1259,0.2799,0.3119,0.4299,0.5108,0.3614,0.2963,0.224,0.0421,0.0,0.0,0.0,0.0,0.0,0.0,0.0,0.0,0.0,0.0,0.0,0.0,0.0,0.0,0.0,0.0,0.0,0.0,0.0,0.0,0.0,0.0,0.0,0.0,0.0,0.0,0.0,0.0,0.0,0.0,0.0,0.0,0.0,0.0,0.0,0.0,0.0,0.0,-2.1149,-2.2034,-2.2767,-2.2552,-2.4929,-2.6978,-2.574,-2.7896,-2.9691,-2.8149,-2.7969,-2.8565,-3.0312,-2.9899,-3.01,-3.2742,-3.1695,-3.0184,-2.913,-2.7607,-2.6574,-2.6216,-2.6669,-2.5828,-2.2925,-2.1838,-2.0214,-1.7552,-1.6462,-1.5339,-1.406,-1.3973,-1.34,-1.2068,-0.8724,-0.6329,-0.4983,-0.1658,0.0,0.0,0.0,0.0,0.0,0.0,0.0,0.0,0.0,0.0,0.0,0.0,0.0,0.0,0.0,0.1259,0.3103,0.305,0.3602,0.4216,0.3314,0.2197,0.1092,0.029,0.0,0.0,0.0,0.1354,0.2837,0.2874,0.3373,0.3792,0.3095,0.2014,0.0932,0.0215,0.0,0.0,0.0,0.0,0.0,0.0,0.0,0.0,0.0,0.0,0.0,0.0,0.0,0.0,0.0,0.0,0.0,0.0,0.0,0.0,0.0,0.0,0.0,0.0,0.0,0.0,0.0,0.0,0.0,0.0,0.0,0.0,0.0,0.0,0.0,0.0,0.0,0.0,-2.1764,-2.259,-2.3266,-2.3956,-2.6824,-2.8916,-2.6852,-2.9577,-3.1759,-2.8877,-2.855,-2.9625,-3.2173,-3.1711,-3.1935,-3.515,-3.514,-3.4278,-3.2745,-3.1715,-3.0773,-2.9785,-3.0704,-3.0001,-2.6419,-2.5625,-2.337,-1.8794,-1.7863,-1.6562,-1.4366,-1.353,-1.2408,-1.0712,-0.7773,-0.5345,-0.3627,-0.1855,-0.0616,0.0,-0.0689,-0.0684,0.0,0.0,0.0,0.0,-0.0673,-0.0584,-0.0082,-0.0658,-0.0568,0.0,0.0,0.1264,0.3127,0.3103,0.3433,0.3814,0.3269,0.2065,0.0732,0.0146,0.0,0.0,0.0,0.1013,0.2084,0.2105,0.211,0.211,0.211,0.1023,0.0,0.0,0.0,0.0,0.0,0.0,0.0,0.0,0.0,0.0,0.0,0.0,0.0,0.0,0.0,0.0,0.0,0.0,0.0,0.0,0.0,0.0,0.0,0.0,0.0,0.0,0.0,0.0,0.0,0.0,0.0,0.0,0.0,0.0,0.0,0.0,0.0,0.0,0.0,0.0,-2.183,-2.3488,-2.5338,-2.6748,-2.8656,-3.0557,-3.1573,-3.1614,-3.1046,-2.9639,-2.9088,-2.9686,-3.2577,-3.3017,-3.4582,-3.9491,-3.8583,-3.727,-3.7647,-3.405,-3.2201,-3.4229,-3.2694,-3.1309,-3.1197,-2.9133,-2.5944,-2.1592,-1.9075,-1.6784,-1.4578,-1.2117,-1.0801,-1.0717,-0.6165,-0.3669,-0.3578,-0.3542,-0.2292,0.0,-0.2414,-0.2305,0.0,0.0,0.0,-0.0084,-0.2268,-0.2016,-0.0168,-0.2377,-0.203,0.0,0.0,0.1255,0.313,0.3128,0.4265,0.5657,0.3586,0.2891,0.2514,0.0586,0.0,0.0,0.0,0.0073,0.0073,0.0073,0.0073,0.0073,0.0073,0.0074,0.0,0.0,0.0,0.0,0.0,0.0,0.0,0.0,0.0,0.0,0.0,0.0,0.0,0.0,0.0,0.0,0.0,0.0,0.0,0.0,0.0,0.0,0.0,0.0,0.0,0.0,0.0,0.0,0.0,0.0,0.0,0.0,0.0,0.0,0.0,0.0,0.0,0.0,0.0,0.0,-2.207,-2.4178,-2.6132,-2.7455,-3.0484,-3.2939,-3.2426,-3.2225,-3.1523,-2.9579,-2.7985,-2.8048,-3.1669,-3.2856,-3.4744,-3.9375,-4.0182,-4.0347,-4.0499,-3.6852,-3.4435,-3.5031,-3.1729,-2.8723,-2.7142,-2.757,-2.6052,-2.1582,-1.9099,-1.6114,-1.22,-1.1182,-0.9286,-0.6079,-0.599,-0.5186,-0.358,-0.5169,-0.5515,-0.4713,-0.548,-0.5405,-0.4599,-0.4467,-0.4444,-0.4444,-0.5198,-0.5093,-0.4477,-0.5305,-0.5068,-0.4326,-0.4323,-0.3805,-0.3125,-0.3125,-0.2726,-0.17,0.1815,0.2167,0.089,0.022,0.0,0.0,0.0,0.0,0.0,0.0,0.0,0.0,0.0,0.0,0.0,0.0,0.0,0.0,0.0,0.0,0.0,0.0,0.0,0.0,0.0,0.0,0.0,0.0,0.0,0.0,0.0,0.0,0.0,0.0,0.0,0.0,0.0,0.0,0.0,0.0,0.0,0.0,0.0,0.0,0.0,0.0,0.0,0.0,0.0,0.0,0.0,0.0,0.0,0.0,-2.2479,-2.4576,-2.6701,-2.8811,-3.138,-3.3433,-3.3528,-3.239,-3.077,-2.9154,-2.7135,-2.694,-3.1076,-3.1863,-3.3312,-3.795,-3.9056,-3.9308,-3.9375,-3.6569,-3.4423,-3.4071,-3.0029,-2.6546,-2.4885,-2.4438,-2.3082,-2.0288,-1.7851,-1.4801,-1.1009,-0.9147,-0.716,-0.4947,-0.5465,-0.5544,-0.4829,-0.7235,-0.8381,-0.8349,-0.7447,-0.7008,-0.6932,-0.6856,-0.6741,-0.6822,-0.755,-0.7421,-0.6797,-0.7564,-0.7378,-0.6484,-0.6504,-0.6439,-0.6332,-0.6332,-0.6332,-0.5689,-0.1681,-0.1055,-0.2162,-0.2134,-0.1608,-0.102,-0.102,-0.0583,0.0,0.0,0.0,0.0,0.0,0.0,0.0,0.0,0.0,-0.0228,-0.098,-0.1126,-0.1343,-0.207,-0.2205,-0.1909,-0.1255,-0.0516,0.0,0.0,0.0,0.0,0.0,0.0,0.0,0.0,0.0,0.0,0.0,0.0,-0.0297,-0.1034,-0.1126,-0.1433,-0.2242,-0.2267,-0.2303,-0.235,-0.2292,-0.2324,-0.2368,-0.1634,-0.1237,-0.1172,-0.0415,0.0,-2.3075,-2.4829,-2.7069,-3.0535,-3.1383,-3.2063,-3.4744,-3.1975,-2.8867,-2.8597,-2.6687,-2.635,-3.0591,-3.019,-3.0804,-3.5628,-3.5481,-3.4833,-3.5081,-3.3551,-3.2219,-3.1891,-2.7826,-2.4984,-2.4555,-2.0452,-1.7839,-1.784,-1.5433,-1.2989,-1.0643,-0.6233,-0.4762,-0.689,-0.5034,-0.5008,-0.7239,-0.9646,-1.0838,-1.0822,-0.8527,-0.7432,-0.7443,-0.727,-0.7233,-0.7315,-0.9333,-0.8957,-0.7198,-0.9346,-0.891,-0.6872,-0.6789,-0.6713,-0.6644,-0.6644,-0.6644,-0.6633,-0.6634,-0.6326,-0.6023,-0.6018,-0.47,-0.3056,-0.3056,-0.1749,-0.0292,-0.0292,-0.0295,-0.0298,-0.0298,-0.0303,-0.0308,-0.0309,-0.0309,-0.0848,-0.2848,-0.3279,-0.3853,-0.5882,-0.612,-0.5425,-0.3466,-0.1498,-0.0149,0.0,0.0,0.0,0.0,0.0,0.0,0.0,0.0,-0.0073,-0.0149,-0.0149,-0.1046,-0.3095,-0.3251,-0.4157,-0.6187,-0.634,-0.6344,-0.6502,-0.6487,-0.6601,-0.6677,-0.4624,-0.351,-0.3328,-0.1172,-0.0084,-2.4368,-2.6022,-2.7225,-2.8918,-3.0249,-3.1337,-3.2391,-3.0249,-2.7845,-2.7402,-2.5725,-2.5157,-2.7453,-2.8773,-3.0392,-3.3102,-3.4592,-3.5477,-3.5576,-3.4112,-3.3006,-3.2678,-2.843,-2.4718,-2.2629,-1.9668,-1.7088,-1.5403,-1.2945,-0.9829,-0.5673,-0.5915,-0.5638,-0.4491,-0.7338,-0.9197,-0.9735,-1.2148,-1.3382,-1.335,-1.2623,-1.2289,-1.2334,-1.2021,-1.1914,-1.1908,-1.2368,-1.2222,-1.1712,-1.2238,-1.2019,-1.132,-1.1183,-1.1053,-1.0934,-1.0934,-1.0934,-1.0928,-1.0898,-0.8871,-0.6253,-0.6251,-0.5799,-0.5226,-0.5226,-0.483,-0.4369,-0.4407,-0.4504,-0.4535,-0.4621,-0.4665,-0.4699,-0.4663,-0.4673,-0.4818,-0.5388,-0.5517,-0.5641,-0.6194,-0.6241,-0.5556,-0.3472,-0.2638,-0.1801,-0.0223,0.0,0.0,0.0,0.0,0.0,0.0,0.0,-0.066,-0.215,-0.2319,-0.3236,-0.5353,-0.5449,-0.5711,-0.627,-0.6393,-0.6501,-0.6498,-0.6594,-0.668,-0.6673,-0.6224,-0.5084,-0.3329,-0.291,-0.1722,-2.6694,-2.7833,-2.8515,-2.9409,-2.9524,-2.9753,-3.096,-2.8532,-2.604,-2.6328,-2.5044,-2.4268,-2.5923,-2.6998,-2.8377,-3.0557,-3.1718,-3.2456,-3.2759,-3.1277,-3.0458,-3.1107,-2.6934,-2.371,-2.3097,-2.0771,-1.8348,-1.5893,-1.1666,-0.8413,-0.6838,-0.6971,-0.7406,-0.8242,-1.1837,-1.3764,-1.3797,-1.4102,-1.4299,-1.4299,-1.4211,-1.417,-1.4163,-1.3858,-1.3722,-1.3709,-1.3492,-1.3403,-1.3397,-1.3308,-1.3152,-1.2949,-1.2868,-1.2698,-1.2501,-1.2501,-1.2501,-1.2501,-1.2501,-1.0963,-0.9024,-0.8865,-0.8169,-0.736,-0.7206,-0.662,-0.598,-0.5987,-0.6039,-0.6187,-0.6274,-0.6319,-0.628,-0.6322,-0.6332,-0.6555,-0.7439,-0.7658,-0.794,-0.8758,-0.8237,-0.6945,-0.4761,-0.3641,-0.2432,-0.0303,0.0,0.0,0.0,0.0,-0.037,-0.1271,-0.1339,-0.2232,-0.4362,-0.4469,-0.541,-0.7502,-0.7679,-0.8123,-0.9046,-0.9159,-0.9292,-0.945,-0.9514,-0.9104,-0.8123,-0.7245,-0.5594,-0.3244,-0.2406,-0.13,-2.9055,-2.9395,-2.9661,-3.0114,-2.8599,-2.7515,-2.9399,-2.6576,-2.3926,-2.5099,-2.4186,-2.3611,-2.5022,-2.5198,-2.5704,-2.7631,-2.7838,-2.7787,-2.8056,-2.6657,-2.6342,-2.8338,-2.4914,-2.293,-2.4613,-2.2891,-2.0663,-1.8252,-1.2144,-0.9304,-1.1014,-0.9707,-1.0911,-1.541,-1.7451,-1.8443,-1.8279,-1.5946,-1.4734,-1.4734,-1.4476,-1.4292,-1.4258,-1.3973,-1.3831,-1.3797,-1.3519,-1.3403,-1.3397,-1.3376,-1.3207,-1.3043,-1.2935,-1.2752,-1.2501,-1.2501,-1.2501,-1.2501,-1.2501,-1.2501,-1.2461,-1.2203,-1.0964,-0.9548,-0.927,-0.8155,-0.7069,-0.6853,-0.6947,-0.7064,-0.7152,-0.7134,-0.7111,-0.7111,-0.6878,-0.7189,-0.8983,-0.9216,-0.9501,-1.118,-1.0164,-0.8302,-0.6005,-0.4207,-0.239,-0.0308,0.0,0.0,0.0,-0.0228,-0.1122,-0.2875,-0.3327,-0.4399,-0.6517,-0.6678,-0.7642,-0.9703,-0.9864,-1.071,-1.2673,-1.2779,-1.2908,-1.3166,-1.2942,-1.1852,-1.0044,-0.7797,-0.5575,-0.325,-0.1373,-0.0348,-2.8985,-2.8474,-2.765,-2.6447,-2.5281,-2.4545,-2.4887,-2.3612,-2.2391,-2.2615,-2.2633,-2.27,-2.3297,-2.4363,-2.4796,-2.3753,-2.4311,-2.445,-2.3313,-2.293,-2.3651,-2.6039,-2.5308,-2.4667,-2.5008,-2.4465,-2.3115,-2.0759,-1.7653,-1.5184,-1.3618,-1.6647,-1.9752,-2.2663,-2.3058,-2.2407,-2.0616,-1.8366,-1.7159,-1.7159,-1.5256,-1.4231,-1.4102,-1.3926,-1.3777,-1.3654,-1.3478,-1.3403,-1.339,-1.3261,-1.3112,-1.2949,-1.282,-1.2657,-1.2501,-1.2501,-1.2501,-1.2501,-1.2501,-1.2501,-1.2494,-1.244,-1.2109,-1.1776,-1.173,-1.1433,-1.1096,-1.1189,-1.1251,-1.1314,-1.142,-1.1386,-1.1405,-1.1405,-1.0075,-0.8983,-0.9299,-0.805,-0.6952,-0.7251,-0.7104,-0.6169,-0.3968,-0.335,-0.2413,-0.0309,0.0,0.0,0.0,-0.1524,-0.2725,-0.3065,-0.4707,-0.6589,-0.8659,-0.8898,-0.9757,-1.1958,-1.2135,-1.2358,-1.2915,-1.303,-1.3119,-1.3173,-1.1547,-1.0444,-1.0044,-0.7941,-0.5637,-0.3372,-0.3142,-0.1943,-3.0736,-2.9228,-2.7288,-2.6328,-2.4768,-2.346,-2.314,-2.2392,-2.1764,-2.1764,-2.2111,-2.2458,-2.2605,-2.3848,-2.4243,-2.2348,-2.3023,-2.3298,-2.1715,-2.0686,-2.0988,-2.3461,-2.3544,-2.3797,-2.4893,-2.5958,-2.6066,-2.4935,-2.4816,-2.3268,-1.9704,-2.3821,-2.732,-2.9727,-2.7478,-2.5736,-2.467,-2.1277,-1.8976,-1.7763,-1.6641,-1.5425,-1.4068,-1.3912,-1.3763,-1.362,-1.3464,-1.3403,-1.3397,-1.3322,-1.3159,-1.2956,-1.2881,-1.2705,-1.2501,-1.2501,-1.2501,-1.2501,-1.2501,-1.2501,-1.2501,-1.2501,-1.2454,-1.2372,-1.2216,-1.223,-1.2291,-1.2291,-1.2345,-1.2413,-1.2481,-1.2501,-1.2269,-1.1172,-0.9294,-0.7816,-0.7816,-0.7033,-0.6332,-0.6332,-0.6332,-0.563,-0.3443,-0.313,-0.2423,-0.0312,0.0,0.0,0.0,-0.1779,-0.3086,-0.3103,-0.4013,-0.5467,-0.759,-0.7825,-0.8252,-0.9291,-0.9351,-0.9437,-0.9622,-0.9652,-0.9738,-0.9798,-0.8851,-0.7725,-0.6593,-0.5524,-0.3858,-0.165,-0.1668,-0.1062,-3.1216,-2.9363,-2.7343,-2.6572,-2.4792,-2.3086,-2.2539,-2.1924,-2.1534,-2.1601,-2.1964,-2.2352,-2.2405,-2.3527,-2.3654,-2.1279,-2.1791,-2.1871,-1.9949,-1.8375,-1.8308,-2.0731,-2.1373,-2.2522,-2.465,-2.6872,-2.8221,-2.8221,-3.0676,-3.0724,-2.7508,-3.0742,-3.345,-3.5298,-3.1945,-2.9604,-2.8632,-2.4682,-2.1546,-1.9237,-1.8244,-1.6665,-1.4786,-1.4029,-1.3715,-1.3573,-1.3451,-1.3383,-1.3349,-1.3349,-1.318,-1.2908,-1.2908,-1.2745,-1.2501,-1.2501,-1.2501,-1.2501,-1.2501,-1.2501,-1.2501,-1.2501,-1.2501,-1.2461,-1.223,-1.2318,-1.2481,-1.2366,-1.2413,-1.2501,-1.2501,-1.2501,-1.1876,-0.9376,-0.7111,-0.5474,-0.5086,-0.493,-0.493,-0.493,-0.493,-0.4381,-0.274,-0.2427,-0.188,-0.0236,0.0,0.0,0.0,-0.1411,-0.2427,-0.2427,-0.3208,-0.4459,-0.6176,-0.6332,-0.6346,-0.638,-0.636,-0.6431,-0.652,-0.6581,-0.6556,-0.67,-0.6214,-0.5071,-0.3329,-0.291,-0.1724,0.0,0.0,0.0,-2.7347,-2.7225,-2.6997,-2.4988,-2.3682,-2.2819,-2.2485,-2.1764,-2.1229,-2.1561,-2.1804,-2.2111,-2.2378,-2.3207,-2.2683,-1.9028,-1.906,-1.8435,-1.5182,-1.4738,-1.5602,-1.8051,-2.0176,-2.2291,-2.4481,-2.6855,-2.8221,-2.8221,-3.2052,-3.5039,-3.655,-3.7046,-3.7401,-3.7578,-3.7241,-3.5103,-3.1129,-2.8562,-2.6221,-2.3995,-1.9656,-1.7331,-1.6891,-1.4633,-1.3566,-1.3424,-1.3403,-1.3322,-1.3193,-1.3193,-1.3017,-1.2752,-1.2752,-1.2651,-1.2501,-1.2501,-1.2501,-1.2501,-1.2501,-1.2501,-1.2501,-1.2501,-1.2501,-1.2494,-1.2467,-1.2481,-1.2501,-1.2488,-1.2488,-1.2501,-1.2501,-1.2501,-1.1482,-0.7501,-0.4927,-0.2897,-0.102,-0.0549,-0.0549,-0.0549,-0.0549,-0.0549,-0.0314,-0.0314,-0.0236,0.0,0.0,0.0,0.0,-0.0157,-0.0314,-0.0314,-0.3679,-0.6098,-0.6254,-0.6332,-0.6391,-0.6445,-0.6462,-0.653,-0.6673,-0.6686,-0.6693,-0.67,-0.4743,-0.358,-0.3329,-0.1295,-0.0175,0.0,0.0,0.0,-2.639,-2.5792,-2.5027,-2.3954,-2.3126,-2.2525,-2.2231,-2.1617,-2.1243,-2.1724,-2.1911,-2.1845,-2.1227,-2.2396,-2.1939,-1.7105,-1.7531,-1.7327,-1.3899,-1.3607,-1.4722,-1.7409,-1.9805,-2.2242,-2.4557,-2.6847,-2.8712,-3.001,-3.1722,-3.4148,-3.7396,-3.8989,-3.9864,-3.9864,-3.8627,-3.632,-3.3112,-3.0885,-2.7917,-2.4137,-2.0905,-1.8566,-1.6961,-1.4652,-1.3546,-1.3403,-1.3403,-1.3315,-1.3173,-1.3173,-1.2996,-1.2732,-1.2732,-1.2637,-1.2501,-1.2501,-1.2447,-1.2372,-1.2372,-1.2311,-1.2237,-1.2237,-1.2298,-1.2393,-1.2474,-1.2501,-1.2501,-1.2501,-1.2501,-1.2501,-1.2501,-1.156,-0.992,-0.6956,-0.4693,-0.2506,-0.0471,0.0,0.0,0.0,0.0,0.0,0.0,0.0,0.0,0.0,0.0,0.0,0.0,0.0,0.0,0.0,-0.149,-0.2507,-0.2507,-0.2523,-0.2545,-0.2568,-0.1299,-0.0575,-0.0663,0.0667,0.0753,-0.067,0.017,0.0,-0.1294,-0.0437,0.0,0.0,0.0,0.0,-2.5047,-2.4414,-2.3567,-2.326,-2.2806,-2.2325,-2.1937,-2.147,-2.1256,-2.175,-2.1924,-2.1792,-2.1012,-2.2205,-2.1894,-1.7487,-1.7579,-1.7217,-1.4381,-1.4252,-1.5173,-1.7187,-2.0133,-2.2729,-2.4551,-2.6745,-2.8659,-3.0199,-3.0839,-3.237,-3.5162,-3.8209,-4.0144,-4.0801,-3.933,-3.7016,-3.4037,-3.2522,-2.9416,-2.4836,-2.1908,-1.9605,-1.7752,-1.4832,-1.341,-1.3268,-1.3268,-1.3186,-1.3044,-1.3044,-1.2888,-1.2586,-1.1946,-1.1648,-1.156,-1.1516,-1.144,-1.1435,-1.201,-1.2149,-1.2135,-1.2135,-1.1753,-1.1391,-1.1485,-1.1574,-1.1476,-1.0809,-1.1142,-1.156,-1.156,-1.0469,-0.9061,-0.7583,-0.5084,-0.2662,-0.1254,-0.0471,0.0,0.0,0.0,0.0,0.0,0.0,0.0,0.0,0.0,0.0,0.0,0.0,0.0,0.0,0.0,0.0,0.0,0.0635,0.104,0.1044,0.3103,0.4377,0.431,0.584,0.5625,0.3374,0.3326,0.2243,0.0,0.0,0.0,0.0,0.0,0.0,-2.27,-2.31,-2.326,-2.2939,-2.2645,-2.2271,-2.1762,-2.1323,-2.1189,-2.1561,-2.179,-2.2071,-2.2298,-2.2857,-2.2704,-2.0935,-1.9404,-1.7885,-1.6372,-1.6534,-1.6919,-1.7112,-2.1178,-2.4039,-2.4219,-2.6338,-2.7709,-2.7709,-2.9416,-3.05,-3.058,-3.4518,-3.7757,-3.9827,-3.9902,-3.7852,-3.3657,-3.3578,-3.1459,-2.7186,-2.2497,-2.0201,-1.9887,-1.5341,-1.3098,-1.2969,-1.2969,-1.2874,-1.2732,-1.2732,-1.2644,-1.2269,-1.0236,-0.9454,-0.9439,-0.9249,-0.9203,-0.9492,-1.1427,-1.206,-1.2135,-1.2135,-1.0772,-0.9259,-0.9265,-0.935,-0.9041,-0.6934,-0.7821,-0.9454,-0.9454,-0.9454,-0.9376,-0.9371,-0.6173,-0.313,-0.3052,-0.149,0.0,0.0,0.0,0.0,0.0,0.0,0.0,0.0,0.0,0.0,0.0,0.0,0.0,0.0,0.0,0.0,0.0,0.206,0.3363,0.3403,0.5403,0.6704,0.6697,0.67,0.5645,0.3328,0.3276,0.218,0.0,0.0,0.0,0.0,0.0,0.0,-1.8063,-1.9381,-2.0619,-2.0414,-2.0212,-2.0035,-1.9862,-1.8624,-1.7649,-1.8072,-1.9295,-2.0014,-1.9228,-2.1237,-2.2224,-1.9667,-1.8584,-1.8128,-1.8386,-1.7557,-1.8128,-2.1291,-2.4531,-2.6588,-2.6588,-2.7096,-2.7402,-2.7402,-2.7948,-2.8835,-3.0027,-3.1105,-3.3607,-3.7644,-3.9183,-3.778,-3.3293,-3.3122,-3.0794,-2.6373,-2.3186,-2.087,-1.9363,-1.6447,-1.4338,-1.2963,-1.2963,-1.2874,-1.2732,-1.2732,-1.2637,-1.2269,-1.023,-0.9403,-0.9254,-0.7761,-0.7137,-0.7327,-0.9234,-0.895,-0.8007,-0.9327,-0.8489,-0.6755,-0.5302,-0.5982,-0.7173,-0.6517,-0.7817,-0.9376,-0.9376,-1.0469,-1.1172,-0.9765,-0.7267,-0.4849,-0.3443,-0.149,0.0,0.0,0.0,0.0,0.0,0.0,0.0,0.0,0.0,0.0,0.0,0.0,0.0,0.0,0.0,0.0,0.0,0.2076,0.3313,0.3406,0.6923,0.8925,0.8957,0.8941,0.7892,0.5625,0.4166,0.2284,0.0,0.0,-0.0804,-0.2304,-0.2304,-0.3188,-1.5516,-1.699,-1.8147,-1.8066,-1.8035,-1.8014,-1.7848,-1.686,-1.6014,-1.6455,-1.747,-1.8372,-1.8347,-2.0306,-2.15,-2.0528,-1.9558,-1.9319,-2.0253,-1.9651,-2.0614,-2.4466,-2.6388,-2.7362,-2.7362,-2.7201,-2.7094,-2.7094,-2.7001,-2.7348,-2.8361,-2.8909,-3.0607,-3.3593,-3.5689,-3.5414,-3.2482,-3.2267,-3.0775,-2.794,-2.4802,-2.2644,-2.1232,-1.8388,-1.6346,-1.512,-1.512,-1.4594,0.0,-1.38,-1.3275,-1.2192,-0.9376,-0.822,-0.7977,-0.5806,-0.4971,-0.5102,-0.706,-0.6869,-0.6025,-0.7183,-0.6344,-0.4475,-0.2407,-0.2813,-0.3937,-0.3929,-0.5984,-0.8205,-0.8205,-1.0357,-1.2126,-1.0845,-0.8329,-0.5832,-0.461,-0.2037,0.0,0.0,0.0,0.0,0.0,0.0,0.0,0.0,-0.0706,-0.0863,-0.0079,-0.0706,-0.0863,-0.0079,0.0,0.0,0.0,0.2002,0.3325,0.3406,0.6783,0.879,0.879,0.7857,0.6381,0.4105,0.1827,-0.044,-0.266,-0.2667,-0.3274,-0.4638,-0.4638,-0.5435,0.0,-1.5509,-1.5883,-1.5883,-1.6055,-1.61,-1.5769,-1.5589,0.0,-1.5942,-1.6218,-1.7047,-1.9016,-1.9806,-2.0771,-2.2824,-2.1793,-2.1047,-2.1883,-2.268,-2.4098,-2.6533,-2.6814,-2.6787,-2.6787,-2.6747,-2.6734,-2.6734,-2.648,-2.6291,-2.6165,-2.7932,-2.8822,-2.8522,-3.0335,-3.1366,-3.1383,-3.1366,-3.1276,-3.1129,-2.7297,-2.5316,-2.4898,-2.1102,-1.9115,-1.8768,-1.8768,-1.7568,-1.5693,-1.5693,-1.4552,-1.234,-0.8279,-0.6667,-0.6201,-0.379,-0.2921,-0.3176,-0.4959,-0.5518,-0.5373,-0.5373,-0.4141,-0.2328,-0.0584,0.0,0.0,0.0,-0.3047,-0.6325,-0.6325,-0.929,-1.2325,-1.2467,-0.9203,-0.6079,-0.6237,-0.2974,0.0,0.0,-0.0157,-0.0236,-0.0236,-0.0314,-0.0471,-0.0471,-0.2115,-0.2662,-0.0706,-0.2115,-0.2506,-0.0471,-0.0236,-0.0157,0.0,0.2001,0.3322,0.3406,0.546,0.6613,0.6446,0.4136,0.179,-0.0431,-0.2785,-0.5017,-0.7044,-0.6973,-0.6902,-0.6918,-0.6918,-0.7129,-0.7233,0.0,-1.3804,-1.3804,-1.3891,-1.4033,0.0,-1.2865,-1.1939,-1.2179,-1.3369,-1.4688,-1.5533,-1.7967,-2.0247,-2.1486,-2.123,-2.1688,-2.3982,-2.5062,-2.6016,-2.7094,-2.676,-2.6493,-2.6493,-2.6079,-2.5825,-2.5825,-2.5758,-2.637,-2.7781,-2.8058,-2.8104,-2.8103,-2.8289,-2.9404,-3.1383,-3.1191,-3.1059,-3.0914,-2.9649,-2.8064,-2.6171,-2.5224,-2.31,-2.0298,-2.0298,-1.9404,-1.7891,-1.7891,-1.6675,-1.4544,-1.1965,-0.9987,-0.8088,-0.4381,-0.2978,-0.2993,-0.3419,-0.2619,-0.1384,-0.1384,-0.102,-0.0584,-0.0148,0.0,0.0,0.0,-0.3047,-0.6323,-0.6323,-0.9305,-1.2325,-1.2467,-0.9142,-0.6091,-0.6227,-0.2954,0.0,0.0,-0.1254,-0.2349,-0.2349,-0.3758,-0.4852,-0.4852,-0.524,-0.5396,-0.4849,-0.524,-0.4693,-0.2584,-0.2349,-0.1724,-0.0157,0.2065,0.3294,0.3323,0.5417,0.5967,0.4253,0.187,-0.0516,-0.2754,-0.5058,-0.6395,-0.6805,-0.6789,-0.7604,-0.9314,-0.9229,-1.0269,-0.4983,-0.7172,-0.9443,-0.9438,-1.0159,-1.088,-1.088,-1.0799,-1.0744,-1.0759,-1.1752,-1.2946,-1.3989,-1.598,-1.7934,-1.9315,-2.0393,-2.2078,-2.5129,-2.5892,-2.636,-2.6814,-2.6466,-2.6132,-2.5999,-2.5705,-2.5518,-2.5518,-2.5518,-2.6274,-2.8044,-2.8014,-2.8127,-2.8676,-2.7772,-2.8429,-3.0887,-3.0778,-3.1449,-3.2927,-3.2036,-3.078,-2.9302,-2.8395,-2.6978,-2.5166,-2.4955,-2.3424,-2.1047,-2.1047,-1.9287,-1.6244,-1.3273,-1.1401,-0.9826,-0.5826,-0.4288,-0.4068,-0.3197,-0.1602,0.0,0.0,0.0,0.0,0.0,0.0,0.0,0.0,-0.2352,-0.4842,-0.4842,-0.7141,-0.9468,-0.9583,-0.7088,-0.4588,-0.4831,-0.2261,-0.0312,-0.1253,-0.2349,-0.3443,-0.4381,-0.5552,-0.6332,-0.6332,-0.7111,-0.7349,-0.6414,-0.7111,-0.6878,-0.4771,-0.4537,-0.4146,-0.2977,-0.1809,-0.0716,0.0162,0.1398,0.108,-0.1167,-0.3562,-0.5919,-0.8268,-0.9466,-0.998,-0.9877,-0.9877,-1.0503,-1.1574,-1.1638,-1.2379,-0.4281,-0.435,-0.4462,-0.504,-0.6554,-0.801,-0.7976,-0.9396,-1.0724,-1.0751,-1.0955,-1.1703,-1.3372,-1.4257,-1.5252,-1.6918,-1.9438,-2.2211,-2.5023,-2.5697,-2.5932,-2.6226,-2.5999,-2.5732,-2.5464,-2.5411,-2.5371,-2.5371,-2.5371,-2.6054,-2.7702,-2.7761,-2.8186,-2.9228,-2.774,-2.7879,-2.9721,-2.9721,-3.134,-3.4452,-3.3258,-3.2498,-3.2259,-3.0789,-3.0179,-3.0396,-3.0163,-2.8029,-2.4743,-2.4743,-2.2303,-1.8249,-1.4824,-1.3109,-1.2105,-0.8181,-0.667,-0.6307,-0.3778,-0.1819,-0.0365,-0.0073,0.0,0.0,0.0,0.0,0.0,0.0,-0.1518,-0.3137,-0.3137,-0.4507,-0.6048,-0.628,-0.4542,-0.2912,-0.3034,-0.1484,-0.0625,-0.2661,-0.3365,-0.4303,-0.641,-0.7033,-0.7267,-0.7267,-0.875,-0.9221,-0.7505,-0.875,-0.9061,-0.6956,-0.68,-0.6648,-0.6336,-0.6268,-0.5773,-0.4441,-0.4036,-0.4838,-0.7118,-0.9478,-1.1713,-1.3718,-1.381,-1.3736,-1.3593,-1.3593,-1.3526,-1.3403,-1.3559,-1.3695,-0.0779,-0.0811,-0.1523,-0.46,-0.6714,-0.7971,-0.7993,-0.9401,-1.0758,-1.082,-1.088,-1.12,-1.1993,-1.3512,-1.4945,-1.5572,-1.8847,-2.1742,-2.274,-2.4278,-2.5317,-2.5611,-2.5398,-2.5197,-2.5157,-2.4917,-2.477,-2.477,-2.477,-2.5419,-2.7075,-2.7132,-2.7094,-2.7052,-2.6843,-2.6788,-2.7183,-2.7198,-2.8196,-3.0344,-3.0054,-3.0512,-3.1583,-3.1658,-3.1523,-3.1074,-3.1407,-3.0276,-2.8255,-2.8255,-2.5941,-2.2434,-2.1827,-1.9547,-1.6109,-1.225,-1.0715,-0.9887,-0.4713,-0.2691,-0.2183,-0.051,0.0,0.0,0.0,0.0,0.0,0.0,-0.1478,-0.3131,-0.3131,-0.4543,-0.6043,-0.6273,-0.4545,-0.2961,-0.3064,-0.1456,-0.0613,-0.273,-0.4537,-0.6488,-0.8594,-1.0385,-1.156,-1.156,-1.1798,-1.1876,-1.156,-1.1798,-1.125,-0.9138,-0.8905,-0.8205,-0.6414,-0.6315,-0.6994,-0.8534,-0.6886,-0.6912,-0.9364,-1.1849,-1.3297,-1.3661,-1.3661,-1.3587,-1.3437,-1.3437,-1.3424,-1.3403,-1.3559,-1.3641,0.0,0.0,-0.0412,-0.206,-0.4667,-0.6805,-0.6823,-0.9023,-1.1104,-1.1172,-1.1185,-1.1294,-1.1653,-1.2575,-1.3772,-1.5167,-1.698,-1.8749,-2.033,-2.2212,-2.3492,-2.3617,-2.4464,-2.4957,-2.4636,-2.4489,-2.4342,-2.4182,-2.4168,-2.4939,-2.6713,-2.6783,-2.7107,-2.7799,-2.583,-2.4691,-2.4466,-2.2514,-2.3527,-2.7537,-2.7794,-2.8125,-2.8576,-3.0733,-3.1691,-3.1709,-3.2701,-3.2004,-3.0304,-3.0304,-2.8048,-2.4452,-2.339,-2.1311,-1.8449,-1.4588,-1.2459,-1.096,-0.7314,-0.4646,-0.2763,-0.1892,-0.0874,0.0,0.0,0.0,0.0,0.0,-0.0662,-0.1411,-0.1411,-0.2088,-0.2776,-0.2867,-0.2098,-0.1348,-0.138,-0.1526,-0.2204,-0.4246,-0.6312,-0.8354,-1.0498,-1.165,-1.2264,-1.2264,-1.2332,-1.2386,-1.2386,-1.2454,-1.2108,-1.1172,-1.1095,-1.0701,-0.9765,-0.9656,-0.9661,-0.9626,-0.9796,-1.0464,-1.1688,-1.2758,-1.3424,-1.3505,-1.3505,-1.3471,-1.3403,-1.3403,-1.3444,-1.3526,-1.3675,-1.3743,0.0,0.0,0.0,0.0,-0.2589,-0.5185,-0.5699,-0.841,-1.0921,-1.1453,-1.1518,-1.1538,-1.1694,-1.1965,-1.2773,-1.4568,-1.5223,-1.6171,-1.7961,-1.9842,-2.1314,-2.1707,-2.3154,-2.414,-2.4142,-2.4102,-2.4008,-2.3794,-2.3768,-2.4424,-2.5772,-2.5394,-2.5637,-2.6728,-2.3598,-2.1698,-2.1414,-1.8197,-1.9019,-2.3927,-2.473,-2.5143,-2.5373,-2.866,-3.0764,-3.1824,-3.2954,-3.2868,-3.1846,-3.1846,-2.9865,-2.6557,-2.4689,-2.2411,-1.9773,-1.6816,-1.4257,-1.1902,-0.9982,-0.6813,-0.3488,-0.3052,-0.1602,0.0,0.0,0.0,0.0,0.0,0.0,0.0,0.0,0.0,0.0,0.0,0.0,-0.0151,-0.061,-0.1818,-0.3621,-0.6177,-0.7889,-0.9569,-1.1755,-1.2135,-1.2135,-1.2135,-1.2162,-1.225,-1.2284,-1.2386,-1.2467,-1.2501,-1.2501,-1.2501,-1.2501,-1.2501,-1.1888,-1.0344,-1.2029,-1.301,-1.3119,-1.3193,-1.3281,-1.3397,-1.3403,-1.3403,-1.3403,-1.3403,-1.3458,-1.358,-1.3722,-1.379,0.0,0.0,0.0,0.0,-0.1461,-0.3477,-0.5503,-0.7463,-0.9484,-1.1623,-1.1898,-1.185,-1.1999,-1.2271,-1.2599,-1.2841,-1.4493,-1.5751,-1.5735,-1.7359,-1.9159,-2.0775,-2.1125,-2.1919,-2.3652,-2.3808,-2.3794,-2.3768,-2.3768,-2.3718,-2.3577,-2.1898,-2.0907,-2.0711,-1.874,-1.7609,-1.7599,-1.5628,-1.5698,-1.7889,-1.9657,-2.1365,-2.3011,-2.5476,-2.8126,-3.0944,-3.1371,-3.2245,-3.3267,-3.3267,-3.2128,-3.0236,-2.8476,-2.4651,-2.0063,-1.9773,-1.7378,-1.3918,-1.1966,-0.8817,-0.5301,-0.3488,-0.1602,0.0,0.0,0.0,0.0,0.0,0.0,0.0,0.0,0.0,0.0,0.0,0.0,-0.0514,-0.2299,-0.2821,-0.402,-0.7902,-0.882,-0.9569,-1.1755,-1.2135,-1.2135,-1.2135,-1.2149,-1.2128,-1.2271,-1.2298,-1.2352,-1.2488,-1.2501,-1.2501,-1.2501,-1.2501,-1.2431,-1.2296,-1.2721,-1.2969,-1.2976,-1.3241,-1.339,-1.3403,-1.3403,-1.3403,-1.3403,-1.3403,-1.3403,-1.3417,-1.3573,-1.3648,0.0,0.0,0.0,0.0,-0.0483,-0.1611,-0.3738,-0.5653,-0.7275,-0.8102,-0.8145,-0.8141,-0.8266,-0.9511,-1.0451,-1.0504,-1.2237,-1.3491,-1.3431,-1.5068,-1.6968,-1.8789,-2.0154,-2.1556,-2.3289,-2.3487,-2.334,-2.2953,-2.2926,-2.2806,-2.2512,-2.0823,-1.9743,-1.9637,-1.6765,-1.5247,-1.5296,-1.3498,-1.2925,-1.3737,-1.5628,-1.7508,-1.938,-2.2572,-2.5292,-2.7619,-3.0005,-3.1322,-3.1899,-3.2956,-3.1707,-2.8886,-2.6039,-2.3638,-2.1527,-1.9147,-1.7388,-1.5698,-1.2652,-0.985,-0.7255,-0.5301,-0.3397,-0.1582,-0.036,0.0,0.0,0.0,0.0,0.0,0.0,0.0,0.0,0.0,-0.0947,-0.1972,-0.2735,-0.4782,-0.6966,-0.8469,-0.977,-1.0827,-1.1636,-1.1789,-1.1789,-1.1789,-1.1864,-1.1938,-1.1999,-1.2088,-1.2203,-1.2352,-1.2447,-1.2501,-1.2501,-1.2501,-1.2501,-1.2501,-1.2698,-1.2861,-1.2956,-1.3152,-1.3302,-1.3397,-1.3403,-1.3403,-1.3403,-1.3403,-1.3451,-1.3546,-1.36,-1.3627,0.0,0.0,0.0,0.0,0.0,-0.0348,-0.1825,-0.3692,-0.5373,-0.5989,-0.6001,-0.5894,-0.5897,-0.7178,-0.8178,-0.8214,-0.9865,-1.1133,-1.1095,-1.2779,-1.4928,-1.7243,-1.8871,-2.0627,-2.2783,-2.3046,-2.2873,-2.2445,-2.1776,-2.1365,-2.1185,-1.8942,-1.7725,-1.7725,-1.4692,-1.2911,-1.2388,-1.1727,-1.1087,-1.0611,-1.2511,-1.4384,-1.6404,-1.9565,-2.2316,-2.4733,-2.7158,-2.8901,-3.006,-3.1258,-2.9995,-2.7105,-2.4655,-2.3038,-2.1665,-1.9077,-1.7347,-1.5887,-1.3302,-1.0702,-0.8383,-0.7027,-0.492,-0.2623,-0.1278,-0.0426,0.0,0.0,0.0,0.0,0.0,0.0,-0.0146,-0.0802,-0.1965,-0.3205,-0.448,-0.6788,-0.8868,-0.9467,-1.0661,-1.1619,-1.1619,-1.1619,-1.1619,-1.1619,-1.1701,-1.1782,-1.1823,-1.1925,-1.2067,-1.2271,-1.242,-1.2501,-1.2501,-1.2501,-1.2501,-1.2501,-1.2644,-1.2779,-1.2881,-1.3071,-1.322,-1.3329,-1.3376,-1.3376,-1.3329,-1.3376,-1.3431,-1.3485,-1.3532,-1.3559,0.0,0.0,0.0,0.0,0.0,0.0,0.0,-0.1765,-0.3968,-0.5978,-0.6149,-0.5893,-0.5749,-0.5881,-0.5977,-0.5974,-0.7761,-0.9138,-0.8961,-1.0565,-1.2994,-1.6402,-1.7037,-1.855,-2.2028,-2.2351,-2.2351,-2.2338,-2.0501,-1.9342,-1.9397,-1.5972,-1.4019,-1.4019,-1.2177,-1.0323,-0.8511,-1.0254,-1.0254,-0.8516,-1.0323,-1.2285,-1.4424,-1.6333,-1.9161,-2.2644,-2.2644,-2.4756,-2.8098,-2.8163,-2.7105,-2.545,-2.545,-2.3256,-2.0051,-2.0051,-1.7583,-1.4214,-1.4214,-1.1594,-0.8303,-0.8303,-0.5792,-0.2728,-0.2728,-0.147,0.0,0.0,0.0,0.0,0.0,0.0,-0.051,-0.2472,-0.2907,-0.3993,-0.7833,-0.8703,-0.9285,-1.1253,-1.1619,-1.1619,-1.1619,-1.1619,-1.1619,-1.1619,-1.1619,-1.1674,-1.1809,-1.183,-1.1945,-1.225,-1.2413,-1.2501,-1.2501,-1.2501,-1.2501,-1.2501,-1.2644,-1.2732,-1.2732,-1.3017,-1.3173,-1.3173,-1.3322,-1.3322,-1.3173,-1.3322,-1.3322,-1.3173,-1.3329,-1.3397,0.0,0.0,0.0,0.0,0.0,0.0,0.0,-0.0509,-0.1182,-0.1823,-0.1881,-0.1769,-0.1731,-0.2869,-0.3852,-0.3797,-0.5527,-0.7295,-0.8555,-0.9281,-1.0954,-1.4571,-1.5032,-1.5958,-1.826,-1.844,-1.8362,-1.8195,-1.7652,-1.7203,-1.6967,-1.4734,-1.3485,-1.3485,-1.1777,-1.0084,-0.8392,-0.887,-0.829,-0.6627,-0.7113,-0.9781,-1.4121,-1.4797,-1.6441,-1.8776,-2.0138,-2.1351,-2.2442,-2.3784,-2.4015,-2.3419,-2.2164,-2.0128,-1.7776,-1.6451,-1.515,-1.389,-1.2528,-1.1324,-1.0115,-0.8719,-0.7557,-0.6397,-0.5028,-0.331,-0.1933,-0.1933,-0.0974,-0.0281,-0.154,-0.1901,-0.2058,-0.2719,-0.4976,-0.7323,-0.8482,-0.9795,-1.0887,-1.1476,-1.1619,-1.1619,-1.1619,-1.1619,-1.1619,-1.1619,-1.1619,-1.1633,-1.1681,-1.1769,-1.1864,-1.1959,-1.2101,-1.2189,-1.2189,-1.2291,-1.2352,-1.2352,-1.2488,-1.2664,-1.2881,-1.3071,-1.3173,-1.3173,-1.3322,-1.3275,-1.3024,-1.3166,-1.3214,-1.3173,-1.322,-1.3295,0.0,0.0,0.0,0.0,0.0,0.0,0.0,0.0,0.0,0.0,0.0,0.0,0.0,-0.0988,-0.175,-0.1732,-0.3408,-0.5042,-0.6207,-0.7059,-0.8578,-1.1482,-1.1946,-1.2666,-1.4302,-1.4486,-1.4441,-1.4259,-1.3518,-1.3309,-1.3805,-1.2111,-1.1541,-1.2215,-1.124,-0.9546,-0.7188,-0.7863,-0.6944,-0.4604,-0.5289,-0.7401,-1.0603,-1.08,-1.192,-1.383,-1.6461,-1.7607,-1.7744,-1.9572,-2.0342,-2.0219,-1.9175,-1.7591,-1.5687,-1.4526,-1.3522,-1.2634,-1.1488,-1.1036,-1.0778,-0.9615,-0.8736,-0.793,-0.6783,-0.5159,-0.3804,-0.3804,-0.3008,-0.2409,-0.351,-0.4348,-0.4941,-0.5103,-0.6939,-0.8862,-0.9712,-1.0743,-1.1619,-1.1619,-1.1619,-1.1619,-1.1619,-1.1619,-1.1619,-1.1619,-1.1619,-1.1619,-1.1619,-1.1742,-1.183,-1.183,-1.1972,-1.2135,-1.2135,-1.2149,-1.2223,-1.2284,-1.2372,-1.2556,-1.2854,-1.2949,-1.2996,-1.2996,-1.3146,-1.3112,-1.2868,-1.3017,-1.3057,-1.2996,-1.3057,-1.3166,0.0,0.0131,0.027,0.0278,0.028,0.0211,0.0071,0.0,0.0,0.0,0.0,0.0,0.0,0.0,0.0,0.0,-0.1466,-0.272,-0.2862,-0.4394,-0.616,-0.7752,-0.8161,-0.8916,-1.0318,-1.0505,-1.0505,-1.0505,-0.8823,-0.8447,-1.0037,-0.8745,-0.8767,-1.0386,-1.0585,-0.8972,-0.5429,-0.6965,-0.596,-0.2484,-0.4091,-0.4894,-0.49,-0.5509,-0.6741,-0.8512,-1.1862,-1.3442,-1.3713,-1.5383,-1.6155,-1.6291,-1.6291,-1.5208,-1.3721,-1.3721,-1.2535,-1.086,-1.086,-1.0766,-1.0717,-1.0916,-0.9836,-0.8491,-0.869,-0.7488,-0.6089,-0.5893,-0.5759,-0.5626,-0.5629,-0.6964,-0.8376,-0.8664,-0.8721,-0.9258,-1.1181,-1.1579,-1.1586,-1.1599,-1.1599,-1.1606,-1.1619,-1.1619,-1.1619,-1.1619,-1.1619,-1.1619,-1.1619,-1.1735,-1.1809,-1.1809,-1.1938,-1.202,-1.202,-1.2033,-1.2101,-1.2237,-1.2277,-1.2413,-1.2678,-1.2718,-1.2732,-1.2732,-1.2881,-1.2874,-1.2712,-1.2868,-1.2868,-1.2732,-1.2874,-1.3017,0.0,0.1027,0.2123,0.2092,0.2136,0.1752,0.0352,0.0,0.0,0.0,0.0,0.0,0.0,0.0,0.0,0.0,-0.0339,-0.1157,-0.2681,-0.3235,-0.4189,-0.5941,-0.6225,-0.6337,-0.6581,-0.6573,-0.6573,-0.6573,-0.6227,-0.6156,-0.6489,-0.7493,-0.8163,-0.8568,-0.9975,-0.8972,-0.5429,-0.5763,-0.4158,-0.0606,-0.1009,-0.1142,-0.1277,-0.4297,-0.5935,-0.6476,-0.7234,-0.839,-0.9805,-1.0222,-1.1193,-1.2452,-1.2452,-1.2134,-1.16,-1.16,-1.123,-1.0772,-1.0772,-1.0751,-1.0916,-1.2281,-1.2471,-1.2389,-1.3822,-1.2931,-1.1264,-0.9839,-0.8519,-0.7464,-0.7422,-0.7779,-0.8443,-1.0029,-1.0498,-1.0727,-1.1184,-1.126,-1.1294,-1.1416,-1.1443,-1.1477,-1.1599,-1.1619,-1.1619,-1.1619,-1.1619,-1.1619,-1.1619,-1.1647,-1.1667,-1.1667,-1.1694,-1.1714,-1.1714,-1.1816,-1.1898,-1.1925,-1.2155,-1.2318,-1.2379,-1.261,-1.2732,-1.2732,-1.2881,-1.2827,-1.2549,-1.2705,-1.2759,-1.2732,-1.2766,-1.2861,0.0,0.1352,0.2905,0.3775,0.3358,0.2426,0.1526,0.0618,0.0,0.0,0.0,0.0,0.0,0.0,0.0272,0.1144,0.1277,0.1212,0.1083,0.1083,0.0744,-0.0203,-0.0338,-0.0674,-0.1474,-0.154,-0.1876,-0.2752,-0.2819,-0.3557,-0.5295,-0.6231,-0.7564,-0.9238,-1.018,-0.9377,-0.6698,-0.583,-0.4024,-0.1277,-0.0404,0.0,-0.0067,-0.203,-0.2927,-0.3084,-0.3905,-0.4854,-0.5858,-0.6745,-0.7631,-0.8585,-0.9402,-0.9648,-0.9612,-1.0497,-1.0785,-1.0717,-1.0717,-1.0717,-1.0982,-1.2734,-1.3325,-1.3643,-1.5394,-1.5235,-1.4298,-1.3396,-1.2465,-1.1614,-1.0729,-1.0545,-1.0571,-1.0745,-1.0955,-1.1077,-1.1151,-1.1234,-1.1185,-1.1267,-1.128,-1.1307,-1.1389,-1.1463,-1.1511,-1.1511,-1.1572,-1.1619,-1.1619,-1.1619,-1.1619,-1.1619,-1.1619,-1.1619,-1.1619,-1.1687,-1.1755,-1.183,-1.1979,-1.2135,-1.2284,-1.244,-1.2549,-1.2617,-1.2698,-1.2664,-1.2501,-1.2583,-1.2623,-1.2623,-1.2623,-1.2705,0.0,0.1547,0.3558,0.5014,0.4501,0.355,0.3209,0.1761,0.0471,0.0471,0.0202,0.0,0.0,0.0269,0.0941,0.2484,0.2954,0.3689,0.5162,0.5162,0.4961,0.4961,0.4626,0.389,0.235,0.2216,0.1613,0.0135,-0.0269,-0.1747,-0.476,-0.5496,-0.7165,-1.0114,-1.0518,-0.9842,-0.803,-0.6564,-0.476,-0.2685,-0.0874,0.0,0.0,0.0,0.0,-0.0067,-0.1613,-0.2216,-0.235,-0.3823,-0.4626,-0.5095,-0.6494,-0.7431,-0.8163,-0.9709,-1.0452,-1.0717,-1.0717,-1.0717,-1.1049,-1.3062,-1.3774,-1.4101,-1.6172,-1.6818,-1.6754,-1.6431,-1.6366,-1.5978,-1.4232,-1.3521,-1.2931,-1.1505,-1.1013,-1.0941,-1.1056,-1.1084,-1.109,-1.1118,-1.1145,-1.1234,-1.1234,-1.1267,-1.1355,-1.1355,-1.1484,-1.1579,-1.1579,-1.1606,-1.1619,-1.1619,-1.1619,-1.1619,-1.1619,-1.1619,-1.1667,-1.1789,-1.1816,-1.1945,-1.2203,-1.2237,-1.2318,-1.2461,-1.2488,-1.2501,-1.2501,-1.2501,-1.2501,-1.2501,-1.2501,-1.2569,0.0,0.2477,0.5124,0.5342,0.638,0.6915,0.5376,0.3627,0.235,0.235,0.1076,0.0,0.0,0.1277,0.2417,0.2685,0.4024,0.5095,0.5362,0.4024,0.3088,0.3088,0.168,0.0605,0.0404,0.0336,0.0269,0.0,-0.1478,-0.2551,-0.3021,-0.596,-0.7897,-0.8363,-0.9908,-0.9842,-0.803,-0.7764,-0.596,-0.2685,-0.0874,0.0,0.0,0.0,0.0,0.0,-0.0269,-0.0336,-0.0404,-0.0605,-0.1613,-0.3088,-0.3287,-0.5292,-0.803,-0.8296,-0.9371,-1.0717,-1.0717,-1.0717,-1.124,-1.4493,-1.5524,-1.6172,-1.9419,-2.0399,-2.0068,-1.8576,-1.818,-1.7731,-1.5978,-1.4428,-1.3259,-1.2997,-1.1776,-1.0758,-1.0772,-1.0778,-1.0819,-1.0948,-1.1077,-1.1234,-1.1234,-1.1179,-1.1261,-1.1261,-1.1321,-1.1423,-1.1423,-1.1538,-1.1619,-1.1619,-1.1619,-1.1619,-1.1619,-1.1619,-1.1626,-1.1647,-1.1762,-1.185,-1.1891,-1.202,-1.2162,-1.2318,-1.244,-1.2501,-1.2501,-1.2501,-1.2501,-1.2501,-1.2501,-1.2515,0.2497,0.4167,0.5884,0.7847,0.8169,0.7831,0.7031,0.5496,0.3957,0.2887,0.2083,0.1545,0.1545,0.2148,0.3354,0.5359,0.5496,0.5763,0.6698,0.4478,0.2673,0.2673,0.1135,-0.0401,-0.1405,-0.1539,-0.1941,-0.2952,-0.3756,-0.4626,-0.5626,-0.716,-0.8435,-0.951,-1.0246,-1.0313,-0.951,-0.8501,-0.6694,-0.4158,-0.235,-0.1545,-0.1478,-0.0471,0.0,0.0,0.0,0.0,0.0,0.0,-0.0471,-0.1277,-0.2283,-0.4292,-0.6631,-0.7631,-0.9172,-1.0717,-1.0717,-1.0717,-1.1108,-1.3643,-1.507,-1.6366,-1.8896,-2.0322,-2.0919,-2.0195,-1.9941,-1.9546,-1.7795,-1.6818,-1.5719,-1.3774,-1.2742,-1.1894,-1.0916,-1.0717,-1.0738,-1.0806,-1.0873,-1.0914,-1.0914,-1.0982,-1.1043,-1.1043,-1.1172,-1.126,-1.126,-1.1396,-1.1491,-1.1491,-1.2479,-1.3167,-1.3167,-1.4156,-1.4725,-1.4725,-1.4794,-1.4888,-1.4992,-1.5078,-1.5216,-1.5331,-1.3341,-1.2338,-1.2501,-1.242,-1.2427,-1.2501,-1.2501,-1.2501,0.3847,0.5168,0.6458,0.9258,0.93,0.8662,0.8695,0.7298,0.5556,0.3739,0.3003,0.267,0.267,0.2678,0.3555,0.6227,0.5964,0.5693,0.6548,0.3594,0.1196,0.073,-0.0928,-0.2588,-0.3924,-0.3665,-0.3939,-0.5295,-0.583,-0.6631,-0.7964,-0.8435,-0.9305,-1.0651,-1.0717,-1.0717,-1.0717,-0.89,-0.7365,-0.603,-0.4225,-0.3356,-0.3354,-0.1545,-0.0672,-0.0672,-0.0202,0.0,0.0,0.0,0.0,-0.0135,-0.1478,-0.3423,-0.5563,-0.6831,-0.8773,-1.0717,-1.0717,-1.0717,-1.0982,-1.2734,-1.4166,-1.5654,-1.7859,-1.9419,-2.0526,-2.0982,-2.1109,-2.0779,-1.9483,-1.8832,-1.7731,-1.4688,-1.3643,-1.28,-1.1115,-1.0717,-1.0717,-1.0717,-1.0717,-1.0717,-1.0717,-1.0745,-1.0826,-1.0826,-1.1016,-1.1111,-1.1111,-1.1274,-1.1375,-1.1335,-1.3177,-1.4415,-1.4364,-1.6093,-1.7178,-1.7178,-1.7178,-1.7258,-1.7409,-1.7419,-1.752,-1.7679,-1.488,-1.3565,-1.3824,-1.3824,-1.3543,-1.3125,-1.3245,-1.2958,0.2259,0.4651,0.7109,0.7607,0.9098,1.0411,1.0551,0.9172,0.7337,0.5599,0.3879,0.2697,0.2697,0.2728,0.2752,0.2954,0.4359,0.4818,0.3199,-0.0066,-0.2975,-0.4685,-0.6494,-0.7644,-0.771,-0.6211,-0.5295,-0.5362,-0.6965,-0.7897,-0.7964,-0.9643,-1.0585,-1.0717,-1.0717,-1.0717,-1.0717,-0.89,-0.7964,-0.7831,-0.6097,-0.5228,-0.5228,-0.3356,-0.2551,-0.2484,-0.074,0.0,0.0,0.0,0.0,0.0,-0.0135,-0.2283,-0.5429,-0.5496,-0.7702,-1.0717,-1.0717,-1.0717,-1.0982,-1.2734,-1.339,-1.4101,-1.7474,-1.8576,-1.896,-2.0652,-2.1109,-2.1109,-2.0982,-1.9737,-1.8052,-1.6172,-1.4493,-1.28,-1.1115,-1.0717,-1.0717,-1.0717,-1.0717,-1.0717,-1.0717,-1.0724,-1.0731,-1.0731,-1.086,-1.0894,-1.0894,-1.1212,-1.1335,-1.1192,-1.3107,-1.4356,-1.4248,-1.6078,-1.7178,-1.7178,-1.7178,-1.7188,-1.7198,-1.7198,-1.7298,-1.751,-1.7106,-1.7073,-1.7434,-1.7694,-1.6833,-1.4985,-1.5235,-1.4322,0.3504,0.5274,0.7195,0.8564,0.9458,1.01,1.0193,0.8998,0.7353,0.5569,0.3849,0.2031,-0.0195,0.0262,0.1324,0.2535,0.1268,-0.0399,-0.2182,-0.5488,-0.8404,-1.0156,-1.1002,-1.1381,-1.1381,-0.9817,-0.8773,-0.8773,-0.9377,-0.9709,-0.9709,-1.0319,-1.0717,-1.0717,-1.0717,-1.0717,-1.0717,-1.0047,-0.9709,-0.9709,-0.7897,-0.7098,-0.6965,-0.4024,-0.2685,-0.2618,-0.0807,0.0,0.0,0.0,0.0,0.0,0.0,-0.2216,-0.5429,-0.5429,-0.7636,-1.0717,-1.0717,-1.0717,-1.0784,-1.1439,-1.2413,-1.3521,-1.4744,-1.6754,-1.864,-1.9291,-2.0259,-2.0843,-1.9737,-1.896,-1.7795,-1.4884,-1.2865,-1.1439,-1.085,-1.0717,-1.0717,-1.0717,-1.0717,-1.0717,-1.0717,-1.0717,-1.0717,-1.0717,-1.0765,-1.0806,-1.0806,-1.0982,-1.1084,-1.1029,-1.3005,-1.471,-1.5879,-1.7882,-1.9565,-2.0756,-2.0894,-2.0894,-2.0894,-2.0894,-2.0873,-2.0959,-2.0873,-1.9805,-1.7696,-1.7699,-1.7375,-1.6785,-1.6851,-1.6517,0.4189,0.5903,0.768,0.9175,0.9182,0.8956,0.9175,0.8064,0.6506,0.4683,0.3433,0.1625,-0.1867,-0.2069,-0.1499,-0.0922,-0.2848,-0.5308,-0.7651,-1.0503,-1.2767,-1.3956,-1.4141,-1.3873,-1.3288,-1.1635,-1.0588,-1.0636,-1.0643,-1.0663,-1.0717,-1.0717,-1.0697,-1.0643,-1.0697,-1.0697,-1.0643,-1.1162,-1.1425,-1.1425,-1.0169,-0.9549,-0.9484,-0.5938,-0.4034,-0.3373,-0.1597,-0.0536,0.0,0.0,0.0,0.0,0.0,-0.2216,-0.5429,-0.5429,-0.7636,-1.0717,-1.0717,-1.0717,-1.0717,-1.0717,-1.1505,-1.2545,-1.3128,-1.4939,-1.6883,-1.7474,-1.8448,-1.9088,-1.7923,-1.7205,-1.6172,-1.384,-1.196,-1.0717,-1.0717,-1.0717,-1.0717,-1.0717,-1.0717,-1.0717,-1.0717,-1.0717,-1.0717,-1.0717,-1.0717,-1.0717,-1.0717,-1.0786,-1.086,-1.0806,-1.3371,-1.5266,-1.5885,-1.8959,-2.0897,-2.0897,-2.1546,-2.1665,-2.1032,-2.0963,-2.1308,-2.1953,-2.1953,-2.1135,-1.9487,-1.948,-1.9168,-1.86,-1.8674,-1.8352,0.0,0.0,0.0,0.9141,0.8177,0.7128,0.7634,0.6454,0.4844,0.3071,0.2632,0.1541,-0.1926,-0.3978,-0.5729,-0.7528,-0.8029,-0.9354,-1.2889,-1.4761,-1.5822,-1.5968,-1.5775,-1.4944,-1.3229,-1.1374,-1.0337,-1.0473,-1.0487,-1.0555,-1.0704,-1.0711,-1.0643,-1.0487,-1.0629,-1.0636,-1.0487,-1.2081,-1.2917,-1.2909,-1.2788,-1.2767,-1.2641,-0.9221,-0.6801,-0.5137,-0.3328,-0.1591,-0.0067,0.0,0.0,0.0,0.0,-0.2214,-0.5359,-0.5426,-0.7631,-1.0717,-1.0717,-1.0717,-1.0717,-1.0717,-1.0717,-1.1049,-1.2742,-1.3259,-1.3643,-1.5329,-1.5848,-1.5913,-1.5848,-1.4558,-1.3193,-1.3193,-1.196,-1.0717,-1.0717,-1.0717,-1.0717,-1.0717,-1.0717,-1.0717,-1.0717,-1.0717,-1.0717,-1.0717,-1.0717,-1.0717,-1.0717,-1.0786,-1.082,-1.0738,-1.4182,-1.5817,-1.4014,-1.9011,-2.0749,-1.7317,-1.8921,-1.9125,-1.7238,-1.7168,-1.8078,-1.997,-1.997,-2.0882,-2.2709,-2.3084,-2.2307,-2.0368,-2.0614,-1.9709,0.3789,0.0,0.0,0.0,0.0,0.0,0.5524,0.4386,0.3142,0.2682,0.161,-0.025,-0.3611,-0.4684,-0.6455,-1.0558,-1.1471,-1.2928,-1.6561,-1.6335,-1.6346,-1.7655,-1.5455,-1.3614,-1.3165,-1.1374,-1.0297,-1.0337,-1.0337,-1.0399,-1.0548,-1.0555,-1.0487,-1.0344,-1.0378,-1.0385,-1.0337,-1.1972,-1.2779,-1.2779,-1.385,-1.4385,-1.426,-1.084,-0.907,-0.8436,-0.4296,-0.2239,-0.1721,-0.0469,0.0,0.0,0.0,-0.2116,-0.5215,-0.5346,-0.7585,-1.0568,-1.0683,-1.0717,-1.0717,-1.0717,-1.0717,-1.0784,-1.124,-1.2281,-1.339,-1.3905,-1.4939,-1.5589,-1.4362,-1.2734,-1.1439,-1.1439,-1.1049,-1.0717,-1.0717,-1.0717,-1.0717,-1.0717,-1.0717,-1.0717,-1.0717,-1.0717,-1.0717,-1.0717,-1.0717,-1.0717,-1.0717,-1.0758,-1.0765,-1.0724,-1.2877,-1.4727,-1.5594,-1.7248,-1.8373,-1.871,-1.809,-1.7518,-1.7074,-1.6991,-1.7186,-1.7834,-1.7733,-1.8006,-1.8661,-2.1571,-2.2704,-2.2207,-2.2285,-2.1266,0.2964,0.3587,0.4235,0.53,0.0,0.0,0.3745,0.2604,0.1436,0.1434,0.0671,-0.0802,-0.3444,-0.3948,-0.5709,-1.0834,-1.1878,-1.3216,-1.6828,-1.6497,-1.5978,-1.6302,-1.4363,-1.2745,-1.1987,-1.0832,-1.0114,-1.0181,-1.0181,-1.0249,-1.0392,-1.0405,-1.0337,-1.0188,-1.0249,-1.0249,-1.0181,-1.1791,-1.2594,-1.2594,-1.4104,-1.48,-1.48,-1.2812,-1.1194,-0.9777,-0.6819,-0.4389,-0.2412,-0.1457,-0.06,0.0,0.0,-0.1704,-0.4231,-0.5109,-0.7145,-0.959,-1.0399,-1.0717,-1.0717,-1.0717,-1.0717,-1.0717,-1.0717,-1.1439,-1.2215,-1.2215,-1.2931,-1.3521,-1.2479,-1.1439,-1.0717,-1.0717,-1.0717,-1.0717,-1.0717,-1.0717,-1.0717,-1.0717,-1.0717,-1.0717,-1.0717,-1.0717,-1.0717,-1.0717,-1.0717,-1.0717,-1.0717,-1.0717,-1.0717,-1.0717,-1.2963,-1.4668,-1.5063,-1.7312,-1.8515,-1.805,-1.7202,-1.637,-1.5678,-1.4882,-1.4873,-1.5756,-1.57,-1.6031,-1.6909,-1.9278,-2.0852,-2.1734,-2.1734,-2.1183,0.1964,0.2753,0.3678,0.41,0.2964,0.0,0.2135,0.1068,0.0,0.0,0.0,-0.0488,-0.2199,-0.2471,-0.4122,-0.9012,-0.9952,-1.1444,-1.5189,-1.5663,-1.5005,-1.3456,-1.2892,-1.2051,-1.0474,-1.0019,-0.9835,-0.995,-0.9853,-0.9725,-0.9709,-0.9729,-0.9608,-0.9467,-0.9777,-0.991,-0.9709,-1.1487,-1.2409,-1.2401,-1.3921,-1.4599,-1.4599,-1.4599,-1.3021,-1.0304,-0.9971,-0.7238,-0.3015,-0.267,-0.151,0.0,0.0,-0.1236,-0.3147,-0.4745,-0.6597,-0.8513,-1.0109,-1.0704,-1.0717,-1.0717,-1.0717,-1.0717,-1.0717,-1.0717,-1.0717,-1.0717,-1.0585,-1.0452,-1.0651,-1.0717,-1.0717,-1.0717,-1.0717,-1.0717,-1.0717,-1.0717,-1.0717,-1.0717,-1.0717,-1.0717,-1.0717,-1.0717,-1.0717,-1.0717,-1.0717,-1.0717,-1.0717,-1.0717,-1.0784,-1.0982,-1.397,-1.5329,-1.397,-1.8388,-1.9853,-1.6546,-1.6265,-1.5509,-1.3849,-1.2072,-1.1935,-1.3653,-1.3653,-1.4461,-1.6136,-1.6694,-1.7962,-1.9727,-1.9727,-1.975,0.1719,0.1379,0.1034,0.2194,0.1406,0.0,0.0477,0.0214,0.0,0.0,0.0,-0.0509,-0.22,-0.2507,-0.3286,-0.559,-0.7317,-1.0055,-1.5183,-1.466,-1.3709,-1.3325,-1.1908,-1.0784,-1.0354,-1.0114,-0.9903,-0.9869,-0.8729,-0.7443,-0.6015,-0.6077,-0.6073,-0.5925,-0.7234,-0.7971,-0.7888,-1.0808,-1.2268,-1.2268,-1.3844,-1.4599,-1.4599,-1.4599,-1.4242,-1.3517,-1.089,-0.8493,-0.6152,-0.3584,-0.1497,0.0,0.0,-0.1858,-0.4542,-0.4996,-0.7146,-0.989,-1.0357,-1.0616,-1.0717,-1.0717,-1.0717,-1.0717,-1.0717,-1.0717,-1.0717,-1.0717,-0.9643,-0.8834,-1.0313,-1.0717,-1.0717,-1.0717,-1.0717,-1.0717,-1.0717,-1.0717,-1.0717,-1.0717,-1.0717,-1.0717,-1.0717,-1.0717,-1.0717,-1.0717,-1.0717,-1.0717,-1.0717,-1.0717,-1.124,-1.261,-1.4679,-1.6302,-1.7409,-1.8495,-1.8775,-1.8068,-1.5437,-1.3825,-1.3587,-1.1799,-1.0994,-1.1525,-1.1525,-1.1661,-1.206,-1.5257,-1.7103,-1.7596,-1.7596,-1.7631,0.0811,0.0511,0.0155,0.082,0.0519,0.0,0.0,0.0,0.0,0.0,0.0,-0.0276,-0.1073,-0.1256,-0.1788,-0.3513,-0.4606,-0.6807,-1.1125,-1.1926,-1.2025,-1.2025,-1.1034,-1.0358,-1.029,-1.0073,-0.9529,-0.8653,-0.791,-0.6742,-0.4981,-0.495,-0.4954,-0.4916,-0.5712,-0.6141,-0.6141,-0.7778,-0.8563,-0.8563,-1.0169,-1.1371,-1.2235,-1.3003,-1.3796,-1.449,-1.2043,-1.0033,-0.8296,-0.5052,-0.2746,-0.1159,-0.032,-0.1011,-0.2678,-0.4446,-0.6181,-0.7949,-0.9749,-0.9896,-0.9282,-0.9282,-0.8723,-0.8035,-0.8035,-0.8035,-0.8035,-0.8035,-0.7436,-0.6898,-0.7836,-0.8706,-0.9371,-0.9371,-1.0047,-1.0717,-1.0717,-1.0717,-1.0717,-1.0717,-1.0717,-1.0717,-1.0717,-1.0717,-1.0717,-1.0717,-1.0717,-1.0717,-1.0717,-1.0717,-1.1049,-1.1894,-1.3578,-1.4939,-1.5848,-1.7474,-1.8512,-1.8512,-1.6043,-1.4604,-1.4706,-1.2137,-1.0758,-1.0833,-1.0766,-1.0766,-1.0766,-1.2759,-1.4347,-1.5522,-1.5522,-1.5509,0.0,0.0,0.0,0.0,0.0,0.0,0.0,0.0,0.0,-0.0322,-0.0377,-0.0487,-0.0716,-0.0559,-0.085,-0.23,-0.2614,-0.3641,-0.6297,-0.8402,-0.9895,-1.0523,-1.0405,-1.027,-1.0243,-0.9711,-0.8684,-0.7052,-0.6607,-0.5754,-0.4057,-0.3935,-0.3935,-0.3935,-0.4242,-0.4426,-0.4426,-0.4732,-0.4916,-0.4916,-0.6237,-0.7564,-0.8908,-1.0448,-1.2081,-1.3627,-1.232,-1.0997,-0.9562,-0.6234,-0.3753,-0.188,-0.0504,-0.0188,-0.0803,-0.3551,-0.4824,-0.5534,-0.8339,-0.8456,-0.7317,-0.7317,-0.6452,-0.5388,-0.5388,-0.5129,-0.4942,-0.5275,-0.5152,-0.4961,-0.5295,-0.6698,-0.803,-0.803,-0.9371,-1.0717,-1.0717,-1.0717,-1.0711,-1.0683,-1.0704,-1.0717,-1.0717,-1.0717,-1.0717,-1.0717,-1.0717,-1.0717,-1.0717,-1.0717,-1.085,-1.1174,-1.2479,-1.3456,-1.3774,-1.6689,-1.8512,-1.8512,-1.7216,-1.6366,-1.6366,-1.3062,-1.1049,-1.0717,-1.0717,-1.0717,-1.0717,-1.0717,-1.1658,-1.3423,-1.3423,-1.3448,0.0,0.0,0.0,0.0,0.0,0.0,0.0,0.0,-0.0362,-0.1529,0.0,-0.2145,-0.3324,0.0,0.0,-0.2038,-0.241,-0.2832,-0.3176,-0.4817,-0.7041,-0.9731,-1.0215,-1.0229,-1.0024,-0.8581,-0.696,-0.528,-0.3886,-0.2305,-0.0617,-0.0555,-0.0555,-0.0555,-0.1971,-0.277,-0.277,-0.418,-0.4916,-0.4916,-0.5096,-0.528,-0.5525,-0.7135,-0.8763,-1.0357,-1.0176,-0.9949,-0.9533,-0.6267,-0.3077,-0.0246,-0.0063,-0.0938,-0.2279,-0.2652,-0.3792,-0.515,-0.5534,-0.5657,-0.5665,-0.5665,-0.5544,-0.5422,-0.5422,-0.4299,-0.3358,-0.4935,-0.4251,-0.3354,-0.4961,-0.6698,-0.803,-0.803,-0.9371,-1.0717,-1.0717,-1.0717,-1.0677,-1.0548,-1.0629,-1.0717,-1.0717,-1.0717,-1.0717,-1.0717,-1.0717,-1.0717,-1.0717,-1.0717,-1.1306,-1.2865,-1.3193,-1.3905,-1.5459,-1.7409,-1.8512,-1.8512,-1.8308,-1.818,-1.818,-1.4874,-1.2281,-1.0717,-1.0717,-1.0717,-1.0717,-1.0717,-1.0872,-1.124,-1.124,-1.1377,0.0,0.0,0.0,0.0,0.0,0.0,0.0,0.0,-0.1326,-0.1891,0.0,0.0,0.0,0.0,0.0,0.0,-0.2169,-0.2333,-0.242,-0.3181,-0.4611,-0.7025,-0.8105,-0.8567,-0.8326,-0.6895,-0.5256,-0.3625,-0.2911,-0.1758,-0.0062,0.0,0.0,0.0,-0.0679,-0.1048,-0.1048,-0.1725,-0.2033,-0.2033,-0.2033,-0.2585,-0.3505,-0.423,-0.5924,-0.8285,-0.7332,-0.7514,-0.8104,-0.4845,-0.215,0.0123,0.1054,0.0991,0.0185,-0.1785,-0.2964,-0.3722,-0.4651,-0.4449,-0.356,-0.2568,-0.2253,-0.2253,-0.2253,-0.1746,-0.13,-0.2079,-0.1698,-0.1315,-0.2052,-0.3621,-0.5174,-0.6074,-0.7692,-0.9281,-1.0265,-1.0466,-1.0446,-1.0378,-1.0419,-1.0466,-1.0466,-1.0609,-1.0717,-1.0717,-1.0717,-1.0717,-1.0717,-1.0717,-1.0982,-1.1696,-1.1762,-1.2091,-1.28,-1.5394,-1.7012,-1.7012,-1.7923,-1.8052,-1.7012,-1.5589,-1.397,-1.2215,-1.2215,-1.1696,-1.0717,-1.0717,-1.0751,-1.0752,-1.0752,-1.0846,0.0,0.0,0.0,0.0,0.0,0.0,0.0,0.0,0.0,0.0,-0.3615,0.0,0.0,0.0,0.0,0.0,0.0,-0.2035,-0.2115,-0.1951,-0.2648,-0.4938,-0.609,-0.6679,-0.6501,-0.5108,-0.3769,-0.2565,-0.2051,-0.1268,-0.0062,0.0432,0.0679,0.0679,0.0679,0.0679,0.0679,0.0247,0.0,0.0,0.0,-0.0617,-0.1787,-0.1354,-0.2636,-0.5179,-0.3608,-0.3786,-0.5108,-0.2265,-0.0123,0.1468,0.2703,0.3444,0.3441,0.0123,-0.1416,-0.1971,-0.3139,-0.2791,-0.1632,-0.0381,0.0,0.0,0.0,0.0,0.0,0.0,0.0,0.0,0.0,-0.1363,-0.3093,-0.4686,-0.6468,-0.8278,-0.9958,-1.0283,-1.027,-1.0222,-1.0249,-1.0263,-1.0222,-1.046,-1.0656,-1.0656,-1.0697,-1.0717,-1.0717,-1.0717,-1.0717,-1.0717,-1.0717,-1.0717,-1.0717,-1.3905,-1.6302,-1.7269,-1.8512,-1.8448,-1.6689,-1.6625,-1.5784,-1.4036,-1.4036,-1.3128,-1.1439,-1.1439,-1.1174,-1.0717,-1.0717,-1.0717,0.0,0.0,0.0,0.0,0.0,0.0,0.0,0.0,-0.2878,0.0,0.0,0.0,0.0,0.0,0.0,0.0,0.0,0.0,0.0,-0.0896,-0.1243,-0.4349,-0.4893,-0.4987,-0.4987,-0.3532,-0.256,-0.2523,-0.101,-0.006,0.0,0.154,0.2401,0.2401,0.2401,0.2401,0.2401,0.0802,0.0,0.0,0.0,0.0,0.0,0.1602,0.1413,-0.0123,0.1527,0.134,-0.0122,0.1645,0.3293,0.4754,0.4784,0.5835,0.6869,0.3566,0.1294,-0.0062,-0.0123,-0.0123,-0.0062,0.0,0.0,0.0,0.0,0.0,0.0,0.0,0.0,0.0,0.0,-0.1354,-0.3085,-0.4689,-0.6485,-0.8278,-0.9958,-1.0283,-1.0236,-1.0024,-1.0175,-1.0236,-1.0017,-1.0304,-1.05,-1.05,-1.0622,-1.0717,-1.0717,-1.0717,-1.0717,-1.0717,-1.0717,-1.0717,-1.0717,-1.3905,-1.7345,-2.0716,-2.0982,-2.0259,-1.8512,-1.8436,-1.7602,-1.5848,-1.5848,-1.4939,-1.3193,-1.3193,-1.2347,-1.0717,-1.0717,-1.0717,0.0,0.0,0.0,0.0,0.0,0.0,0.0,0.0,0.0,0.0,0.0,0.0,0.0,0.0,0.0,0.0,0.0,0.0,0.0,-0.1601,-0.1739,-0.2911,-0.3008,-0.3013,-0.3124,-0.1715,-0.0865,-0.0817,-0.0294,0.0,0.0,0.1593,0.2524,0.2524,0.3505,0.3566,0.2524,0.191,0.111,0.0,0.0,0.0,0.0062,0.1725,0.2214,0.1782,0.4517,0.5354,0.4983,0.6608,0.8245,0.9587,0.8539,0.849,0.843,0.4113,0.2156,0.1479,0.037,0.0,0.0,0.0,0.0,0.0,0.0,0.0,0.0,0.0,0.0,0.0,0.0,-0.0442,-0.1631,-0.4293,-0.5463,-0.6611,-0.9354,-0.9978,-0.9958,-0.991,-0.9944,-0.9958,-0.991,-1.0066,-1.0236,-1.0337,-1.0473,-1.0568,-1.0568,-1.0656,-1.0717,-1.0717,-1.0717,-1.0717,-1.0717,-1.3905,-1.7409,-2.0856,-2.1109,-2.0843,-2.0259,-2.0195,-1.9419,-1.7667,-1.6496,-1.5005,-1.3325,-1.215,-1.1306,-1.0717,-1.0717,-1.0717,0.0,0.0,0.0,0.0,0.0,0.0,-0.1712,0.0,-0.3493,0.0,0.0,0.0,0.0,0.0,0.0,0.0,0.0,0.0,0.0,-0.2388,-0.2731,-0.2833,-0.2335,-0.2057,-0.2178,-0.0844,0.0,0.0,0.0,0.0,0.0,0.2137,0.3384,0.3384,0.4916,0.4977,0.3384,0.277,0.1659,0.0,0.0,0.0,0.0061,0.172,0.2831,0.3505,0.6775,0.8811,0.9933,1.1589,1.2497,1.283,1.1826,1.0771,0.929,0.4971,0.2585,0.1479,0.037,0.0,0.0,0.0,0.0,0.0,0.0,0.0,0.0,0.0,0.0,-0.0124,-0.0749,-0.087,-0.1729,-0.5033,-0.581,-0.6508,-0.9207,-0.9822,-0.9822,-0.9822,-0.9822,-0.9822,-0.9822,-0.9842,-1.0019,-1.0175,-1.0324,-1.0419,-1.0419,-1.0548,-1.0636,-1.0636,-1.069,-1.1174,-1.2413,-1.4623,-1.7409,-2.0856,-2.1109,-2.1109,-2.1109,-2.1109,-2.0259,-1.8512,-1.7409,-1.5654,-1.3325,-1.215,-1.1306,-1.0717,-1.0717,-1.0717]},{"header":{"parameterUnit":"m.s-1","parameterCategory":1,"la1":30.6,"la2":29.2853,"lo1":-89.7004,"lo2":-87.6739,"dy":0.0162,"dx":0.0183,"nx":112,"ny":82,"refTime":"2024-09-04T12:00:00:Z","depth":0,"parameterNumber":3,"parameterNumberName":"V-component_of_WINDS"},"data":[0.0,0.0,0.0,0.0,0.0,0.0,0.0,0.0,0.0,0.0,0.0,0.0,0.0,0.0,0.0,0.0,0.0,0.0,0.0,0.0,0.0,0.0,0.0,0.0,0.0,0.0,0.0,0.0,0.0,0.0,0.0,0.0,0.0,0.0,0.0,0.0,0.0,0.0,0.0,0.0,0.0,0.0,0.0,0.0,0.0,0.0,0.0,0.0,0.0,0.0,0.0,0.0,0.0,0.0,0.0,0.0,0.0,0.0,0.0,0.0,0.0,0.0,0.0,0.0,0.0,0.0,0.0,0.0,0.0,0.0,0.0,0.0,0.0,0.0,0.0,0.0,0.0,0.0,0.0,0.0,0.0,0.0,0.0,0.0,0.0,0.0,0.0,0.0,0.0,0.0,5.3857,5.6049,5.8973,6.0804,6.0811,6.0046,5.7838,5.378,0.0,0.0,0.0,0.0,0.0,0.0,0.0,0.0,0.0,0.0,0.0,0.0,0.0,0.0,0.0,0.0,0.0,0.0,0.0,0.0,0.0,0.0,0.0,0.0,0.0,0.0,0.0,0.0,0.0,0.0,0.0,0.0,0.0,0.0,0.0,0.0,0.0,0.0,0.0,0.0,0.0,0.0,0.0,0.0,0.0,0.0,0.0,0.0,0.0,0.0,0.0,0.0,0.0,0.0,0.0,0.0,0.0,0.0,0.0,0.0,0.0,0.0,0.0,0.0,0.0,0.0,0.0,0.0,0.0,0.0,0.0,0.0,0.0,0.0,0.0,0.0,0.0,0.0,0.0,0.0,0.0,0.0,0.0,0.0,0.0,0.0,0.0,0.0,0.0,0.0,0.0,0.0,0.0,0.0,0.0,0.0,0.0,0.0,0.0,0.0,0.0,0.0,0.0,0.0,5.3846,5.8434,6.005,6.0856,6.0963,5.9653,5.7398,5.3965,0.0,0.0,0.0,0.0,0.0,0.0,0.0,0.0,0.0,0.0,0.0,0.0,0.0,0.0,0.0,0.0,0.0,0.0,0.0,0.0,0.0,0.0,0.0,0.0,0.0,0.0,0.0,0.0,0.0,0.0,0.0,0.0,0.0,0.0,0.0,0.0,0.0,0.0,0.0,0.0,0.0,0.0,0.0,0.0,0.0,0.0,0.0,0.0,0.0,0.0,0.0,0.0,0.0,0.0,0.0,0.0,0.0,0.0,0.0,0.0,0.0,0.0,0.0,0.0,0.0,0.0,0.0,0.0,0.0,0.0,0.0,0.0,0.0,0.0,0.0,0.0,0.0,0.0,0.0,0.0,0.0,0.0,0.0,0.0,0.0,0.0,0.0,0.0,0.0,0.0,0.0,0.0,0.0,0.0,0.0,0.0,0.0,0.0,0.0,0.0,0.0,0.0,0.0,5.401,5.5549,5.9742,6.0127,6.0107,6.0169,5.8823,5.6547,5.3204,5.2294,0.0,0.0,0.0,0.0,0.0,0.0,0.0,0.0,0.0,0.0,0.0,0.0,0.0,0.0,0.0,0.0,0.0,0.0,0.0,0.0,0.0,0.0,0.0,0.0,0.0,0.0,0.0,0.0,0.0,0.0,0.0,0.0,0.0,0.0,0.0,0.0,0.0,0.0,0.0,0.0,0.0,0.0,0.0,0.0,0.0,0.0,0.0,0.0,0.0,0.0,0.0,0.0,0.0,0.0,0.0,0.0,0.0,0.0,0.0,0.0,0.0,0.0,0.0,0.0,0.0,0.0,0.0,0.0,0.0,0.0,0.0,0.0,0.0,0.0,0.0,0.0,0.0,0.0,0.0,0.0,0.0,0.0,0.0,0.0,0.0,0.0,0.0,0.0,0.0,0.0,0.0,0.0,0.0,0.0,0.0,0.0,0.0,0.0,0.0,0.0,0.0,0.0,5.6549,5.7896,6.0512,6.0012,5.9511,5.9511,5.7839,5.5508,5.2486,5.1371,0.0,0.0,0.0,0.0,0.0,0.0,0.0,0.0,0.0,0.0,0.0,0.0,0.0,0.0,0.0,0.0,0.0,0.0,0.0,0.0,0.0,0.0,0.0,0.0,0.0,0.0,0.0,0.0,0.0,0.0,0.0,0.0,0.0,0.0,0.0,0.0,0.0,0.0,0.0,0.0,0.0,0.0,0.0,0.0,0.0,0.0,0.0,0.0,0.0,0.0,0.0,0.0,0.0,0.0,0.0,0.0,0.0,0.0,0.0,0.0,0.0,0.0,0.0,0.0,0.0,0.0,0.0,0.0,0.0,0.0,0.0,0.0,0.0,0.0,0.0,0.0,0.0,0.0,0.0,0.0,0.0,0.0,0.0,0.0,0.0,0.0,0.0,0.0,0.0,0.0,0.0,0.0,0.0,0.0,0.0,0.0,0.0,0.0,0.0,0.0,0.0,0.0,5.755,6.0512,6.0781,6.0012,5.9511,5.9511,5.6777,5.4291,5.2408,5.0278,0.0,0.0,0.0,0.0,0.0,0.0,0.0,0.0,0.0,0.0,0.0,0.0,0.0,0.0,0.0,0.0,0.0,0.0,0.0,0.0,0.0,0.0,0.0,0.0,0.0,0.0,0.0,0.0,0.0,0.0,0.0,0.0,0.0,0.0,0.0,0.0,0.0,0.0,0.0,0.0,0.0,0.0,0.0,0.0,0.0,0.0,0.0,0.0,0.0,0.0,0.0,0.0,0.0,0.0,0.0,0.0,0.0,0.0,0.0,0.0,0.0,0.0,0.0,0.0,0.0,0.0,0.0,0.0,0.0,0.0,0.0,0.0,0.0,0.0,0.0,0.0,0.0,0.0,0.0,0.0,0.0,0.0,0.0,0.0,0.0,0.0,0.0,0.0,0.0,0.0,0.0,0.0,0.0,0.0,0.0,0.0,0.0,0.0,0.0,0.0,0.0,0.0,5.628,5.905,0.0,5.9588,5.8742,5.8742,5.6397,5.3913,5.1636,0.0,0.0,0.0,0.0,0.0,0.0,0.0,0.0,0.0,0.0,0.0,0.0,0.0,0.0,0.0,0.0,0.0,0.0,0.0,0.0,0.0,0.0,0.0,0.0,0.0,0.0,0.0,0.0,0.0,0.0,0.0,0.0,0.0,0.0,0.0,0.0,0.0,0.0,0.0,0.0,0.0,0.0,0.0,0.0,0.0,0.0,0.0,0.0,0.0,0.0,0.0,0.0,0.0,0.0,0.0,0.0,0.0,0.0,0.0,0.0,0.0,0.0,0.0,0.0,0.0,0.0,0.0,0.0,0.0,0.0,0.0,0.0,0.0,0.0,0.0,0.0,0.0,0.0,0.0,0.0,0.0,0.0,0.0,0.0,0.0,0.0,0.0,0.0,0.0,0.0,0.0,0.0,0.0,0.0,0.0,0.0,0.0,0.0,0.0,0.0,0.0,0.0,5.2972,5.6126,5.8858,0.0,5.9319,5.8319,5.8319,5.5644,5.3163,5.1131,0.0,0.0,0.0,0.0,0.0,0.0,0.0,0.0,0.0,0.0,0.0,0.0,0.0,0.0,0.0,0.0,0.0,0.0,0.0,0.0,0.0,0.0,0.0,0.0,0.0,0.0,0.0,0.0,0.0,0.0,0.0,0.0,0.0,0.0,0.0,0.0,0.0,0.0,0.0,0.0,0.0,0.0,0.0,0.0,0.0,0.0,0.0,0.0,0.0,0.0,0.0,0.0,0.0,0.0,0.0,0.0,0.0,0.0,0.0,0.0,0.0,0.0,0.0,0.0,0.0,0.0,0.0,0.0,0.0,0.0,0.0,0.0,0.0,0.0,0.0,0.0,0.0,0.0,0.0,0.0,0.0,0.0,0.0,0.0,0.0,0.0,0.0,0.0,0.0,0.0,0.0,0.0,0.0,0.0,0.0,0.0,0.0,0.0,0.0,0.0,0.0,0.0,5.3203,5.7665,6.0781,6.0781,5.9319,5.8319,5.8319,5.4523,5.1823,0.0,0.0,0.0,0.0,0.0,0.0,0.0,0.0,0.0,0.0,0.0,0.0,0.0,0.0,0.0,0.0,0.0,0.0,0.0,0.0,0.0,0.0,0.0,0.0,0.0,0.0,0.0,0.0,0.0,0.0,0.0,0.0,0.0,0.0,0.0,0.0,0.0,0.0,0.0,0.0,0.0,0.0,0.0,0.0,0.0,0.0,0.0,0.0,0.0,0.0,0.0,0.0,0.0,0.0,0.0,0.0,0.0,0.0,0.0,0.0,0.0,0.0,0.0,0.0,0.0,0.0,0.0,0.0,0.0,0.0,0.0,0.0,0.0,0.0,0.0,0.0,0.0,0.0,0.0,0.0,0.0,0.0,0.0,0.0,0.0,0.0,0.0,0.0,0.0,0.0,0.0,0.0,0.0,0.0,0.0,0.0,0.0,0.0,0.0,0.0,0.0,0.0,0.0,5.4049,5.8011,6.0781,6.0781,5.9819,5.8934,5.8357,5.5714,5.3196,5.1131,0.0,0.0,0.0,0.0,0.0,0.0,0.0,0.0,0.0,0.0,0.0,0.0,0.0,0.0,0.0,0.0,0.0,0.0,0.0,0.0,0.0,0.0,0.0,0.0,0.0,0.0,0.0,0.0,0.0,0.0,0.0,0.0,0.0,0.0,0.0,0.0,0.0,0.0,0.0,0.0,0.0,0.0,0.0,0.0,0.0,0.0,0.0,0.0,0.0,0.0,0.0,0.0,0.0,0.0,0.0,0.0,0.0,0.0,0.0,0.0,0.0,0.0,0.0,0.0,0.0,0.0,0.0,0.0,0.0,0.0,0.0,0.0,0.0,0.0,0.0,0.0,0.0,0.0,0.0,0.0,0.0,0.0,0.0,0.0,0.0,0.0,0.0,0.0,0.0,0.0,0.0,0.0,0.0,0.0,0.0,0.0,0.0,0.0,0.0,0.0,0.0,0.0,5.4395,5.8204,6.0781,6.0781,6.0085,5.9261,5.8441,5.6565,5.4173,5.1252,0.0,0.0,0.0,0.0,0.0,0.0,0.0,0.0,0.0,0.0,0.0,0.0,0.0,0.0,0.0,0.0,0.0,0.0,0.0,0.0,0.0,0.0,0.0,0.0,0.0,0.0,0.0,0.0,0.0,0.0,0.0,0.0,0.0,0.0,0.0,0.0,0.0,0.0,0.0,0.0,0.0,0.0,0.0,0.0,0.0,0.0,0.0,0.0,0.0,0.0,0.0,0.0,0.0,0.0,0.0,0.0,0.0,0.0,0.0,0.0,0.0,0.0,0.0,0.0,0.0,0.0,0.0,0.0,0.0,0.0,0.0,0.0,0.0,0.0,0.0,0.0,0.0,0.0,0.0,0.0,0.0,0.0,0.0,0.0,0.0,0.0,0.0,0.0,0.0,0.0,0.0,0.0,0.0,0.0,0.0,0.0,0.0,0.0,0.0,0.0,0.0,0.0,5.4472,5.8237,6.0827,6.0827,6.0307,5.9559,5.8621,5.7178,5.4935,5.1654,0.0,0.0,0.0,0.0,0.0,0.0,0.0,0.0,0.0,0.0,0.0,0.0,0.0,0.0,0.0,0.0,0.0,0.0,0.0,0.0,0.0,0.0,0.0,0.0,0.0,0.0,0.0,0.0,0.0,0.0,0.0,0.0,0.0,0.0,0.0,0.0,0.0,0.0,0.0,0.0,0.0,0.0,0.0,0.0,0.0,0.0,0.0,0.0,0.0,0.0,0.0,0.0,0.0,0.0,0.0,0.0,0.0,0.0,0.0,0.0,5.0781,4.9908,0.0,0.0,0.0,0.0,0.0,0.0,0.0,0.0,0.0,0.0,0.0,0.0,0.0,0.0,0.0,0.0,0.0,0.0,0.0,0.0,0.0,0.0,0.0,0.0,0.0,0.0,0.0,0.0,0.0,0.0,0.0,0.0,0.0,0.0,0.0,0.0,0.0,0.0,0.0,0.0,5.5241,5.8674,6.0963,6.0963,6.0973,6.0339,5.879,5.7823,5.6134,5.3418,5.1313,0.0,0.0,0.0,0.0,0.0,0.0,0.0,0.0,0.0,0.0,0.0,0.0,0.0,0.0,0.0,0.0,0.0,0.0,0.0,0.0,0.0,0.0,0.0,0.0,0.0,0.0,0.0,0.0,0.0,0.0,0.0,0.0,0.0,0.0,0.0,0.0,0.0,0.0,0.0,0.0,0.0,0.0,0.0,0.0,0.0,0.0,0.0,0.0,0.0,0.0,0.0,0.0,0.0,0.0,0.0,0.0,0.0,0.0,0.0,5.3437,5.2885,0.0,0.0,0.0,0.0,0.0,0.0,0.0,0.0,0.0,0.0,0.0,0.0,0.0,0.0,0.0,0.0,0.0,0.0,0.0,0.0,0.0,0.0,0.0,0.0,0.0,0.0,0.0,0.0,0.0,0.0,0.0,0.0,0.0,0.0,0.0,0.0,0.0,0.0,0.0,0.0,5.6311,5.9235,6.0995,6.0561,6.0678,6.0252,5.8893,5.8153,5.6819,5.4672,5.2967,0.0,0.0,0.0,0.0,0.0,0.0,0.0,0.0,0.0,0.0,0.0,0.0,0.0,0.0,0.0,0.0,0.0,0.0,0.0,0.0,0.0,0.0,0.0,0.0,0.0,0.0,0.0,0.0,0.0,0.0,0.0,0.0,0.0,0.0,0.0,0.0,0.0,0.0,0.0,0.0,0.0,0.0,0.0,0.0,0.0,0.0,0.0,0.0,0.0,0.0,0.0,0.0,0.0,5.5791,5.5848,5.5535,5.5759,5.6632,5.7859,5.6179,5.623,5.7229,5.4511,0.0,0.0,0.0,0.0,0.0,0.0,0.0,0.0,0.0,0.0,0.0,0.0,0.0,0.0,0.0,0.0,0.0,0.0,0.0,0.0,0.0,0.0,0.0,0.0,5.8594,5.8786,5.575,0.0,0.0,0.0,0.0,0.0,0.0,0.0,0.0,0.0,0.0,0.0,5.7409,5.9799,6.105,6.0344,6.0379,6.0037,5.9058,5.8431,5.7383,5.5625,5.457,5.3047,0.0,0.0,0.0,0.0,0.0,0.0,0.0,0.0,0.0,0.0,0.0,0.0,0.0,0.0,0.0,0.0,0.0,0.0,0.0,0.0,0.0,0.0,0.0,0.0,0.0,0.0,0.0,0.0,0.0,0.0,0.0,0.0,5.3554,5.4874,0.0,0.0,0.0,0.0,0.0,0.0,0.0,0.0,0.0,0.0,0.0,0.0,0.0,5.9231,6.0042,6.0401,6.0516,6.0425,5.9711,5.9341,5.9284,5.8914,5.9322,6.0302,6.0694,0.0,5.7649,5.7687,0.0,0.0,0.0,0.0,0.0,0.0,0.0,0.0,0.0,0.0,0.0,0.0,0.0,0.0,0.0,0.0,0.0,0.0,0.0,0.0,0.0,0.0,6.1015,6.1015,6.1211,6.125,0.0,5.7638,5.4836,5.4601,5.393,0.0,0.0,0.0,0.0,0.0,0.0,0.0,5.8309,6.0231,6.1446,6.129,6.1429,6.0858,5.9295,5.9062,5.8281,5.6523,5.4883,5.3867,5.3516,5.1953,0.0,0.0,0.0,0.0,0.0,0.0,0.0,0.0,0.0,0.0,0.0,0.0,0.0,0.0,0.0,0.0,0.0,0.0,0.0,0.0,0.0,0.0,0.0,0.0,0.0,0.0,0.0,0.0,0.0,5.3489,5.604,5.6401,5.6549,5.5852,0.0,0.0,0.0,0.0,0.0,0.0,0.0,0.0,0.0,6.0396,6.0781,6.1358,6.2204,6.2375,6.2585,6.2803,6.2365,6.25,6.3173,6.198,6.2167,6.3423,6.2621,6.1842,6.1027,5.9622,5.8692,5.7978,0.0,0.0,0.0,0.0,5.8217,5.8109,6.0192,5.9961,5.8594,5.7773,0.0,0.0,0.0,0.0,0.0,0.0,0.0,5.8203,0.0,0.0,6.1094,6.1562,6.1719,6.1719,6.1719,6.0193,5.8548,0.0,5.7054,5.6183,5.4346,0.0,0.0,0.0,0.0,5.8321,5.9493,6.0799,6.1433,6.0926,6.0545,6.0195,5.9883,5.8555,5.8008,5.8672,5.668,5.5664,5.6172,5.4062,5.2539,0.0,0.0,0.0,0.0,0.0,0.0,0.0,0.0,0.0,0.0,0.0,0.0,0.0,0.0,0.0,0.0,0.0,0.0,0.0,0.0,0.0,0.0,0.0,0.0,0.0,0.0,0.0,0.0,5.6164,5.8117,5.767,5.8396,5.7912,0.0,0.0,0.0,0.0,0.0,0.0,5.9393,6.0515,6.182,6.3332,6.3589,6.4012,6.4577,6.4674,6.4845,6.5134,6.4944,6.5359,6.6222,6.4498,6.4498,6.5752,6.4062,6.3737,6.4244,6.1591,6.0536,6.0423,5.8539,5.8252,5.911,6.0589,6.0563,6.0226,6.3002,6.2539,6.0625,6.0039,5.9101,5.7851,5.5937,0.0,0.0,0.0,0.0,5.914,6.039,6.0742,6.0898,6.1562,6.1719,6.1719,6.1719,6.1719,6.1328,0.0,5.9844,5.914,5.6992,0.0,0.0,0.0,0.0,5.9805,6.0625,6.1289,6.1445,6.0781,6.0195,6.0,6.0351,5.8672,5.8203,5.9687,5.8203,5.7461,5.789,5.625,5.5039,5.4336,0.0,0.0,0.0,0.0,0.0,0.0,0.0,0.0,0.0,0.0,0.0,0.0,0.0,0.0,0.0,0.0,0.0,0.0,0.0,0.0,0.0,0.0,0.0,0.0,0.0,0.0,0.0,0.0,0.0,5.9438,6.0127,0.0,0.0,0.0,0.0,5.6904,5.9543,6.1578,6.2419,6.4435,6.5974,6.6821,6.7667,6.809,6.8129,6.8326,6.8423,6.8452,6.7945,6.7718,6.7756,6.6184,6.5872,6.6513,6.5641,6.5631,6.6086,6.3984,6.3128,6.3101,6.2986,6.2959,6.3041,6.3464,6.3085,6.2385,6.2877,6.2422,6.164,6.1601,6.0469,5.9101,5.8984,5.8984,0.0,0.0,6.0234,6.1523,6.1601,6.164,6.164,6.168,6.1719,6.1719,6.1719,6.1719,6.168,0.0,6.1562,6.1289,6.0312,0.0,6.0195,6.0195,6.0273,6.0664,6.1523,6.168,6.168,6.164,6.1601,6.125,6.0469,6.0273,5.957,5.8125,5.8672,5.8711,5.793,5.8555,5.7773,5.5273,5.5078,0.0,0.0,0.0,0.0,0.0,0.0,0.0,0.0,0.0,0.0,0.0,0.0,0.0,0.0,0.0,0.0,0.0,0.0,0.0,0.0,0.0,0.0,0.0,0.0,0.0,0.0,0.0,0.0,6.118,6.2397,0.0,5.9496,6.0469,6.1223,6.1092,6.3064,6.4665,6.5471,6.6807,6.7628,6.7936,6.8244,6.8385,6.8385,6.8618,6.8946,6.945,6.8837,6.9144,7.0183,6.8488,6.8161,6.8873,6.8019,6.748,6.7165,6.6446,6.5489,6.4386,6.3758,6.3804,6.4309,6.4549,6.4085,6.3459,6.4361,6.3359,6.1719,6.1719,6.1289,6.082,6.082,6.082,6.082,6.082,6.125,6.1719,6.1719,6.1719,6.1719,6.1719,6.1719,6.1719,6.1719,6.1719,6.1719,6.1719,6.1719,6.1406,6.0547,6.0859,6.1055,6.0469,6.0898,6.1367,6.164,6.1719,6.1719,6.1719,6.1211,6.0976,6.1211,5.9726,5.8984,5.9492,5.8242,5.789,5.8711,5.7969,5.7344,5.6992,5.5312,5.3437,0.0,0.0,0.0,0.0,0.0,0.0,0.0,0.0,0.0,0.0,0.0,0.0,0.0,0.0,0.0,0.0,0.0,0.0,0.0,0.0,0.0,0.0,0.0,0.0,0.0,6.0961,6.2489,6.2488,6.4243,6.4551,6.2281,6.3589,6.4589,6.4589,6.5936,6.709,6.7936,6.8513,6.909,6.9667,6.9398,6.9398,6.9667,6.967,7.0046,7.0852,7.0454,7.0876,7.1956,7.0473,6.9973,7.0253,6.9401,6.8724,6.8249,6.8249,6.759,6.6404,6.5069,6.4876,6.5366,6.5561,6.4865,6.3955,6.4209,6.3164,6.1719,6.1719,6.1719,6.1719,6.1719,6.1719,6.1719,6.1719,6.1678,6.1633,6.1633,6.1633,6.1633,6.1633,6.1678,6.1719,6.1719,6.1719,6.1719,6.1719,6.1719,6.1523,6.0937,6.1328,6.1484,6.0937,6.1328,6.1719,6.1719,6.1719,6.1719,6.1719,6.1172,6.1055,6.164,5.9883,5.9219,6.0312,5.8828,5.8281,5.914,5.8359,5.789,5.789,5.5625,5.4297,5.4023,0.0,0.0,0.0,0.0,0.0,0.0,0.0,0.0,0.0,0.0,0.0,0.0,0.0,0.0,0.0,0.0,0.0,0.0,0.0,0.0,0.0,0.0,0.0,5.9248,6.2336,6.4359,6.3551,6.5667,6.6551,6.4897,6.6244,6.7205,6.7167,6.7975,6.8821,6.9706,6.9744,7.0475,7.2129,7.136,7.136,7.2206,7.1813,7.199,7.2853,7.2973,7.3062,7.3023,7.2056,7.1248,7.0522,6.9706,6.9353,6.9453,6.9453,6.9414,6.9218,6.7213,6.6432,6.6457,6.6545,6.5523,6.3896,6.2262,6.1719,6.1719,6.1719,6.1719,6.1719,6.1719,6.1719,6.1719,6.1719,6.1627,6.1507,6.1507,6.1507,6.1507,6.1507,6.1627,6.1719,6.1719,6.1719,6.1719,6.1719,6.1719,6.1719,6.1719,6.1719,6.1719,6.1719,6.1719,0.0,6.1719,6.1719,6.1719,6.1719,6.1719,6.1719,6.1719,6.0898,6.039,6.039,6.039,6.0,5.9219,5.9961,5.9609,5.7969,5.625,5.5781,5.664,0.0,0.0,0.0,0.0,0.0,0.0,0.0,0.0,0.0,0.0,0.0,0.0,0.0,0.0,0.0,0.0,0.0,0.0,0.0,0.0,0.0,6.2533,6.4257,6.4014,6.5398,6.6551,6.6974,6.8706,6.9206,6.7513,6.8859,6.959,6.9013,6.9206,6.9706,7.0514,7.0552,7.1052,7.2168,7.1975,7.2245,7.3129,7.3248,7.343,7.3671,7.4014,7.4174,7.4135,7.3854,7.3308,7.2534,7.2261,7.1483,7.0351,7.0351,7.0,6.9335,6.7991,6.7477,6.7403,6.6805,6.5594,6.4019,6.2304,6.1719,6.1719,6.1719,6.1719,6.1719,6.1719,6.1719,6.1719,6.1719,6.1679,6.1636,6.1636,6.1636,6.1636,6.1636,6.1679,6.1719,6.1719,6.1719,6.1719,6.1719,6.1719,6.1719,6.1719,6.1719,6.1719,6.1719,6.1719,0.0,6.1719,6.1719,6.1719,6.1719,6.1719,6.1719,6.1719,6.0898,6.039,6.039,5.9844,5.9414,5.9219,5.9414,5.9297,5.8867,5.7734,5.7305,0.0,0.0,0.0,0.0,0.0,0.0,0.0,0.0,0.0,0.0,0.0,0.0,0.0,0.0,0.0,0.0,0.0,0.0,0.0,0.0,0.0,0.0,6.4367,6.6417,6.7385,6.7898,6.8513,6.936,7.0629,7.1206,7.0591,7.1091,7.1245,7.0783,7.0398,7.0552,7.1398,7.1437,7.2014,7.3206,7.2937,7.3212,7.4128,7.404,7.4249,7.4672,7.4982,7.5156,7.5156,7.5156,7.4687,7.3828,7.3476,7.2734,7.1758,7.1406,7.0976,7.039,0.0,0.0,0.0,0.0,6.5383,6.4101,6.2734,6.1992,6.1719,6.1719,6.1719,6.1719,6.1719,6.1719,6.1679,6.1633,6.1579,6.152,6.152,6.152,6.1566,6.1587,6.1677,6.1719,6.1719,6.1719,6.1719,6.1719,6.1719,0.0,6.1719,6.1719,6.1719,6.1719,6.1719,6.1719,6.1719,6.1719,6.1719,6.1719,6.1719,6.1719,6.1719,6.0898,0.0,0.0,0.0,5.9687,5.9687,5.9687,0.0,0.0,0.0,0.0,0.0,0.0,0.0,0.0,6.1797,6.2617,0.0,0.0,0.0,0.0,0.0,0.0,0.0,0.0,0.0,0.0,0.0,0.0,0.0,0.0,0.0,0.0,6.5314,6.7416,6.9596,6.9948,7.0244,7.0975,7.1898,7.2745,7.3437,7.2899,7.2437,7.236,7.1629,7.1514,7.2322,7.236,0.0,0.0,0.0,7.4154,7.5143,7.46,7.4784,7.5755,7.5931,7.6055,7.6055,7.6055,7.5586,7.4687,7.3945,7.3476,7.3242,7.2461,7.2031,7.1601,6.9258,6.8281,6.8008,6.625,6.5117,6.4336,6.3437,0.0,0.0,6.1875,6.1836,6.1836,6.1719,6.1679,6.1676,6.1637,6.147,6.1328,6.1423,6.139,6.1349,6.1498,6.1591,6.1719,6.1719,6.1719,6.1719,6.1719,6.1719,6.1719,6.1719,6.1719,6.1719,6.1719,6.1719,6.1719,6.1719,6.1719,6.1719,6.1719,0.0,0.0,6.1719,6.0976,6.0898,6.164,6.0976,6.0547,6.0547,6.0625,6.1055,6.1836,6.2812,6.3711,6.4609,6.625,6.7148,6.7265,6.4844,6.5039,0.0,0.0,0.0,0.0,0.0,0.0,0.0,0.0,0.0,0.0,0.0,0.0,0.0,0.0,0.0,6.5095,6.7108,6.8984,7.0823,7.1443,7.1783,7.1937,7.3283,7.4053,7.3553,7.3937,7.3937,7.3322,7.3091,7.3091,7.3245,7.3245,7.3707,7.4668,7.4719,7.5116,7.6034,7.6255,7.6431,7.6646,7.6867,0.0,7.6953,7.6953,7.6484,7.5625,7.5469,7.4609,7.3281,7.3125,7.2226,7.082,6.9648,6.8789,6.8008,6.625,6.5508,6.5234,6.4336,6.3945,6.3672,6.2969,6.2734,6.2617,6.1914,6.1632,0.0,6.2362,6.1937,6.1507,6.2309,6.1982,6.1501,6.1633,6.1679,6.1719,6.1719,6.1719,6.1719,6.1719,6.1719,6.1719,6.1719,6.1719,6.1719,6.1719,6.1719,6.1719,6.1719,6.1719,6.1719,6.1719,6.1719,6.1719,6.1719,6.1562,6.1523,6.168,6.1523,6.1445,6.1445,6.2109,6.2578,6.2734,6.4297,6.5547,6.6406,6.7422,6.8633,6.9922,6.8789,6.8867,0.0,0.0,0.0,0.0,0.0,0.0,0.0,0.0,0.0,0.0,0.0,6.0468,6.1891,0.0,6.5197,6.7556,6.8672,6.9908,7.1741,7.2709,7.3246,7.3433,7.4207,7.4707,7.4745,7.513,7.5014,7.4168,7.4091,7.4284,7.4745,7.4745,7.5322,7.6553,7.6802,7.6951,7.7039,7.7373,7.7372,7.7052,7.7147,7.7187,7.7187,7.7187,7.6953,7.6523,7.6094,7.539,7.4531,7.3672,7.2539,7.125,7.039,6.9297,6.8086,6.7226,6.6367,6.5547,6.5117,6.4648,6.4219,6.3789,6.3359,6.3008,6.3008,6.2604,6.2311,6.3077,6.2936,6.2669,6.3161,6.3066,6.2811,6.2967,6.3008,6.3008,6.3008,6.2656,6.2344,6.2344,6.1992,6.1719,6.1719,6.1719,6.1719,6.1719,6.1719,6.1719,6.1719,6.1719,6.1719,6.1719,6.2109,6.2187,6.1758,6.2109,6.2344,6.2344,6.2773,6.3008,6.3008,6.3828,6.4492,6.4922,6.625,6.7305,6.8164,6.9023,6.9883,7.0703,7.0742,7.0976,0.0,0.0,0.0,0.0,0.0,0.0,0.0,5.7143,5.7576,6.0012,6.1916,6.3459,6.4396,6.5739,6.7313,6.9173,6.9679,7.0555,7.2422,7.3699,7.4527,7.4771,7.4976,7.537,7.606,7.6232,7.601,7.5319,7.5355,7.5745,7.6438,7.6476,7.7092,7.8453,7.8718,7.8612,7.8054,7.8174,7.7987,7.7461,7.7265,7.7187,7.7187,7.7187,7.7187,7.7148,7.6289,7.5898,7.5742,7.4023,7.289,7.2187,7.1289,6.9999,6.8591,6.8278,6.7222,6.5968,6.5855,6.5349,6.4725,6.4609,6.4062,6.3594,6.414,6.3736,6.3201,6.3891,6.3959,6.3864,6.4048,6.4099,6.414,6.4256,6.4297,6.4297,6.4297,6.375,6.3203,6.3047,6.2422,6.1914,6.1719,6.1836,6.1914,6.1719,6.1836,6.1875,6.1719,6.1992,6.207,6.1758,6.2617,6.2969,6.2265,6.2851,6.3242,6.3242,6.3906,6.4297,6.4297,6.5156,6.6015,6.6875,6.789,6.8828,6.9648,7.0547,7.0937,7.0976,7.168,7.1992,5.5537,5.5325,5.6005,5.8882,5.9063,5.9484,0.0,6.289,6.2587,6.4986,6.5118,6.5291,6.6812,6.7264,6.7621,6.8416,6.9672,7.1176,7.2816,7.4338,7.5215,7.5147,7.5938,7.6501,7.6614,7.7129,7.7358,7.7282,7.7758,7.813,7.8207,7.8207,7.8284,7.8477,7.8871,7.9011,7.8956,7.863,7.8437,7.8359,7.7578,7.7187,7.7187,7.7187,7.7187,7.7148,7.6289,7.5898,7.5742,7.4023,7.3242,7.3086,7.2187,7.1201,7.0063,6.8505,6.7707,6.727,6.6681,6.6433,6.6249,6.5661,6.539,6.5195,6.4492,6.4128,6.4118,6.4925,6.4505,6.4015,6.4899,6.4619,6.414,6.4256,6.4297,6.4297,6.4297,6.4219,6.3945,6.3164,6.293,6.2617,6.1836,6.2344,6.2578,6.1836,6.2344,6.2578,6.1797,6.3047,6.3437,6.1875,6.3164,6.4101,6.4023,6.4101,6.414,6.414,6.4258,6.4297,6.4297,6.5156,6.6015,6.6875,6.8476,6.9687,7.0547,7.1445,7.1836,7.1875,7.1953,7.1992,5.8107,5.8737,5.9504,6.1337,6.1507,6.2045,6.5137,6.4542,6.4037,6.6515,6.7522,6.812,6.8687,6.9591,7.027,7.0416,7.0979,7.1762,7.2785,7.4086,7.5043,7.5334,7.5838,7.6087,7.587,7.6474,7.7121,7.757,7.8288,7.8913,7.9231,7.9246,7.9543,8.0151,8.0466,8.0415,8.004,7.9983,7.9687,7.918,7.8359,7.7969,7.793,7.7422,7.7187,7.7187,7.6797,7.6094,7.5117,7.4883,7.3906,7.2578,7.2695,7.2137,7.1065,6.9855,6.8734,6.772,6.7458,6.7112,6.6749,6.6445,6.6015,6.5625,6.5781,6.5337,6.4977,6.5836,6.5734,6.5515,6.5943,6.5907,6.5735,6.5781,6.582,6.582,6.582,6.539,6.4961,6.457,6.4101,6.3633,6.3281,6.3515,6.3633,6.3281,6.3086,6.2851,6.25,6.3086,6.3633,6.3945,6.418,6.4492,6.5,6.5078,6.5078,6.5078,6.5547,6.582,6.582,6.6172,6.6992,6.832,6.9062,7.0117,7.1445,7.1836,7.2265,7.2773,7.2773,7.3047,5.9795,6.0823,6.1613,6.3022,6.3386,6.4005,6.646,6.585,6.5478,6.8031,6.9353,7.0005,6.999,7.1015,7.1727,7.1473,7.1651,7.2068,7.2691,7.404,7.4986,7.5132,7.552,7.5676,7.5388,7.6032,7.7041,7.8283,7.8942,7.9624,8.0446,8.0313,8.0613,8.1368,8.1662,8.1544,8.1051,8.0955,8.0622,8.0039,7.8903,7.8434,7.8476,7.7617,7.7187,7.7187,7.7145,7.6443,7.5312,7.5427,7.4373,7.2734,7.289,7.2411,7.1611,7.1065,6.9877,6.8487,6.8046,6.7585,6.7144,6.6953,6.6484,6.6094,6.6719,6.6359,6.5865,6.6529,6.6685,6.6685,6.6685,6.6984,6.7265,6.7265,6.7265,6.7265,6.7265,6.6562,6.5898,6.5664,6.5078,6.457,6.4336,6.4492,6.457,6.4336,6.3984,6.3633,6.3398,6.3359,6.4023,6.5781,6.5195,6.5,6.5898,6.5976,6.5976,6.5976,6.6562,6.6914,6.6914,6.7148,6.793,6.9414,6.9922,7.0898,7.2344,7.2344,7.2812,7.3633,7.3398,7.3906,5.9979,6.0398,6.1171,6.418,6.4934,6.553,6.7901,6.7796,6.7929,7.0465,7.0441,7.0149,7.0665,7.0805,7.0707,7.0336,7.106,7.1978,7.2706,7.4501,7.5404,7.4462,7.5192,7.5821,7.5783,7.6391,7.782,8.0231,8.0224,8.0695,8.2154,8.1684,8.1356,8.1407,8.176,8.1988,8.1953,8.1133,8.0788,8.0937,7.9025,7.8247,7.8476,7.7617,7.7187,7.7187,7.6998,7.7005,7.6992,7.5118,7.4425,7.4375,7.2695,7.1903,7.1689,7.165,7.1005,6.9928,6.8422,6.7907,6.7766,6.7107,6.6875,6.6875,6.6875,6.6875,6.6875,6.6875,6.6875,6.6875,6.6875,6.7539,6.8164,6.8164,6.8164,6.8164,6.8164,6.7461,6.6601,6.5742,6.5586,6.5273,6.4453,6.5,6.5273,6.4414,6.5,6.5234,6.4375,6.4258,6.4922,6.668,6.6094,6.5898,6.6797,6.6875,6.6875,6.6875,6.6875,6.6914,6.6914,6.7695,6.8594,6.9492,7.1094,7.2383,7.3242,7.3242,7.3711,7.4531,7.3672,7.4219,6.147,6.1974,6.2702,6.5875,6.6124,6.6247,6.8753,6.9106,6.9171,7.0109,7.0593,7.0526,6.9491,7.0061,7.0453,6.9594,7.1022,7.2229,7.2502,7.4728,7.6,7.5124,7.6366,7.7338,7.7452,7.7052,7.7578,7.9505,7.9937,8.0552,8.1632,8.1502,8.1504,8.1805,8.1812,8.1867,8.1992,8.1594,8.1415,8.1426,7.9616,7.8525,7.7989,7.7175,7.6785,7.6785,7.6738,7.6432,7.5923,7.5869,7.4828,7.3349,7.331,7.2596,7.1572,7.1572,7.1354,7.0839,6.9312,6.8481,6.7963,6.7148,6.6914,6.6914,6.6914,6.6914,6.6914,6.6914,6.6914,6.7031,6.7617,6.7969,6.832,6.8867,6.9023,6.8906,6.832,6.7969,6.75,6.664,6.6445,6.6367,6.6094,6.6289,6.6367,6.6055,6.5781,6.5508,6.5195,6.5664,6.625,6.6836,6.664,6.6562,6.6875,6.7422,6.7539,6.6953,6.8008,6.8359,6.7773,6.8555,6.9687,7.1133,7.1719,7.2695,7.414,7.414,7.4609,7.5469,7.5156,7.5664,6.261,6.2993,6.348,6.6657,6.6913,6.6874,6.8744,6.946,6.9723,6.9525,7.0003,6.9953,6.8388,6.9316,7.0235,6.9715,7.1559,7.3155,7.3473,7.5605,7.6863,7.6078,7.7469,7.8483,7.8329,7.8102,7.8554,7.9886,8.0105,8.0844,8.2235,8.1873,8.1836,8.2351,8.2005,8.1844,8.1889,8.1672,8.1445,8.1134,8.0084,7.9104,7.8248,7.7392,7.7049,7.7003,7.666,7.6202,7.5789,7.5952,7.4911,7.319,7.3423,7.2684,7.1478,7.1478,7.1478,7.1297,7.0019,6.9054,6.8325,6.7427,6.6973,6.6789,6.6789,6.6833,6.6914,6.6914,6.7109,6.75,6.8047,6.8633,6.9219,6.9726,6.9883,6.9765,6.9134,6.878,6.8385,6.7742,6.7347,6.7277,6.7644,6.7537,6.7344,6.7344,6.6601,6.6055,6.6055,6.6562,6.6914,6.6914,6.6914,6.7031,6.7344,6.789,6.8046,6.7726,6.878,6.9126,6.8479,6.926,7.0353,7.1797,7.2425,7.344,7.4845,7.4904,7.5576,7.671,7.6171,7.668,6.3184,6.3439,6.3579,6.6616,6.73,6.7411,6.8006,6.8963,6.9476,6.8615,6.8626,6.8422,6.7321,6.8612,7.0007,7.0492,7.2746,7.4699,7.5446,7.7162,7.8023,7.7229,7.8578,7.924,7.8474,7.9441,8.0468,8.1308,8.0805,8.1431,8.3661,8.2656,8.2284,8.2917,8.2307,8.1878,8.1711,8.1501,8.0957,8.0171,8.029,7.9928,7.9104,7.8178,7.7789,7.7742,7.67,7.6391,7.6498,7.5439,7.4587,7.39,7.3005,7.2188,7.1449,7.1449,7.1449,7.1333,7.0509,6.9674,6.8838,6.7937,6.7219,6.6649,6.6649,6.6774,6.6874,6.6913,6.7538,6.8202,6.828,6.9491,7.0702,7.0741,7.0741,7.0698,7.0528,6.9845,6.919,6.8968,6.8242,6.7987,6.9014,6.8655,6.8242,6.8203,6.75,6.6992,6.7031,6.6953,6.6914,6.6953,6.6914,6.7265,6.8125,6.8242,6.8507,6.9149,6.926,6.9211,6.8981,6.983,7.0732,7.1619,7.3229,7.4513,7.5369,7.5601,7.656,7.8171,7.6749,7.7383,6.2864,6.3804,6.5124,6.7716,6.7347,6.6632,6.7341,6.7347,6.6812,6.5346,6.6151,6.6619,6.5071,6.799,7.0527,6.9988,7.3345,7.608,7.6293,7.8451,7.9684,7.889,7.9731,8.0223,7.9904,8.0,8.0391,8.1129,8.1161,8.1519,8.2422,8.2013,8.1915,8.226,8.182,8.1514,8.1491,8.1285,8.1051,8.0858,8.0263,7.9841,7.9557,7.8104,7.7409,7.737,7.6467,7.6095,7.6096,7.5143,7.4308,7.3548,7.266,7.181,7.1038,7.1038,7.1038,7.1,7.0807,7.0341,6.972,6.8857,6.7995,6.7336,6.7336,6.6974,6.6654,6.7238,6.7584,6.8052,6.9338,7.0001,7.0508,7.1136,7.1292,7.1126,7.0419,7.0096,6.9733,6.9059,6.8741,6.8682,6.9131,6.9051,6.8765,6.8281,6.8008,6.8086,6.875,6.7695,6.7148,6.7812,6.7305,6.7184,6.7935,6.8554,6.8947,6.8972,7.0218,7.059,6.9915,7.1276,7.2482,7.3345,7.4435,7.5408,7.6271,7.6936,7.7568,7.821,7.8422,7.8926,6.2507,6.3632,6.4997,6.7036,6.69,6.6242,6.6204,6.6012,6.527,6.3171,6.4194,6.4908,6.3169,6.6822,7.0015,6.9859,7.3826,7.7163,7.7883,8.0169,8.1194,7.9733,8.0496,8.069,7.9567,7.96,7.9873,8.0357,8.1079,8.1756,8.2294,8.1734,8.1578,8.1852,8.1015,8.063,8.0823,8.1008,8.1093,8.1093,8.0592,8.0362,8.0323,7.8592,7.7823,7.7746,7.6515,7.6015,7.5976,7.5476,7.4591,7.3437,7.2976,7.2014,7.0898,7.0898,7.0898,7.0898,7.0898,7.0718,7.0322,6.9082,6.8381,6.7883,6.7153,6.7214,6.7509,6.7587,6.817,6.8981,6.9953,7.0459,7.0894,7.1361,7.1478,7.134,7.0782,7.0641,7.0374,6.945,6.9592,6.9733,6.9172,6.9475,6.9645,6.9335,6.8984,6.9219,7.043,6.8789,6.7772,6.8543,6.819,6.8166,6.8846,6.9348,6.9712,6.9911,7.0835,7.1296,7.1106,7.1998,7.3044,7.4284,7.4788,7.5508,7.6484,7.7003,7.7572,7.8214,7.8752,7.9442,6.2309,6.3399,6.4525,6.6079,6.6366,6.6019,6.5073,6.4759,6.3994,6.1733,6.2599,6.3361,6.1933,6.5642,6.9209,7.0145,7.4208,7.7928,7.9781,8.1739,8.2293,8.0303,8.0858,8.0631,7.8661,7.8854,7.9184,7.9454,8.0653,8.1659,8.2274,8.1258,8.0829,8.1167,7.9953,7.949,7.9969,8.0626,8.0975,8.0975,8.1061,8.1054,8.0862,7.9246,7.8438,7.8246,7.6669,7.6015,7.5976,7.5861,7.4899,7.35,7.336,7.2322,7.0898,7.0898,7.0898,7.0898,7.0898,7.0898,7.0667,6.9206,6.874,6.8478,6.7018,6.7635,6.87,6.8054,6.8987,7.0153,7.0262,7.0852,7.1404,7.1404,7.1427,7.1397,7.1233,7.1203,7.0968,7.009,7.064,7.0804,6.9507,7.003,7.0663,7.0702,7.0117,7.0195,7.164,6.9765,6.8584,6.9315,6.9256,6.9431,7.0088,7.0151,7.0485,7.1296,7.1313,7.1665,7.2336,7.2476,7.3206,7.4668,7.4826,7.5363,7.6295,7.6596,7.7299,7.837,7.866,7.9647,6.2514,6.4331,6.6344,6.8007,6.6948,6.543,6.5259,6.3152,6.1105,6.0689,6.1349,6.2156,6.2519,6.604,6.9539,7.1509,7.4821,7.8139,8.0968,8.1646,8.1806,8.1652,8.0572,7.9749,7.9315,7.8789,7.8666,7.9199,7.9629,7.9977,8.0299,7.9167,7.849,7.8391,7.8154,7.8465,7.9358,7.9949,8.0296,8.0296,8.0838,8.0708,7.9977,7.8977,7.813,7.7438,7.6438,7.6015,7.5938,7.5207,7.4361,7.3437,7.2706,7.1783,7.0898,7.0898,7.0898,7.0898,7.0898,7.0898,7.086,7.0552,7.0015,6.9438,6.9169,6.8783,6.8601,6.9179,6.9565,6.995,7.0606,7.0888,7.1004,7.1004,7.1126,7.1233,7.1231,7.1344,7.1381,7.1233,7.1327,7.1414,7.1257,7.1367,7.1326,7.078,7.0586,7.0586,7.0898,6.9827,6.936,7.0206,6.9489,6.9218,6.9895,6.9944,7.0539,7.1942,7.2032,7.239,7.3245,7.3899,7.4399,7.4707,7.5568,7.6123,7.6295,7.717,7.8156,7.9225,7.9977,8.0953,6.2499,6.4508,6.6493,6.6837,6.5806,6.4457,6.3576,6.152,5.9795,5.9795,6.075,6.1704,6.2108,6.5521,6.8699,7.0077,7.3019,7.6205,7.9307,8.0712,8.1521,8.182,8.1105,8.0338,7.9556,7.8433,7.7903,7.819,7.7818,7.7928,7.8663,7.7312,7.6353,7.5952,7.6795,7.7478,7.7947,7.9062,7.9806,8.0125,8.0445,8.0289,7.9785,7.89,7.8054,7.7246,7.6361,7.6015,7.5976,7.5553,7.463,7.3476,7.3053,7.2052,7.0898,7.0898,7.0898,7.0898,7.0898,7.0898,7.0898,7.0898,7.0629,7.0167,6.9283,6.936,6.9706,6.9706,7.0014,7.0398,7.0783,7.0898,7.0939,7.1041,7.1193,7.137,7.137,7.1412,7.1478,7.1478,7.1478,7.1536,7.1675,7.1689,7.1639,7.1405,7.1367,7.1367,7.1367,7.0876,7.0675,7.1065,7.0667,7.0452,7.0727,7.074,7.1046,7.1784,7.2249,7.2907,7.371,7.4573,7.5232,7.5697,7.6206,7.6721,7.7297,7.7773,7.8538,7.9592,8.0451,8.1126,6.261,6.4618,6.6217,6.5562,6.4585,6.3429,6.1924,6.0236,5.8964,5.9148,6.0346,6.141,6.1557,6.464,6.7499,6.853,7.1274,7.4431,7.7836,7.9987,8.1324,8.1627,8.1542,8.0868,7.9386,7.8042,7.7273,7.7273,7.6164,7.5807,7.6617,7.5378,7.4473,7.4005,7.5258,7.6126,7.658,7.7984,7.9029,7.9744,7.9816,7.9682,7.9297,7.8562,7.7784,7.6976,7.6284,7.5899,7.5707,7.5707,7.4745,7.3206,7.3206,7.2283,7.0898,7.0898,7.0898,7.0898,7.0898,7.0898,7.0898,7.0898,7.0898,7.0667,6.936,6.986,7.0783,7.0129,7.0398,7.0898,7.0898,7.0898,7.0966,7.1221,7.1404,7.1549,7.1616,7.1627,7.1627,7.1627,7.1627,7.1624,7.1744,7.1756,7.1811,7.1992,7.1992,7.1992,7.1992,7.1861,7.1756,7.1756,7.1686,7.1619,7.1491,7.1478,7.1633,7.2022,7.2691,7.3508,7.452,7.522,7.5889,7.6582,7.6819,7.7373,7.821,7.8422,7.9004,8.0,8.0664,8.1094,6.346,6.5124,6.6401,6.6391,6.4626,6.2695,6.1777,5.9795,5.8327,5.9038,5.9905,6.075,6.1484,6.3759,6.6347,6.8905,7.1446,7.4632,7.9023,8.0498,8.121,8.1421,8.0921,8.004,7.8538,7.7717,7.7273,7.7273,7.551,7.4085,7.3308,7.3102,7.3009,7.2962,7.309,7.4011,7.5853,7.6648,7.7521,7.8484,7.8836,7.858,7.7797,7.7537,7.6938,7.613,7.6015,7.5553,7.4822,7.4822,7.3822,7.2322,7.2322,7.1745,7.0898,7.0898,7.0898,7.0898,7.0898,7.0898,7.0898,7.0898,7.0898,7.086,7.0706,7.0783,7.0898,7.0821,7.0821,7.0898,7.0898,7.0898,7.0991,7.1365,7.1588,7.1738,7.1907,7.1951,7.1951,7.1951,7.1951,7.1951,7.1952,7.1952,7.1992,7.1992,7.1992,7.1992,7.1992,7.1992,7.1952,7.1952,7.1702,7.1498,7.1485,7.1478,7.2139,7.3664,7.3858,7.4637,7.6271,7.6427,7.6504,7.6582,7.755,7.8082,7.821,7.913,8.0039,8.0898,8.0976,8.1406,6.2933,6.4444,6.5624,6.515,6.3539,6.1887,6.108,5.9391,5.8364,5.9685,6.0199,6.1053,6.3211,6.4132,6.5568,6.8603,6.9664,7.1485,7.5449,7.7169,7.8475,7.9763,7.9806,7.9526,7.9087,7.7968,7.7051,7.6429,7.5649,7.4285,7.2221,7.1996,7.1917,7.1917,7.2456,7.3247,7.4154,7.5024,7.5929,7.6845,7.7342,7.7334,7.6902,7.7176,7.6823,7.6015,7.6015,7.5515,7.4707,7.4707,7.3707,7.2206,7.2206,7.1668,7.0898,7.0898,7.0591,7.0167,7.0167,6.9821,6.9398,6.9398,6.9744,7.0283,7.0744,7.0898,7.0898,7.0898,7.0898,7.0898,7.0898,7.0979,7.1148,7.142,7.1604,7.1753,7.1951,7.1992,7.1992,7.1992,7.1992,7.1992,7.1992,7.1992,7.1992,7.1992,7.1992,7.1992,7.1992,7.1992,7.1992,7.1992,7.1898,7.1792,7.1792,7.226,7.2885,7.3549,7.4442,7.5271,7.5973,7.6403,7.6676,7.6794,7.7734,7.8515,7.9091,8.0038,8.0937,8.1797,8.1797,8.1953,6.2386,6.3809,6.4751,6.3906,6.2658,6.1337,6.0272,5.8988,5.84,5.9758,6.0236,6.1114,6.3488,6.4033,6.4964,6.7619,6.8281,6.9702,7.3131,7.5065,7.6717,7.8332,7.8555,7.8616,7.8762,7.7673,7.6653,7.5934,7.5381,7.4225,7.2293,7.1484,7.0954,7.0669,7.1319,7.2065,7.2786,7.3476,7.4438,7.5595,7.6088,7.6149,7.576,7.6306,7.6053,7.5245,7.5245,7.4784,7.3976,7.3976,7.3091,7.1835,7.1865,7.1519,7.0979,7.0709,7.0246,6.9733,6.9438,6.8898,6.8385,6.8385,6.8848,6.9463,7.0041,7.0581,7.0953,7.0741,7.0848,7.0979,7.0979,7.1108,7.1223,7.1395,7.1577,7.1747,7.1864,7.1951,7.1992,7.1992,7.1992,7.1992,7.1992,7.1992,7.1992,7.1992,7.1992,7.1992,7.1992,7.1992,7.1992,7.1992,7.1992,7.1992,7.1992,7.2731,7.3313,7.3586,7.4818,7.5615,7.5893,7.6339,7.6825,7.727,7.8132,7.907,8.0078,8.0976,8.1719,8.2304,8.2304,8.2304,6.2156,6.3466,6.3906,6.3025,6.2218,6.119,5.9588,5.8584,5.8217,5.9038,5.9869,6.0639,6.1471,6.3014,6.4562,6.5895,6.7948,7.0421,7.3471,7.5356,7.6711,7.7588,7.7348,7.7121,7.7106,7.6491,7.613,7.613,7.4438,7.3408,7.3374,7.1563,7.0086,6.9156,6.9113,7.0079,7.1972,7.2009,7.3002,7.4948,7.5346,7.5063,7.4218,7.4571,7.4284,7.3553,7.3553,7.3014,7.2206,7.2206,7.1706,7.0939,7.1142,7.1211,7.1095,7.0253,6.9904,6.9748,6.8744,6.8398,6.8385,6.8385,6.8494,6.8596,6.8635,6.9845,7.1068,7.0401,7.0701,7.1211,7.1211,7.1211,7.1221,7.1182,7.1452,7.1689,7.1693,7.1859,7.1992,7.1992,7.1992,7.1992,7.1992,7.1992,7.1992,7.1992,7.1992,7.1992,7.1992,7.1992,7.1992,7.1992,7.1992,7.1992,7.1992,7.2627,7.336,7.4219,7.4922,7.568,7.6543,7.6582,7.7098,7.8171,7.8994,7.9931,8.0976,8.1875,8.2304,8.2304,8.2304,8.2304,5.9547,6.0773,6.1849,6.1011,6.0626,6.0314,5.9795,5.9292,5.9345,6.0768,6.0965,6.1596,6.3888,6.3702,6.4315,6.775,6.846,6.947,7.2066,7.4201,7.551,7.5492,7.6064,7.6404,7.6404,7.5728,7.5285,7.5285,7.4751,7.391,7.2716,7.1538,7.0657,7.0058,6.9433,6.9763,7.1194,7.0627,7.1034,7.2459,7.2434,7.2485,7.2579,7.3054,7.3338,7.3514,7.3514,7.3014,7.2206,7.2206,7.1668,7.0939,7.1104,7.0824,7.0292,7.0158,6.936,6.828,6.7851,6.7416,6.7023,6.6892,6.7318,6.7828,6.737,6.8371,6.971,7.0088,7.0663,7.1221,7.1221,7.1108,7.1041,7.1169,7.1389,7.1594,7.1675,7.1859,7.1992,7.1992,7.1992,7.1992,7.1992,7.1992,7.1992,7.1992,7.1992,7.1992,7.1992,7.1992,7.1992,7.1992,7.1992,7.1992,7.1992,7.3174,7.4027,7.4297,7.5346,7.6119,7.6391,7.6982,7.7529,7.8,7.95,8.0514,8.1015,8.1875,8.191,8.1217,8.1217,8.1148,5.8161,5.9253,6.0297,5.9791,5.9923,6.0092,5.9775,5.9533,5.9767,6.1145,6.1431,6.2024,6.3984,6.3676,6.4025,6.6881,6.7375,6.8215,7.063,7.2703,7.4019,7.4195,7.4777,7.5175,7.5175,7.4735,7.4441,7.4441,7.4184,7.339,7.1998,7.1106,7.0391,6.9841,6.8925,6.876,6.946,6.9,6.9122,6.9812,7.0283,7.0475,7.0546,7.1421,7.1875,7.1904,7.1904,7.1733,0.0,7.1413,7.1195,7.0952,7.1221,7.0774,7.0016,6.9876,6.8922,6.7659,6.7169,6.6757,6.6368,6.6252,6.6652,6.7156,6.6832,6.7832,6.9341,7.0555,7.1076,7.1326,7.1326,7.0888,7.0567,7.0973,7.1037,7.1128,7.1531,7.1807,7.1992,7.1992,7.1992,7.1992,7.1992,7.1992,7.1992,7.1992,7.1949,7.1909,7.1992,7.191,7.1909,7.1992,7.1992,7.1992,7.1992,7.341,7.43,7.4297,7.5634,7.641,7.641,7.7179,7.7825,7.833,7.9745,8.0741,8.1245,8.148,8.1067,8.0139,8.0139,8.0246,0.0,5.8648,5.9276,5.9276,5.9917,6.035,5.963,5.9475,0.0,6.0554,6.1329,6.1996,6.2442,6.3056,6.3691,6.4229,6.5369,6.7007,6.9405,7.1119,7.2547,7.3647,7.367,7.3597,7.3597,7.3487,7.345,7.345,7.2753,7.199,7.1162,7.0235,6.9368,6.8646,6.7736,6.7265,6.73,6.7265,6.7264,6.7332,6.8638,6.8853,6.8174,6.9565,6.9813,6.9138,6.9138,6.9493,7.0061,7.0061,7.0346,7.0887,7.1278,7.0859,6.9999,6.9428,6.861,6.766,6.673,6.6412,6.6423,6.6423,6.6512,6.6678,6.6911,6.8086,6.9648,7.1289,7.1576,7.14,7.14,7.0563,6.9898,7.0706,7.0495,7.0363,7.129,7.1696,7.1914,7.1992,7.1992,7.1992,7.1992,7.1952,7.1951,7.1951,7.1805,7.1747,7.1949,7.1805,7.1753,7.1951,7.1992,7.1992,7.1992,7.3371,7.4222,7.4297,7.5702,7.6551,7.6565,7.7311,7.8143,7.9061,7.9756,8.0586,8.1532,8.0715,7.9898,7.9073,7.9073,7.9485,5.7358,0.0,5.8912,5.8912,5.9574,6.0182,0.0,6.0203,6.0712,6.158,6.1573,6.2075,6.4082,6.3442,6.349,6.6128,6.6826,6.75,6.8915,7.102,7.2961,7.4441,7.3523,7.2789,7.2789,7.1651,7.0954,7.0954,7.077,7.0295,6.9413,6.8584,6.8058,6.7847,6.705,6.6825,6.73,6.67,6.6417,6.6484,6.6203,6.5915,6.5597,6.5925,6.6616,6.7441,6.7441,6.8232,6.9492,6.9492,6.9793,7.0308,7.0555,6.9955,6.898,6.9158,6.8216,6.6886,6.6631,6.6667,6.6782,6.6782,6.6789,6.695,6.7695,6.8164,6.8555,6.8984,6.9777,7.0498,7.0498,7.0088,6.9898,7.0706,7.0031,6.9617,7.1173,7.1228,7.1211,7.1875,7.1864,7.1758,7.1758,7.1698,7.1633,7.1633,7.1566,7.1554,7.1594,7.1566,7.1604,7.175,7.1758,7.1815,7.1992,7.2783,7.3598,7.4261,7.5117,7.582,7.6366,7.7907,7.8787,7.8858,7.984,8.0136,7.9788,7.9594,7.8971,7.7961,7.7971,7.7999,5.7676,5.894,6.0043,6.0439,6.1114,6.1704,6.1704,6.1243,6.0935,6.1408,6.1902,6.2581,6.3757,6.4092,6.4668,6.6266,6.6963,6.7948,6.9752,7.1138,7.2422,7.367,7.2716,7.1798,7.1431,7.0624,7.011,7.011,7.011,6.9579,6.8336,6.7842,6.7076,6.5949,6.5826,6.5971,6.6238,6.5815,6.502,6.3933,6.4253,6.4172,6.3744,6.4153,6.4931,6.5989,6.5651,6.6379,6.7784,6.7784,6.8103,6.8651,6.9088,6.859,6.7768,6.8307,6.7677,6.6516,6.6564,6.6738,6.6914,6.6914,6.6914,6.6992,6.7461,6.7617,6.7773,6.8515,6.953,7.0341,7.0341,7.0145,7.0145,7.0997,7.0386,7.0006,7.1321,7.1448,7.1405,7.1786,7.1758,7.1675,7.1624,7.1543,7.1478,7.1478,7.1404,7.142,7.151,7.1404,7.1427,7.1599,7.1614,7.1638,7.1774,7.2087,7.2887,7.4218,7.5377,7.6164,7.6436,7.7692,7.8488,7.8668,7.9241,7.9139,7.8325,7.8325,7.781,7.6868,7.7293,7.7612,5.8476,6.0312,6.187,6.2296,6.3019,6.352,6.3249,6.1948,6.0819,6.0973,6.2127,6.3143,6.325,6.4978,6.6395,6.6313,6.6962,6.8357,7.0909,7.1084,7.1248,7.2055,7.1431,7.0697,6.9963,6.9816,6.9706,6.9706,6.9706,6.8995,6.7294,6.7228,6.6202,6.395,6.4566,6.4889,6.4841,6.4841,6.3726,6.1518,6.2879,6.3099,6.23,6.3126,6.3809,6.4268,6.3773,6.4271,6.5523,6.5523,6.5939,6.6648,6.7213,6.7051,6.6525,6.7238,6.6973,6.6263,6.6533,6.6694,6.6874,6.6875,6.6914,6.6914,6.6914,6.6914,6.7187,6.8633,6.9554,7.0086,7.0086,6.9933,7.0013,7.0894,7.0479,7.0213,7.1263,7.1586,7.1638,7.1708,7.1679,7.1629,7.1471,7.1412,7.1389,7.1389,7.1262,7.1241,7.1403,7.1262,7.1223,7.142,7.1435,7.1488,7.1517,7.164,7.2348,7.3929,7.5439,7.637,7.6545,7.7194,7.7795,7.8299,7.8323,7.79,7.7092,7.7092,7.6707,7.6015,7.6899,7.7669,5.9487,6.1948,6.3458,6.1899,6.257,6.321,6.175,6.1078,6.1012,6.1755,6.2101,6.3115,6.591,6.6413,6.7066,6.9167,6.8833,6.8958,7.0772,7.0011,6.9559,7.0367,6.9779,6.9229,6.9119,6.8458,6.8054,6.8054,6.8054,6.7314,6.5567,6.5501,6.5009,6.3925,6.4014,6.4079,6.404,6.4076,6.3515,6.2387,6.2657,6.2044,6.067,6.1467,6.1536,6.1151,6.1639,6.242,6.3275,6.3275,6.4005,6.5152,6.5234,6.5464,6.5831,6.6498,6.6248,6.5666,6.6356,6.6625,6.6683,6.6834,6.6914,6.6914,6.6914,6.6914,6.6953,6.7226,6.7757,6.8287,6.8287,6.8169,6.8209,6.9091,6.8208,6.7826,7.0167,7.0258,7.0232,7.1471,7.1614,7.1464,7.128,7.1081,7.0979,7.0979,7.0979,7.0966,7.0979,7.0979,7.1029,7.1213,7.1242,7.1326,7.151,7.2185,7.2633,7.2782,7.3192,7.4328,7.6263,7.6984,7.7381,7.7476,7.7476,7.7053,7.6207,7.6207,7.613,7.6015,7.6899,7.7361,5.9062,6.1289,6.2889,6.2935,6.4715,6.6135,6.4916,6.37,6.2974,6.3358,6.3435,6.4051,6.609,6.7034,6.8074,6.9857,6.972,6.9669,7.0608,6.9916,6.9455,6.9825,6.9325,6.8568,6.7687,6.7283,6.688,6.6439,6.6402,6.5825,6.4491,6.4462,6.386,6.2622,6.3334,6.3493,6.3119,6.38,6.3559,6.2397,6.2796,6.2434,6.1282,6.0974,6.0878,6.0913,6.0386,6.067,6.145,6.145,6.2083,6.3083,6.3401,6.3924,6.4605,6.5464,6.5624,6.5495,6.612,6.6439,6.6622,6.6692,6.6791,6.6914,6.6914,6.6914,6.6914,6.6914,6.7458,6.8071,6.8071,6.8327,6.8733,6.912,6.8679,6.8619,7.026,6.9944,6.9652,7.0693,7.0381,6.9932,6.9722,6.9618,6.9552,6.9552,6.9937,7.0244,7.0244,7.0629,7.0927,7.1041,7.1053,7.1074,7.1169,7.1539,7.2169,7.3119,7.3175,7.3872,7.5388,7.573,7.613,7.6592,7.6592,7.6399,7.6015,7.6015,7.6245,7.6707,7.7553,7.7938,5.8242,6.0273,6.207,6.3594,6.5887,6.7771,6.769,6.6108,6.4829,6.5371,6.532,6.5436,6.632,6.7859,6.9341,7.0423,7.0484,7.0393,7.0401,6.9772,6.9174,6.8846,6.8456,6.77,6.6329,6.6219,6.5962,6.5375,6.5301,6.4892,6.3989,6.4056,6.3454,6.2025,6.3115,6.3464,6.2859,6.3986,6.395,6.2741,6.3184,6.3021,6.2212,6.1286,6.087,6.0809,5.9758,5.9448,5.9737,5.9737,6.0229,6.1077,6.1688,6.2635,6.368,6.4443,6.4978,6.541,6.581,6.6213,6.6549,6.6571,6.6738,6.6914,6.6914,6.6914,6.6914,6.6914,6.7383,6.789,6.789,6.8398,6.8906,6.8906,6.8906,6.9101,6.988,6.9429,6.9085,6.9727,6.9239,6.8633,6.8411,6.8385,6.8385,6.8385,6.8975,6.9475,6.9667,7.0244,7.0706,7.0898,7.0898,7.0898,7.0898,7.0898,7.1519,7.3021,7.3356,7.3783,7.4399,7.4822,7.5322,7.5976,7.6015,7.6015,7.6015,7.6015,7.6322,7.7015,7.7823,7.8207,5.75,5.9805,6.1914,6.2851,6.3772,6.4985,6.7118,6.6143,6.541,6.7641,6.7475,6.7205,6.8052,6.959,7.1,7.1909,7.1634,7.1048,7.0251,6.8982,6.7652,6.6396,6.6244,6.5986,6.5426,6.5411,6.5375,6.5301,6.5301,6.4945,6.4123,6.4509,6.4345,6.3505,6.4033,6.4312,6.4275,6.4782,6.4765,6.4235,6.3798,6.3164,6.2375,6.2466,6.1361,5.9285,5.9943,5.9389,5.8058,5.8058,5.8562,5.9342,6.0207,6.1787,6.3631,6.368,6.4294,6.5131,6.5359,6.5858,6.6429,6.6549,6.6738,6.6914,6.6914,6.6914,6.6914,6.6914,6.6953,6.6992,6.6992,6.7031,6.7109,6.7109,6.7109,6.7264,6.7969,6.8027,6.8163,6.8687,6.8733,6.8633,6.8411,6.8385,6.8385,6.8385,6.8462,6.8783,6.959,6.9744,7.0052,7.0821,7.0898,7.0898,7.0898,7.0898,7.095,7.1093,7.2605,7.3553,7.3591,7.5091,7.5938,7.6015,7.6015,7.6015,7.6015,7.6015,7.6015,7.6092,7.6976,7.74,5.6601,5.8945,6.1211,6.2656,6.3201,6.4198,6.7122,6.7145,6.7107,6.9097,6.8816,6.8148,6.7936,6.8759,6.9413,6.9247,6.9398,6.9404,6.9097,6.8319,6.7429,6.662,6.6179,6.5612,6.4644,6.453,6.4127,6.3062,6.2989,6.2658,6.1851,6.2234,6.238,6.2045,6.2841,6.3508,6.4018,6.4541,6.4977,6.5329,6.4782,6.4219,6.3638,6.2867,6.1823,6.0605,5.9853,5.9219,5.8599,5.8101,5.8703,6.0055,6.1343,6.2391,6.3191,6.3871,6.4332,6.4765,6.5468,6.5908,6.6244,6.6429,6.6202,6.5918,6.6054,6.6094,6.6094,6.6094,6.6484,6.6914,6.6914,6.6914,6.6914,6.6914,6.679,6.6924,6.7718,6.733,6.6982,6.7754,6.7381,6.6942,6.6846,6.6859,6.6859,6.6859,6.7282,6.7705,6.8052,6.8552,6.9206,7.0052,7.0591,7.0898,7.0898,7.0898,7.0898,7.0898,7.2014,7.2937,7.3476,7.4591,7.5438,7.5976,7.6015,7.6015,7.6015,7.6015,7.6284,7.6823,7.713,7.7284,5.5859,5.8242,6.0742,6.2226,6.2812,6.3788,6.6889,6.7633,6.8265,7.0214,6.9468,6.8222,6.7399,6.7588,6.7829,6.751,6.8038,6.8357,6.8126,6.7711,6.699,6.5785,6.554,6.4927,6.3456,6.3319,6.2842,6.1667,6.1492,6.1181,6.0665,6.1239,6.1561,6.1561,6.2395,6.3107,6.3729,6.4052,6.4523,6.5157,6.474,6.4549,6.459,6.3499,6.2585,6.1797,6.0642,5.9917,5.9476,5.8943,5.9509,6.0879,6.1996,6.2657,6.3144,6.3892,6.4181,6.4317,6.502,6.5261,6.5324,6.5483,6.5244,6.4947,6.5065,6.5155,6.5195,6.5195,6.5625,6.6094,6.6094,6.6484,6.6875,6.6831,6.669,6.672,6.7234,6.6686,6.6245,6.6833,6.6376,6.5897,6.5897,6.5897,6.5897,6.5897,6.6359,6.6821,6.7051,6.7628,6.8436,6.959,7.0437,7.0898,7.0898,7.0898,7.0898,7.0898,7.1706,7.2476,7.3053,7.413,7.4976,7.5592,7.5861,7.5861,7.5592,7.5861,7.6169,7.6476,7.6746,7.6899,5.5273,5.7773,6.0625,6.1484,6.2344,6.3672,6.6289,6.7399,6.8557,7.0999,6.9415,6.736,6.6549,6.6381,6.6646,6.7431,6.8114,6.8258,6.7494,6.7182,6.6078,6.3421,6.386,6.3641,6.1776,6.1618,6.1618,6.1581,6.127,6.1114,6.1055,6.2039,6.259,6.259,6.3014,6.3384,6.3573,6.3395,6.3395,6.3612,6.3384,6.3948,6.5061,6.4608,6.3663,6.2426,6.2426,6.1661,6.0427,6.0397,6.0879,6.1632,6.1632,6.2409,6.3593,6.3593,6.3671,6.3787,6.3787,6.3719,6.3601,6.3601,6.38,6.4082,6.4082,6.4163,6.4297,6.4297,6.4297,6.4297,6.4297,6.5586,6.6834,6.6634,6.6577,6.6482,6.6179,6.6109,6.6069,6.5921,6.5897,6.5897,6.5897,6.5897,6.5897,6.5897,6.5897,6.6205,6.6974,6.709,6.7744,6.9475,7.0398,7.0898,7.0898,7.0898,7.0898,7.0898,7.1706,7.2206,7.2206,7.3822,7.4707,7.4707,7.5553,7.5553,7.4707,7.5553,7.5553,7.4707,7.5592,7.5976,5.4726,5.7344,6.0469,6.0703,6.2344,6.4297,6.5664,6.6599,6.7724,6.9624,6.8959,6.7555,6.611,6.5718,6.5316,6.438,6.4804,6.5297,6.5538,6.5518,6.5021,6.3746,6.384,6.3413,6.1894,6.1759,6.1497,6.0935,6.081,6.0492,5.9909,6.0497,6.0828,6.0828,6.1301,6.1918,6.2683,6.2617,6.2972,6.3719,6.3666,6.3548,6.3367,6.3775,6.3572,6.2882,6.291,6.2674,6.2292,6.1959,6.1954,6.2223,6.2805,6.3118,6.3293,6.361,6.341,6.2979,6.3343,6.3411,6.3417,6.3545,6.3261,6.2839,6.3003,6.3155,6.3252,6.3252,6.3742,6.4296,6.4161,6.4542,6.5045,6.5568,6.5984,6.6198,6.6098,6.6035,6.5943,6.5923,6.5897,6.5897,6.5897,6.5897,6.5897,6.5897,6.5897,6.5974,6.6244,6.6744,6.7282,6.7821,6.8629,6.9129,6.9129,6.9706,7.0052,7.0052,7.0821,7.1822,7.3053,7.413,7.4707,7.4707,7.5553,7.5284,7.386,7.4668,7.4938,7.4707,7.4976,7.5399,5.6172,5.8437,6.1094,6.1797,6.3125,6.4531,6.539,6.6289,6.7187,6.8203,6.7461,6.6328,6.5273,6.4719,6.4156,6.3492,6.3698,6.406,6.4467,6.4458,6.4077,6.3104,6.3297,6.2957,6.1644,6.152,6.133,6.0852,6.066,6.0346,5.9794,6.02,6.0431,6.0378,6.0647,6.1134,6.1889,6.1806,6.2152,6.2878,6.2824,6.2532,6.2109,6.3264,6.354,6.3032,6.28,6.2691,6.2653,6.2311,6.2146,6.2227,6.272,6.2899,6.2917,6.3236,6.2939,6.2446,6.2746,6.2589,6.2317,6.2467,6.2162,6.1798,6.1934,6.2091,6.2188,6.2188,6.2623,6.3079,6.3027,6.3171,6.3676,6.4838,6.5336,6.5654,6.5968,6.5967,6.5897,6.5897,6.5897,6.5897,6.5897,6.5897,6.5897,6.5897,6.5897,6.5897,6.5897,6.659,6.709,6.709,6.7898,6.8385,6.8385,6.8898,6.9321,6.9667,7.0167,7.1206,7.2899,7.3437,7.3707,7.3707,7.4553,7.4361,7.2976,7.3822,7.4053,7.3707,7.4053,7.4668,5.8555,6.0234,6.1952,6.3632,6.4179,6.4492,6.5312,6.6015,6.6562,6.664,6.539,6.4297,6.4219,6.3515,6.3242,6.3945,6.3967,6.3887,6.3959,6.3833,6.3255,6.2017,6.2516,6.2453,6.1246,6.1135,6.1135,6.1135,6.0848,6.0586,6.0382,6.078,6.0935,6.0839,6.0804,6.0945,6.1283,6.1128,6.1195,6.1512,6.1387,6.1328,6.1406,6.2962,6.3471,6.3061,6.2478,6.2237,6.2177,6.1987,6.1911,6.1876,6.1876,6.2151,6.2536,6.2536,6.2306,6.1985,6.1985,6.1447,6.0781,6.0746,6.0811,6.0895,6.0867,6.0987,6.1143,6.1201,6.1214,6.1226,6.1265,6.1718,6.2567,6.4183,6.4609,6.485,6.5498,6.5667,6.5705,6.5782,6.5782,6.582,6.5897,6.5897,6.5897,6.5897,6.5897,6.5897,6.5897,6.6551,6.6974,6.6974,6.7705,6.8167,6.8167,6.8244,6.8629,6.9398,6.9629,7.0398,7.1898,7.2129,7.2206,7.2206,7.3053,7.3014,7.2091,7.2976,7.2976,7.2206,7.3014,7.3822,5.7226,5.8819,6.0783,6.1839,6.3128,6.4234,6.4491,6.4219,6.4023,6.4726,6.457,6.4101,6.3398,6.3125,6.2851,6.2344,6.2225,6.2411,6.299,6.3042,6.2868,6.2413,6.2503,6.2256,6.1327,6.125,6.125,6.125,6.1168,6.1136,6.1102,6.1026,6.0979,6.0963,6.0828,6.0945,6.1283,6.1253,6.1383,6.1677,6.1632,6.1591,6.1627,6.243,6.3081,6.3616,6.3495,6.3195,6.2794,6.2767,6.268,6.2602,6.2602,6.2425,6.2209,6.2209,6.1721,6.1089,6.1089,6.0973,6.0746,6.0365,6.0286,6.0223,5.987,5.9869,6.0046,6.0415,6.0615,6.0793,6.0995,6.1148,6.1533,6.2442,6.3157,6.3673,6.3832,6.3858,6.4051,6.4743,6.4897,6.5089,6.5782,6.5897,6.5897,6.5897,6.5897,6.5897,6.5897,6.6051,6.6167,6.6167,6.632,6.6436,6.6436,6.7013,6.7475,6.7628,6.8936,6.986,7.0206,7.1514,7.2206,7.2206,7.3053,7.2745,7.1168,7.2052,7.236,7.2206,7.2399,7.2937,5.7617,5.9008,6.0477,6.172,6.2762,6.3508,6.3575,6.2966,6.25,6.2969,6.3047,6.293,6.2461,6.2383,6.2226,6.1708,6.1588,6.1707,6.2022,6.2061,6.2027,6.1953,6.1913,6.1793,6.1427,6.1387,6.1417,6.1501,6.1498,6.146,6.1295,6.1207,6.1056,6.0905,6.0834,6.0923,6.1158,6.1246,6.1392,6.1627,6.1678,6.1719,6.1719,6.1998,6.2353,6.2776,6.273,6.2546,6.2264,6.2213,6.215,6.2065,6.1986,6.179,6.1559,6.1493,6.1166,6.0781,6.0781,6.0781,6.0734,6.0231,6.0103,5.9991,5.9526,5.9446,5.9558,5.9807,5.9928,6.0099,6.0462,6.0573,6.0727,6.1331,6.2127,6.282,6.3243,6.3308,6.3435,6.3897,6.3974,6.4128,6.4589,6.5013,6.5282,6.5282,6.5628,6.5897,6.5897,6.5897,6.5897,6.5897,6.5897,6.5897,6.5897,6.6282,6.6667,6.709,6.7936,6.8821,6.9667,7.0552,7.1168,7.1552,7.2014,7.1822,7.0898,7.136,7.1591,7.1591,7.1591,7.2052,5.7656,5.9081,6.0325,6.1985,6.2416,6.2516,6.2535,6.2084,6.1678,6.1678,6.1679,6.1719,6.1719,6.1679,6.1633,6.1512,6.1491,6.1413,6.1306,6.1306,6.1323,6.1323,6.1349,6.14,6.1517,6.1522,6.158,6.1679,6.1679,6.1577,6.1339,6.1277,6.1105,6.0845,6.0816,6.085,6.0997,6.1172,6.1339,6.1504,6.1634,6.1719,6.1719,6.1719,6.1719,6.168,6.158,6.1522,6.1517,6.1404,6.1349,6.1312,6.114,6.1073,6.0979,6.0871,6.0827,6.0781,6.0781,6.0781,6.0722,6.0161,5.9962,5.9885,5.9319,5.9139,5.9158,5.9248,5.9266,5.9372,5.9855,6.0059,6.0189,6.0597,6.1284,6.205,6.2704,6.2858,6.2897,6.3051,6.3205,6.3308,6.3308,6.3897,6.4397,6.4397,6.5128,6.5667,6.5667,6.582,6.5897,6.5897,6.5897,6.5897,6.5897,6.5897,6.6167,6.6859,6.7013,6.7744,6.9206,6.9398,6.986,7.0667,7.0821,7.0898,7.0898,7.0898,7.0898,7.0898,7.0898,7.1283,5.4375,5.6743,5.931,6.1056,6.1349,6.1291,6.1445,6.1495,6.1517,6.1517,6.1631,6.1719,6.1719,6.1627,6.1515,6.1504,6.1392,6.1312,6.1289,6.1392,6.1485,6.1485,6.1579,6.1638,6.1678,6.1679,6.1679,6.1719,6.1584,6.1509,6.1488,6.1195,6.1014,6.0952,6.0839,6.085,6.0997,6.1031,6.1195,6.1504,6.1634,6.1719,6.1719,6.1719,6.1719,6.1719,6.1679,6.1679,6.1678,6.1638,6.158,6.1485,6.1435,6.1256,6.0997,6.0961,6.0884,6.0781,6.0781,6.0781,6.0647,5.9792,5.9492,5.9319,5.8461,5.8209,5.8282,5.8693,5.8776,5.8913,5.9372,5.9808,6.0118,6.0175,6.0585,6.1012,6.1089,6.1127,6.1358,6.2089,6.282,6.3308,6.3308,6.3397,6.3462,6.3462,6.4205,6.4782,6.4782,6.5436,6.5897,6.5897,6.5897,6.5897,6.5897,6.5897,6.5936,6.6051,6.6705,6.7205,6.7436,6.8167,6.8975,6.986,7.0552,7.0898,7.0898,7.0898,7.0898,7.0898,7.0898,7.0975,5.4474,5.6918,5.9083,6.0627,6.1018,6.1023,6.112,6.1277,6.1396,6.1495,6.1566,6.1582,6.1582,6.1525,6.1432,6.125,6.1277,6.1253,6.1158,6.1164,6.1231,6.1231,6.12,6.1249,6.1312,6.1309,6.1336,6.1452,6.1409,6.1349,6.1226,6.1066,6.0982,6.0902,6.0823,6.0811,6.0902,6.0973,6.1119,6.1383,6.1517,6.1582,6.1584,6.1678,6.1719,6.1719,6.1719,6.1719,6.1719,6.1719,6.1678,6.1588,6.152,6.1373,6.1165,6.1048,6.0915,6.0781,6.0781,6.0781,6.0671,5.9991,5.9609,5.9266,5.8591,5.8194,5.8065,5.8238,5.8326,5.8418,5.8894,5.9139,5.9441,5.9962,6.0269,6.0482,6.0746,6.0781,6.0896,6.1281,6.1666,6.1897,6.1897,6.2281,6.2627,6.2627,6.3358,6.3858,6.3858,6.4628,6.5166,6.5166,6.5342,6.5446,6.5446,6.5199,6.5073,6.5073,6.5378,6.5797,6.6255,6.6636,6.7245,6.81,6.9035,6.9975,7.0898,7.0437,7.0475,7.0898,7.0898,7.0898,5.416,5.6247,5.7804,5.9716,6.0421,6.0674,6.0906,6.1089,6.1194,6.1136,6.1137,6.1153,6.1153,6.1348,6.1421,6.1168,6.1234,6.122,6.1017,6.0949,6.0887,6.0816,6.0774,6.0804,6.0889,6.1023,6.1123,6.1295,6.1246,6.1165,6.1006,6.0982,6.0895,6.0793,6.0781,6.0781,6.0781,6.0916,6.1081,6.1227,6.1378,6.1471,6.1432,6.1582,6.1637,6.1637,6.1679,6.1719,6.1719,6.1719,6.1719,6.1679,6.1584,6.1467,6.1271,6.1143,6.0974,6.0781,6.0781,6.0781,6.0734,6.0231,5.987,5.9458,5.8874,5.8461,5.8164,5.8042,5.7997,5.8074,5.8439,5.8611,5.8913,5.9744,5.9991,6.0217,6.071,6.0781,6.0781,6.0781,6.0781,6.0781,6.0781,6.1331,6.1793,6.1793,6.2474,6.3012,6.3012,6.3935,6.4512,6.4282,6.4767,6.5023,6.4794,6.4547,6.4389,6.4389,6.4389,6.469,6.5257,6.5294,6.5672,6.6559,6.712,6.8195,6.9896,6.9498,6.9672,7.0388,7.0604,7.0777,5.1747,5.3156,5.446,5.7783,5.9109,5.9804,6.0612,6.0915,6.0848,6.0209,6.0187,6.0252,6.0252,6.0954,6.1501,6.1491,6.1369,6.1217,6.1049,6.0781,6.0552,6.0365,6.0512,6.0614,6.0605,6.1013,6.1295,6.1289,6.1128,6.1014,6.1006,6.0882,6.0804,6.0781,6.0781,6.0781,6.0781,6.0916,6.1006,6.1023,6.122,6.1301,6.1301,6.1471,6.1509,6.1512,6.1636,6.1719,6.1719,6.1719,6.1719,6.1719,6.1679,6.152,6.1283,6.1277,6.1079,6.0781,6.0781,6.0781,6.0734,6.0231,6.0089,5.9885,5.899,5.8693,5.857,5.8119,5.7997,5.7997,5.8042,5.8354,5.8815,5.9319,5.9792,6.0217,6.071,6.0781,6.0781,6.0781,6.0781,6.0781,6.0781,6.0819,6.0858,6.0858,6.1589,6.2178,6.2178,6.3589,6.4282,6.3474,6.4422,6.4756,6.3939,6.4189,6.4389,6.4389,6.4389,6.4426,6.4464,6.4464,6.4841,6.5634,6.4973,6.5426,6.7108,6.7807,6.8469,6.9017,6.9802,7.0394,5.0112,5.1253,5.2438,5.5238,5.6519,5.728,5.8176,5.8887,5.9351,5.9192,5.972,6.0044,5.9453,5.9999,6.0689,6.1119,6.1159,6.0975,6.0586,6.0454,6.0276,5.9887,6.0095,6.0303,6.0303,6.0695,6.0974,6.0974,6.0923,6.0871,6.0871,6.085,6.0781,6.0781,6.0781,6.0781,6.0781,6.0856,6.0871,6.0871,6.1014,6.1112,6.1128,6.1392,6.1504,6.1507,6.1635,6.1719,6.1719,6.1719,6.1719,6.1719,6.1719,6.1522,6.1283,6.1283,6.1087,6.0781,6.0781,6.0781,6.0769,6.061,6.0338,6.0059,5.969,5.9158,5.8673,5.8503,5.8216,5.8051,5.8354,5.857,5.8894,5.9696,6.0203,6.061,6.0757,6.0781,6.0781,6.0781,6.0781,6.0781,6.0781,6.0781,6.0781,6.0781,6.105,6.1281,6.1281,6.2281,6.2858,6.2551,6.3566,6.4035,6.3393,6.3669,6.3745,6.3408,6.3363,6.3363,6.3363,6.3363,6.3534,6.3794,6.3534,6.4529,6.6918,6.6635,6.6881,6.7636,6.7901,6.8144,4.8491,4.9414,5.0632,5.3397,5.4505,5.5374,5.7119,5.7839,5.8231,5.8681,5.9315,5.9587,5.8994,5.9261,5.9747,6.0344,6.0675,6.0667,6.014,5.9946,5.9745,5.9559,5.9475,5.9498,5.9631,5.9856,6.005,6.0319,6.0358,6.0473,6.0781,6.0781,6.0666,6.0358,6.0666,6.0666,6.0358,6.0224,6.0175,6.0175,5.9964,5.9868,5.9878,6.0294,6.053,6.057,6.0995,6.1404,6.1719,6.1719,6.1719,6.1719,6.1719,6.1522,6.1283,6.1283,6.1087,6.0781,6.0781,6.0781,6.0781,6.0781,6.0597,6.0311,6.0146,5.9642,5.9121,5.899,5.8733,5.8528,5.8855,5.9028,5.9319,5.9946,6.0469,6.0781,6.0781,6.0781,6.0781,6.0781,6.0781,6.0781,6.0781,6.0781,6.0781,6.0781,6.0781,6.0781,6.0781,6.1562,6.1985,6.1678,6.2571,6.2981,6.2546,6.2745,6.2909,6.2909,6.302,6.3144,6.3317,6.334,6.3224,6.3086,6.3086,6.3859,6.5523,6.524,6.5495,6.6227,6.649,6.6741,0.0,0.0,0.0,5.2174,5.3124,5.4142,5.7503,5.7765,5.7531,5.8591,5.8808,5.8847,5.8836,5.8732,5.8823,5.9171,5.9973,6.0334,5.9678,5.9203,5.905,5.9334,5.8617,5.8311,5.8763,5.8514,5.8627,5.9396,5.9473,5.9858,6.0704,6.0742,6.0358,5.9473,6.0281,6.0319,5.9473,5.905,5.8873,5.8835,5.7981,5.7586,5.7614,5.8219,5.8552,5.8721,5.9751,6.076,6.164,6.168,6.1719,6.1719,6.168,6.1483,6.125,6.1244,6.1048,6.0781,6.0781,6.0781,6.0781,6.0781,6.0781,6.0722,6.0269,6.0118,5.9991,5.9543,5.9407,5.9389,5.9407,5.9776,6.0132,6.0132,6.0469,6.0781,6.0781,6.0781,6.0781,6.0781,6.0781,6.0781,6.0781,6.0781,6.0781,6.0781,6.0781,6.0781,6.0781,6.1562,6.1755,6.0896,6.1431,6.1716,6.1309,6.1463,6.2011,6.2975,6.3368,6.3797,6.4332,6.4351,6.4101,6.3578,6.3578,6.3325,6.2818,6.3638,6.4328,6.4845,6.5628,6.6272,4.6212,0.0,0.0,0.0,0.0,0.0,5.2562,5.3492,5.4284,5.5834,5.6735,5.7187,5.6995,5.7897,5.8355,5.7317,5.8336,5.923,5.8968,5.9153,5.9191,5.8895,5.8703,5.8676,5.8778,5.8514,5.8396,5.8627,5.8627,5.8973,5.9819,5.9858,5.9473,5.8665,5.8858,5.8896,5.8627,5.8195,5.7943,5.7943,5.7415,5.7163,5.7194,5.7781,5.8085,5.8181,5.9572,6.0349,6.0679,6.1404,6.1719,6.164,6.1015,6.0588,6.0361,6.0349,6.0148,5.9935,6.0589,6.0781,6.0781,6.0781,6.0781,6.0769,6.0647,6.0365,6.0089,5.9931,5.9642,5.9475,5.9823,6.0231,6.061,6.061,6.0722,6.0781,6.0781,6.0781,6.0781,6.0781,6.0781,6.0781,6.0781,6.0781,6.0781,6.0781,6.0781,6.0781,6.0781,6.1012,6.105,6.0819,6.1239,6.1343,6.0846,6.1413,6.1779,6.1678,6.2066,6.2635,6.3446,6.2861,6.2768,6.3236,6.2615,6.2537,6.2997,6.3094,6.3235,6.337,6.3591,6.4021,4.5998,4.6228,4.6644,4.7439,0.0,0.0,5.1152,5.1849,5.2637,5.4747,5.5933,5.6557,5.6301,5.7364,5.7962,5.7066,5.7736,5.8406,5.8446,5.8986,5.9372,5.9284,5.8698,5.8391,5.8591,5.7743,5.7357,5.7742,5.7742,5.8127,5.8934,5.9011,5.8627,5.778,5.8127,5.8127,5.7742,5.7315,5.7104,5.7104,5.6307,5.5967,5.5967,5.6335,5.6599,5.69,5.8156,5.9056,5.9717,6.0686,6.1091,6.1094,6.0586,6.0054,5.9576,5.99,5.9809,5.9703,6.0519,6.0781,6.0781,6.0781,6.0781,6.0781,6.0781,6.061,6.0378,6.0378,6.0189,6.0059,6.0324,6.061,6.0781,6.0781,6.0781,6.0781,6.0781,6.0781,6.0781,6.0781,6.0781,6.0781,6.0781,6.0781,6.0781,6.0781,6.0781,6.0781,6.0781,6.0781,6.0781,6.0781,6.0661,6.0513,6.0416,6.0623,6.0798,6.0937,6.1507,6.2178,6.288,6.2591,6.2553,6.29,6.2391,6.2266,6.256,6.2811,6.3006,6.3121,6.3121,6.3308,4.613,4.6677,4.7396,4.8068,4.8464,0.0,5.1479,5.1512,5.1797,5.4219,5.5351,5.5896,5.5972,5.6587,5.7156,5.7303,5.7544,5.7863,5.8207,5.8971,5.9625,6.0074,5.8758,5.7939,5.8285,5.6819,5.6137,5.6791,5.6967,5.7345,5.8021,5.8137,5.7801,5.6953,5.7653,5.767,5.6872,5.646,5.6265,5.6227,5.5064,5.4484,5.4484,5.4484,5.4762,5.5258,5.6192,5.7397,5.8751,5.9667,6.0176,6.039,6.0312,5.9635,5.8822,5.9459,5.9636,5.963,6.041,6.0704,6.0781,6.0781,6.0781,6.0781,6.0781,6.0781,6.0781,6.0781,6.0804,6.0827,6.0793,6.0781,6.0781,6.0781,6.0781,6.0781,6.0781,6.0781,6.0781,6.0781,6.0781,6.0781,6.0781,6.0781,6.0781,6.0781,6.0781,6.0781,6.0781,6.0781,6.0769,6.0734,5.9916,5.9543,5.9916,5.9448,5.9551,6.0432,6.1236,6.1915,6.2468,6.2835,6.2861,6.2551,6.2551,6.2329,6.1835,6.2577,6.316,6.3531,6.3531,6.3606,4.6335,4.6816,4.7371,4.6745,4.7714,0.0,4.8591,4.8984,4.9726,5.0937,5.1328,5.1833,5.304,5.3418,5.3728,5.4322,5.6048,5.7764,5.8975,5.963,5.9977,6.0103,5.9524,5.8904,5.8346,5.7357,5.6522,5.5972,5.6715,5.7016,5.6634,5.7217,5.7178,5.6369,5.6374,5.6274,5.6128,5.56,5.5336,5.5336,5.4761,5.4484,5.4484,5.4484,5.4579,5.4722,5.6022,5.683,5.7327,5.8601,5.9669,6.0351,5.9687,5.872,5.7712,5.7831,5.8196,5.8704,5.9496,6.0204,6.0781,6.0781,6.0781,6.0781,6.0781,6.0781,6.0781,6.0781,6.0882,6.0925,6.0811,6.0781,6.0781,6.0781,6.0781,6.0781,6.0781,6.0781,6.0781,6.0781,6.0781,6.0781,6.0781,6.0781,6.0781,6.0781,6.0781,6.0781,6.0781,6.0781,6.0647,6.0297,5.9706,5.9284,5.9009,5.8882,5.8875,5.9097,5.9959,6.0791,6.1605,6.1416,6.1565,6.2183,6.2183,6.2158,6.2042,6.2058,6.2466,6.3181,6.3181,6.3577,4.6438,4.6872,4.7461,4.6985,4.7575,0.0,0.0,4.8242,4.8633,4.9922,5.0195,5.0546,5.1747,5.2329,5.286,5.3596,5.5434,5.6978,5.7568,5.9281,6.0456,6.0456,5.9533,5.8742,5.8357,5.7126,5.619,5.5817,5.6283,5.6435,5.6225,5.6581,5.662,5.6191,5.6116,5.6071,5.6071,5.5788,5.5634,5.5634,5.5204,5.4969,5.4903,5.4686,5.4572,5.4554,5.5465,5.6181,5.678,5.7748,5.849,5.9012,5.8671,5.7921,5.7046,5.7289,5.7599,5.7934,5.8648,5.9535,6.0305,6.0305,6.0626,6.1036,6.1036,6.1036,6.1036,6.1036,6.1112,6.1135,6.1062,6.0983,6.0884,6.0884,6.0856,6.0781,6.0781,6.0781,6.0781,6.0781,6.0781,6.0781,6.0781,6.0781,6.0781,6.0781,6.0781,6.0781,6.0781,6.0781,6.0722,6.0482,6.0006,5.9642,5.9407,5.899,5.8713,5.8713,5.9354,5.9966,6.0383,6.0673,6.1012,6.1435,6.1447,6.1447,6.1447,6.1343,6.1834,6.2838,6.2838,6.3082,4.6523,4.707,4.7773,4.7422,0.0,4.8164,0.0,0.0,0.0,4.9179,4.9413,4.9646,5.0464,5.1208,5.1946,5.2684,5.4429,5.5545,5.5267,5.7949,5.9931,6.0062,5.9011,5.8242,5.8088,5.6515,5.5615,5.5924,5.5821,5.5916,5.626,5.6269,5.6269,5.6269,5.6246,5.6232,5.6232,5.6207,5.6191,5.6191,5.5824,5.5581,5.5461,5.5032,5.4777,5.4655,5.5004,5.5603,5.6382,5.6925,5.726,5.743,5.7771,5.7343,5.6596,5.7038,5.7297,5.7468,5.7958,5.877,5.9591,5.9591,6.0123,6.0816,6.0816,6.0917,6.1089,6.1061,6.119,6.1323,6.1295,6.1158,6.0997,6.0997,6.0884,6.0781,6.0781,6.0781,6.0742,6.0589,6.0704,6.0781,6.0781,6.0781,6.0781,6.0781,6.0781,6.0781,6.0781,6.0781,6.0757,6.0659,6.0324,6.0074,5.9962,5.9176,5.8713,5.8713,5.9065,5.9266,5.9266,6.0161,6.0722,6.0781,6.0781,6.0781,6.0781,6.0781,6.1403,6.248,6.248,6.2595,4.6523,4.75,0.0,0.0,4.8203,4.9336,4.7109,0.0,4.7381,4.6694,0.0,4.6787,4.754,0.0,0.0,4.9137,5.135,5.2932,5.2873,5.5063,5.6831,5.7384,5.7934,5.8011,5.7214,5.575,5.5188,5.6119,5.5567,5.5577,5.652,5.656,5.656,5.656,5.645,5.6377,5.6377,5.6251,5.6191,5.6191,5.6136,5.6119,5.6096,5.5599,5.5326,5.5209,5.5242,5.5363,5.5476,5.6096,5.6361,5.6484,5.75,5.7297,5.6438,5.65,5.6905,5.7426,5.7468,5.8084,5.8829,5.8829,5.8919,5.9009,5.9009,5.9611,6.0297,6.0188,6.0789,6.1432,6.1323,6.1158,6.0997,6.0997,6.0884,6.0781,6.0781,6.0781,6.055,5.9819,6.0281,6.0781,6.0781,6.0781,6.0781,6.0781,6.0781,6.0781,6.0781,6.0781,6.0634,6.0203,6.0132,5.9931,5.9509,5.9009,5.8713,5.8713,5.8736,5.8776,5.8776,5.9658,6.0365,6.0781,6.0781,6.0781,6.0781,6.0781,6.1269,6.2156,6.2156,6.2528,4.6523,4.6836,0.0,0.0,0.0,0.0,4.7187,0.0,4.6739,4.6837,0.0,0.0,0.0,0.0,0.0,0.0,4.9679,5.0884,5.0371,5.2012,5.4061,5.6203,5.6334,5.6068,5.5709,5.5157,5.5219,5.625,5.5549,5.5558,5.6562,5.6601,5.6601,5.6601,5.6558,5.6514,5.6514,5.6458,5.6448,5.6448,5.6448,5.6386,5.6297,5.6091,5.578,5.5439,5.5691,5.5667,5.5466,5.608,5.6287,5.625,5.6826,5.6788,5.6406,5.6417,5.6563,5.6792,5.6724,5.7328,5.8211,5.8811,5.898,5.898,5.898,5.9271,5.9595,5.9534,5.9859,6.0259,6.0668,6.0282,5.9894,6.032,5.9938,5.9436,5.9353,5.9358,5.9242,5.8858,5.9088,5.9358,5.9358,6.0165,6.0781,6.0781,6.0781,6.0781,6.0781,6.0781,6.0734,6.0521,6.0508,6.0443,6.0217,5.9526,5.9084,5.9084,5.8855,5.8815,5.9084,5.9475,5.9916,6.0378,6.0378,6.0521,6.0781,6.0781,6.0973,6.137,6.137,6.1512,4.6484,0.0,0.0,0.0,0.0,0.0,0.0,0.0,0.0,0.0,4.6579,0.0,0.0,0.0,0.0,0.0,0.0,4.9059,4.843,4.9649,5.1612,5.4386,5.4504,5.4396,5.4418,5.4291,5.4753,5.5957,5.5274,5.5337,5.6523,5.6561,5.6558,5.6558,5.6558,5.6558,5.6558,5.6562,5.6601,5.6601,5.6601,5.6559,5.6456,5.6429,5.6149,5.5697,5.5977,5.5887,5.5586,5.6087,5.6172,5.6074,5.6263,5.6301,5.6262,5.6367,5.6427,5.645,5.6358,5.6806,5.7516,5.8241,5.8476,5.8476,5.8476,5.8633,5.8828,5.8828,5.9023,5.9336,5.9922,5.9476,5.902,5.9542,5.9061,5.844,5.8336,5.8319,5.8242,5.7973,5.8127,5.8204,5.7973,5.9319,6.0435,6.0435,6.0666,6.0781,6.0781,6.0781,6.0781,6.0781,6.0781,6.0781,6.0781,5.9931,5.9284,5.9009,5.8713,5.8733,5.9176,5.9194,5.9424,5.9901,5.9901,6.0146,6.061,6.061,6.0659,6.0781,6.0781,6.0781,0.0,0.0,0.0,4.6562,0.0,0.0,0.0,0.0,4.706,0.0,0.0,0.0,0.0,0.0,0.0,0.0,0.0,0.0,0.0,4.8312,4.9516,5.0987,5.2624,5.3636,5.3636,5.3007,5.3298,5.502,5.4444,5.4805,5.6523,5.6463,5.6394,5.6394,5.6394,5.6394,5.6394,5.6557,5.6601,5.6601,5.6601,5.6601,5.6601,5.6462,5.631,5.6172,5.5995,5.5843,5.5703,5.5835,5.584,5.5735,5.6085,5.6104,5.5947,5.6293,5.6469,5.6601,5.6601,5.6601,5.664,5.668,5.668,5.668,5.668,5.7265,5.793,5.793,5.8555,5.9219,5.9219,5.9086,5.8864,5.8758,5.8627,5.844,5.8336,5.8319,5.805,5.7214,5.7703,5.805,5.7176,5.8434,5.955,5.955,6.0242,6.0781,6.0781,6.0781,6.0781,6.0781,6.0781,6.0781,6.0781,5.9931,5.9028,5.8097,5.8042,5.8216,5.8713,5.8696,5.8951,5.9407,5.9407,5.9642,6.0132,6.0132,6.0351,6.0781,6.0781,6.0781,0.0,0.0,4.668,4.6367,0.0,0.0,0.0,0.0,0.0,0.0,0.0,0.0,0.0,0.0,0.0,0.0,0.0,0.0,0.0,4.7317,4.8289,4.9367,5.1005,5.2061,5.2015,5.2394,5.2883,5.347,5.3827,5.4492,5.5664,5.6149,5.6389,5.6389,5.6297,5.6293,5.6389,5.6452,5.6512,5.6601,5.6601,5.6601,5.6601,5.6458,5.6363,5.63,5.5833,5.5602,5.5558,5.531,5.5168,5.507,5.5479,5.5566,5.5575,5.6178,5.6443,5.6465,5.6561,5.6601,5.6601,5.6601,5.6601,5.6601,5.6601,5.6797,5.7031,5.7031,5.7265,5.7617,5.8203,5.785,5.7477,5.777,5.7397,5.6922,5.6655,5.6588,5.6472,5.6203,5.6395,5.6472,5.6203,5.7088,5.805,5.8627,5.9396,5.9935,5.9935,6.0435,6.0781,6.0781,6.0781,6.0781,6.0781,5.9931,5.9009,5.8088,5.7997,5.8051,5.8216,5.8238,5.8461,5.8932,5.923,5.9625,6.0103,6.0391,6.0634,6.0781,6.0781,6.0781,4.6289,4.6289,0.0,4.6289,4.6289,0.0,4.614,0.0,4.6314,0.0,0.0,0.0,0.0,0.0,0.0,0.0,0.0,0.0,0.0,4.654,4.7187,4.8041,4.975,5.0935,5.1164,5.1555,5.207,5.2656,5.3203,5.4062,5.5234,5.5936,5.6344,5.6344,5.6191,5.6186,5.6344,5.6377,5.6304,5.6133,5.6445,5.6445,5.6133,5.6302,5.6374,5.6297,5.5683,5.5239,5.4929,5.4524,5.4403,5.4486,5.4753,5.509,5.5517,5.6108,5.6386,5.6465,5.6561,5.6601,5.6601,5.6601,5.6601,5.6601,5.6601,5.6601,5.6601,5.6601,5.6601,5.6718,5.7222,5.6946,5.6575,5.6809,5.646,5.6029,5.5768,5.5703,5.5703,5.5703,5.5703,5.5703,5.5703,5.6175,5.6819,5.7703,5.855,5.9088,5.9088,5.9819,6.0319,6.0319,6.0627,6.0659,6.0338,5.976,5.9009,5.8088,5.7997,5.7997,5.7997,5.7997,5.8216,5.8713,5.9009,5.9458,6.0103,6.0391,6.0634,6.0781,6.0781,6.0781]}]]